Wetterdaten: aktuell Montag, 17.06.2019 19:16
Datum Zeit Temp. I. Temp. 2m Temp. 5cm LF I. Luftf.2m Luftdruck Regen Wind Richtung Richtung Taupunkt Windchill Windben
17.06.2019 19:16 22,4 C 24,0 C 23,6 C 63 % 53 % 1023,3 hPa 0,0 l/m 10,9 km/h (2 Bft) S-SO 157 13,8 C 24,0 C 12,1 km/h (2 Bft)
17.06.2019 19:15 22,4 C 24,0 C 23,6 C 63 % 53 % 1023,3 hPa 0,0 l/m 10,9 km/h (2 Bft) S-SO 157 13,8 C 24,0 C 12,1 km/h (2 Bft)
17.06.2019 19:14 22,4 C 24,0 C 23,7 C 63 % 52 % 1023,1 hPa 0,0 l/m 11,3 km/h (2 Bft) O 90 13,5 C 24,0 C 11,1 km/h (2 Bft)
17.06.2019 19:13 22,4 C 24,0 C 23,7 C 63 % 52 % 1023,1 hPa 0,0 l/m 11,3 km/h (2 Bft) O 90 13,5 C 24,0 C 11,1 km/h (2 Bft)
17.06.2019 19:12 22,4 C 24,2 C 23,8 C 63 % 52 % 1023,1 hPa 0,0 l/m 10,8 km/h (2 Bft) O 90 13,7 C 24,2 C 14,6 km/h (3 Bft)
17.06.2019 19:11 22,4 C 24,2 C 23,8 C 63 % 52 % 1023,1 hPa 0,0 l/m 10,8 km/h (2 Bft) O 90 13,7 C 24,2 C 14,6 km/h (3 Bft)
17.06.2019 19:10 22,5 C 24,2 C 23,8 C 63 % 52 % 1023,1 hPa 0,0 l/m 10,9 km/h (2 Bft) O-SO 112 13,7 C 24,2 C 18,8 km/h (3 Bft)
17.06.2019 19:09 22,5 C 24,2 C 23,8 C 63 % 52 % 1023,1 hPa 0,0 l/m 10,9 km/h (2 Bft) O-SO 112 13,7 C 24,2 C 18,8 km/h (3 Bft)
17.06.2019 19:08 22,4 C 24,2 C 23,9 C 63 % 52 % 1023,1 hPa 0,0 l/m 10,5 km/h (2 Bft) N-NO 22 13,7 C 24,2 C 18,2 km/h (3 Bft)
17.06.2019 19:07 22,4 C 24,2 C 23,9 C 63 % 52 % 1023,1 hPa 0,0 l/m 10,5 km/h (2 Bft) N-NO 22 13,7 C 24,2 C 18,2 km/h (3 Bft)
17.06.2019 19:06 22,4 C 24,2 C 23,9 C 63 % 53 % 1023,1 hPa 0,0 l/m 9,5 km/h (2 Bft) O-SO 112 14,0 C 24,2 C 18,2 km/h (3 Bft)
17.06.2019 19:05 22,4 C 24,2 C 23,9 C 63 % 53 % 1023,1 hPa 0,0 l/m 9,5 km/h (2 Bft) O-SO 112 14,0 C 24,2 C 18,2 km/h (3 Bft)
17.06.2019 19:04 22,4 C 24,2 C 23,9 C 63 % 53 % 1023,1 hPa 0,0 l/m 9,3 km/h (2 Bft) O-SO 112 14,0 C 24,2 C 13,8 km/h (3 Bft)
17.06.2019 19:03 22,4 C 24,2 C 23,9 C 63 % 53 % 1023,1 hPa 0,0 l/m 9,3 km/h (2 Bft) O-SO 112 14,0 C 24,2 C 13,8 km/h (3 Bft)
17.06.2019 19:02 22,4 C 24,2 C 23,9 C 63 % 53 % 1023,1 hPa 0,0 l/m 9,3 km/h (2 Bft) W 270 14,0 C 24,2 C 12,1 km/h (2 Bft)
17.06.2019 19:01 22,4 C 24,2 C 23,9 C 63 % 53 % 1023,1 hPa 0,0 l/m 9,3 km/h (2 Bft) W 270 14,0 C 24,2 C 12,1 km/h (2 Bft)
17.06.2019 19:00 22,4 C 24,2 C 24,1 C 63 % 53 % 1023,1 hPa 0,0 l/m 9,8 km/h (2 Bft) O 90 14,0 C 24,2 C 18,4 km/h (3 Bft)
17.06.2019 18:59 22,4 C 24,2 C 24,1 C 63 % 53 % 1023,1 hPa 0,0 l/m 9,8 km/h (2 Bft) O 90 14,0 C 24,2 C 18,4 km/h (3 Bft)
17.06.2019 18:58 22,4 C 24,2 C 24,1 C 63 % 53 % 1023,1 hPa 0,0 l/m 10,0 km/h (2 Bft) S-SO 157 14,0 C 24,2 C 16,3 km/h (3 Bft)
17.06.2019 18:57 22,4 C 24,2 C 24,1 C 63 % 53 % 1023,1 hPa 0,0 l/m 10,0 km/h (2 Bft) S-SO 157 14,0 C 24,2 C 16,3 km/h (3 Bft)
17.06.2019 18:56 22,4 C 24,2 C 24,1 C 63 % 53 % 1023,1 hPa 0,0 l/m 10,1 km/h (2 Bft) SO 135 14,0 C 24,2 C 12,6 km/h (3 Bft)
17.06.2019 18:55 22,4 C 24,2 C 24,1 C 63 % 53 % 1023,1 hPa 0,0 l/m 10,1 km/h (2 Bft) SO 135 14,0 C 24,2 C 12,6 km/h (3 Bft)
17.06.2019 18:54 22,4 C 24,2 C 24,2 C 63 % 53 % 1023,1 hPa 0,0 l/m 10,6 km/h (2 Bft) O 90 14,0 C 24,2 C 15,9 km/h (3 Bft)
17.06.2019 18:53 22,4 C 24,2 C 24,2 C 63 % 53 % 1023,1 hPa 0,0 l/m 10,6 km/h (2 Bft) O 90 14,0 C 24,2 C 15,9 km/h (3 Bft)
17.06.2019 18:52 22,4 C 24,2 C 24,1 C 63 % 52 % 1023,1 hPa 0,0 l/m 11,3 km/h (2 Bft) O 90 13,7 C 24,2 C 12,6 km/h (3 Bft)
17.06.2019 18:51 22,4 C 24,2 C 24,1 C 63 % 52 % 1023,1 hPa 0,0 l/m 11,3 km/h (2 Bft) O 90 13,7 C 24,2 C 12,6 km/h (3 Bft)
17.06.2019 18:50 22,4 C 24,2 C 24,1 C 63 % 52 % 1023,1 hPa 0,0 l/m 11,6 km/h (2 Bft) SO 135 13,7 C 24,2 C 12,1 km/h (2 Bft)
17.06.2019 18:49 22,4 C 24,2 C 24,1 C 63 % 52 % 1023,1 hPa 0,0 l/m 11,6 km/h (2 Bft) SO 135 13,7 C 24,2 C 12,1 km/h (2 Bft)
17.06.2019 18:48 22,4 C 24,3 C 24,3 C 63 % 52 % 1023,1 hPa 0,0 l/m 11,1 km/h (2 Bft) SO 135 13,8 C 24,3 C 19,5 km/h (3 Bft)
17.06.2019 18:47 22,4 C 24,3 C 24,3 C 63 % 52 % 1023,1 hPa 0,0 l/m 11,1 km/h (2 Bft) SO 135 13,8 C 24,3 C 19,5 km/h (3 Bft)
17.06.2019 18:46 22,4 C 24,4 C 24,5 C 63 % 52 % 1023,1 hPa 0,0 l/m 11,3 km/h (2 Bft) O-SO 112 13,9 C 24,4 C 10,9 km/h (2 Bft)
17.06.2019 18:45 22,4 C 24,4 C 24,5 C 63 % 52 % 1023,1 hPa 0,0 l/m 11,3 km/h (2 Bft) O-SO 112 13,9 C 24,4 C 10,9 km/h (2 Bft)
17.06.2019 18:44 22,4 C 24,3 C 24,4 C 63 % 52 % 1023,1 hPa 0,0 l/m 11,1 km/h (2 Bft) O 90 13,8 C 24,3 C 23,6 km/h (4 Bft)
17.06.2019 18:43 22,4 C 24,3 C 24,4 C 63 % 52 % 1023,1 hPa 0,0 l/m 11,1 km/h (2 Bft) O 90 13,8 C 24,3 C 23,6 km/h (4 Bft)
17.06.2019 18:42 22,4 C 24,4 C 24,6 C 63 % 52 % 1023,1 hPa 0,0 l/m 10,8 km/h (2 Bft) O 90 13,9 C 24,4 C 18,0 km/h (3 Bft)
17.06.2019 18:41 22,4 C 24,4 C 24,6 C 63 % 52 % 1023,1 hPa 0,0 l/m 10,8 km/h (2 Bft) O 90 13,9 C 24,4 C 18,0 km/h (3 Bft)
17.06.2019 18:40 22,4 C 24,6 C 24,9 C 63 % 53 % 1023,1 hPa 0,0 l/m 10,6 km/h (2 Bft) SW 225 14,4 C 24,6 C 19,7 km/h (3 Bft)
17.06.2019 18:39 22,4 C 24,6 C 24,9 C 63 % 53 % 1023,1 hPa 0,0 l/m 10,6 km/h (2 Bft) SW 225 14,4 C 24,6 C 19,7 km/h (3 Bft)
17.06.2019 18:38 22,4 C 24,7 C 24,9 C 63 % 52 % 1023,1 hPa 0,0 l/m 11,3 km/h (2 Bft) S-SO 157 14,2 C 24,7 C 13,6 km/h (3 Bft)
17.06.2019 18:37 22,4 C 24,7 C 24,9 C 63 % 52 % 1023,1 hPa 0,0 l/m 11,3 km/h (2 Bft) S-SO 157 14,2 C 24,7 C 13,6 km/h (3 Bft)
17.06.2019 18:36 22,4 C 24,7 C 24,9 C 63 % 52 % 1023,1 hPa 0,0 l/m 11,7 km/h (2 Bft) O-SO 112 14,2 C 24,7 C 24,7 km/h (4 Bft)
17.06.2019 18:35 22,4 C 24,7 C 24,9 C 63 % 52 % 1023,1 hPa 0,0 l/m 11,7 km/h (2 Bft) O-SO 112 14,2 C 24,7 C 24,7 km/h (4 Bft)
17.06.2019 18:34 22,4 C 24,5 C 24,8 C 63 % 52 % 1023,1 hPa 0,0 l/m 12,1 km/h (2 Bft) O-NO 67 14,0 C 24,5 C 12,8 km/h (3 Bft)
17.06.2019 18:33 22,4 C 24,5 C 24,8 C 63 % 52 % 1023,1 hPa 0,0 l/m 12,1 km/h (2 Bft) O-NO 67 14,0 C 24,5 C 12,8 km/h (3 Bft)
17.06.2019 18:32 22,4 C 24,4 C 24,7 C 63 % 52 % 1023,1 hPa 0,0 l/m 12,6 km/h (3 Bft) O-SO 112 13,9 C 24,4 C 16,9 km/h (3 Bft)
17.06.2019 18:31 22,4 C 24,4 C 24,7 C 63 % 52 % 1023,1 hPa 0,0 l/m 12,6 km/h (3 Bft) O-SO 112 13,9 C 24,4 C 16,9 km/h (3 Bft)
17.06.2019 18:30 22,4 C 24,5 C 24,9 C 63 % 52 % 1023,1 hPa 0,0 l/m 11,9 km/h (2 Bft) O-SO 112 14,0 C 24,5 C 15,3 km/h (3 Bft)
17.06.2019 18:29 22,4 C 24,5 C 24,9 C 63 % 52 % 1023,1 hPa 0,0 l/m 11,9 km/h (2 Bft) O-SO 112 14,0 C 24,5 C 15,3 km/h (3 Bft)
17.06.2019 18:28 22,4 C 24,7 C 25,1 C 63 % 52 % 1023,1 hPa 0,0 l/m 11,3 km/h (2 Bft) O 90 14,2 C 24,7 C 22,4 km/h (4 Bft)
17.06.2019 18:27 22,4 C 24,7 C 25,1 C 63 % 52 % 1023,1 hPa 0,0 l/m 11,3 km/h (2 Bft) O 90 14,2 C 24,7 C 22,4 km/h (4 Bft)
17.06.2019 18:26 22,4 C 24,8 C 25,4 C 63 % 52 % 1023,1 hPa 0,0 l/m 10,5 km/h (2 Bft) O-SO 112 14,3 C 24,8 C 22,0 km/h (4 Bft)
17.06.2019 18:25 22,4 C 24,8 C 25,4 C 63 % 52 % 1023,1 hPa 0,0 l/m 10,5 km/h (2 Bft) O-SO 112 14,3 C 24,8 C 22,0 km/h (4 Bft)
17.06.2019 18:24 22,4 C 24,8 C 25,4 C 63 % 52 % 1023,1 hPa 0,0 l/m 10,0 km/h (2 Bft) SO 135 14,3 C 24,8 C 21,8 km/h (4 Bft)
17.06.2019 18:23 22,4 C 24,8 C 25,4 C 63 % 52 % 1023,1 hPa 0,0 l/m 10,0 km/h (2 Bft) SO 135 14,3 C 24,8 C 21,8 km/h (4 Bft)
17.06.2019 18:22 22,4 C 25,0 C 25,7 C 63 % 52 % 1023,1 hPa 0,0 l/m 8,5 km/h (2 Bft) O-SO 112 14,4 C 25,0 C 16,5 km/h (3 Bft)
17.06.2019 18:21 22,4 C 25,0 C 25,7 C 63 % 52 % 1023,1 hPa 0,0 l/m 8,5 km/h (2 Bft) O-SO 112 14,4 C 25,0 C 16,5 km/h (3 Bft)
17.06.2019 18:20 22,4 C 25,2 C 26,1 C 63 % 52 % 1023,1 hPa 0,0 l/m 8,0 km/h (2 Bft) O 90 14,6 C 25,2 C 11,7 km/h (2 Bft)
17.06.2019 18:19 22,4 C 25,2 C 26,1 C 63 % 52 % 1023,1 hPa 0,0 l/m 8,0 km/h (2 Bft) O 90 14,6 C 25,2 C 11,7 km/h (2 Bft)
17.06.2019 18:18 22,4 C 25,3 C 26,2 C 63 % 52 % 1023,1 hPa 0,0 l/m 8,7 km/h (2 Bft) O-SO 112 14,7 C 25,3 C 11,3 km/h (2 Bft)
17.06.2019 18:17 22,4 C 25,3 C 26,2 C 63 % 52 % 1023,1 hPa 0,0 l/m 8,7 km/h (2 Bft) O-SO 112 14,7 C 25,3 C 11,3 km/h (2 Bft)
17.06.2019 18:16 22,4 C 25,6 C 26,5 C 63 % 51 % 1023,1 hPa 0,0 l/m 9,3 km/h (2 Bft) O-SO 112 14,7 C 25,6 C 13,8 km/h (3 Bft)
17.06.2019 18:15 22,4 C 25,6 C 26,5 C 63 % 51 % 1023,1 hPa 0,0 l/m 9,3 km/h (2 Bft) O-SO 112 14,7 C 25,6 C 13,8 km/h (3 Bft)
17.06.2019 18:14 22,4 C 25,7 C 26,5 C 63 % 52 % 1023,1 hPa 0,0 l/m 9,0 km/h (2 Bft) O-NO 67 15,1 C 25,7 C 9,6 km/h (2 Bft)
17.06.2019 18:13 22,4 C 25,7 C 26,5 C 63 % 52 % 1023,1 hPa 0,0 l/m 9,0 km/h (2 Bft) O-NO 67 15,1 C 25,7 C 9,6 km/h (2 Bft)
17.06.2019 18:12 22,4 C 25,6 C 26,6 C 63 % 52 % 1023,1 hPa 0,0 l/m 9,0 km/h (2 Bft) O 90 15,0 C 25,6 C 12,3 km/h (3 Bft)
17.06.2019 18:11 22,4 C 25,6 C 26,6 C 63 % 52 % 1023,1 hPa 0,0 l/m 9,0 km/h (2 Bft) O 90 15,0 C 25,6 C 12,3 km/h (3 Bft)
17.06.2019 18:10 22,4 C 25,4 C 26,4 C 63 % 52 % 1023,1 hPa 0,0 l/m 9,5 km/h (2 Bft) O-SO 112 14,8 C 25,4 C 12,1 km/h (2 Bft)
17.06.2019 18:09 22,4 C 25,4 C 26,4 C 63 % 52 % 1023,1 hPa 0,0 l/m 9,5 km/h (2 Bft) O-SO 112 14,8 C 25,4 C 12,1 km/h (2 Bft)
17.06.2019 18:08 22,4 C 25,4 C 26,4 C 63 % 51 % 1023,1 hPa 0,0 l/m 9,3 km/h (2 Bft) O-SO 112 14,5 C 25,4 C 22,6 km/h (4 Bft)
17.06.2019 18:07 22,4 C 25,4 C 26,4 C 63 % 51 % 1023,1 hPa 0,0 l/m 9,3 km/h (2 Bft) O-SO 112 14,5 C 25,4 C 22,6 km/h (4 Bft)
17.06.2019 18:06 22,4 C 25,3 C 26,5 C 63 % 53 % 1023,1 hPa 0,0 l/m 8,5 km/h (2 Bft) O 90 15,0 C 25,3 C 12,6 km/h (3 Bft)
17.06.2019 18:05 22,4 C 25,3 C 26,5 C 63 % 53 % 1023,1 hPa 0,0 l/m 8,5 km/h (2 Bft) O 90 15,0 C 25,3 C 12,6 km/h (3 Bft)
17.06.2019 18:04 22,4 C 25,0 C 26,2 C 63 % 53 % 1023,1 hPa 0,0 l/m 8,9 km/h (2 Bft) O-SO 112 14,7 C 25,0 C 9,2 km/h (2 Bft)
17.06.2019 18:03 22,4 C 25,0 C 26,2 C 63 % 53 % 1023,1 hPa 0,0 l/m 8,9 km/h (2 Bft) O-SO 112 14,7 C 25,0 C 9,2 km/h (2 Bft)
17.06.2019 18:02 22,2 C 24,7 C 26,1 C 63 % 52 % 1023,1 hPa 0,0 l/m 9,2 km/h (2 Bft) SO 135 14,2 C 24,7 C 9,0 km/h (2 Bft)
17.06.2019 18:01 22,2 C 24,7 C 26,1 C 63 % 52 % 1023,1 hPa 0,0 l/m 9,2 km/h (2 Bft) SO 135 14,2 C 24,7 C 9,0 km/h (2 Bft)
17.06.2019 18:00 22,2 C 24,8 C 26,2 C 63 % 52 % 1023,1 hPa 0,0 l/m 9,8 km/h (2 Bft) O 90 14,3 C 24,8 C 18,8 km/h (3 Bft)
17.06.2019 17:59 22,2 C 24,8 C 26,2 C 63 % 52 % 1023,1 hPa 0,0 l/m 9,8 km/h (2 Bft) O 90 14,3 C 24,8 C 18,8 km/h (3 Bft)
17.06.2019 17:58 22,3 C 25,1 C 26,3 C 63 % 52 % 1023,1 hPa 0,0 l/m 10,0 km/h (2 Bft) SO 135 14,5 C 25,1 C 15,9 km/h (3 Bft)
17.06.2019 17:57 22,3 C 25,1 C 26,3 C 63 % 52 % 1023,1 hPa 0,0 l/m 10,0 km/h (2 Bft) SO 135 14,5 C 25,1 C 15,9 km/h (3 Bft)
17.06.2019 17:56 22,2 C 25,2 C 26,6 C 63 % 52 % 1023,1 hPa 0,0 l/m 10,1 km/h (2 Bft) O 90 14,6 C 25,2 C 13,8 km/h (3 Bft)
17.06.2019 17:55 22,2 C 25,2 C 26,6 C 63 % 52 % 1023,1 hPa 0,0 l/m 10,1 km/h (2 Bft) O 90 14,6 C 25,2 C 13,8 km/h (3 Bft)
17.06.2019 17:54 22,2 C 25,6 C 26,8 C 63 % 51 % 1023,1 hPa 0,0 l/m 10,1 km/h (2 Bft) O-SO 112 14,7 C 25,6 C 24,3 km/h (4 Bft)
17.06.2019 17:53 22,2 C 25,6 C 26,8 C 63 % 51 % 1023,1 hPa 0,0 l/m 10,1 km/h (2 Bft) O-SO 112 14,7 C 25,6 C 24,3 km/h (4 Bft)
17.06.2019 17:52 22,2 C 25,6 C 27,2 C 63 % 52 % 1023,1 hPa 0,0 l/m 9,7 km/h (2 Bft) O-SO 112 15,0 C 25,6 C 13,8 km/h (3 Bft)
17.06.2019 17:51 22,2 C 25,6 C 27,2 C 63 % 52 % 1023,1 hPa 0,0 l/m 9,7 km/h (2 Bft) O-SO 112 15,0 C 25,6 C 13,8 km/h (3 Bft)
17.06.2019 17:50 22,2 C 25,8 C 27,7 C 63 % 51 % 1023,1 hPa 0,0 l/m 9,2 km/h (2 Bft) O-SO 112 14,9 C 25,8 C 16,3 km/h (3 Bft)
17.06.2019 17:49 22,2 C 25,8 C 27,7 C 63 % 51 % 1023,1 hPa 0,0 l/m 9,2 km/h (2 Bft) O-SO 112 14,9 C 25,8 C 16,3 km/h (3 Bft)
17.06.2019 17:48 22,2 C 25,8 C 28,3 C 63 % 51 % 1023,1 hPa 0,0 l/m 8,2 km/h (2 Bft) SO 135 14,9 C 25,8 C 18,8 km/h (3 Bft)
17.06.2019 17:47 22,2 C 25,8 C 28,3 C 63 % 51 % 1023,1 hPa 0,0 l/m 8,2 km/h (2 Bft) SO 135 14,9 C 25,8 C 18,8 km/h (3 Bft)
17.06.2019 17:46 22,2 C 25,8 C 28,5 C 63 % 51 % 1023,1 hPa 0,0 l/m 7,9 km/h (2 Bft) O-NO 67 14,9 C 25,8 C 17,2 km/h (3 Bft)
17.06.2019 17:45 22,2 C 25,8 C 28,5 C 63 % 51 % 1023,1 hPa 0,0 l/m 7,9 km/h (2 Bft) O-NO 67 14,9 C 25,8 C 17,2 km/h (3 Bft)
17.06.2019 17:44 22,3 C 25,8 C 28,8 C 63 % 51 % 1023,1 hPa 0,0 l/m 7,6 km/h (2 Bft) O-SO 112 14,9 C 25,8 C 14,9 km/h (3 Bft)
17.06.2019 17:43 22,3 C 25,8 C 28,8 C 63 % 51 % 1023,1 hPa 0,0 l/m 7,6 km/h (2 Bft) O-SO 112 14,9 C 25,8 C 14,9 km/h (3 Bft)
17.06.2019 17:42 22,3 C 26,0 C 29,0 C 63 % 51 % 1023,1 hPa 0,0 l/m 7,2 km/h (2 Bft) O-SO 112 15,1 C 26,0 C 14,9 km/h (3 Bft)
17.06.2019 17:41 22,3 C 26,0 C 29,0 C 63 % 51 % 1023,1 hPa 0,0 l/m 7,2 km/h (2 Bft) O-SO 112 15,1 C 26,0 C 14,9 km/h (3 Bft)
17.06.2019 17:40 22,3 C 25,8 C 28,8 C 63 % 53 % 1023,1 hPa 0,0 l/m 8,0 km/h (2 Bft) O-SO 112 15,5 C 25,8 C 10,7 km/h (2 Bft)
17.06.2019 17:39 22,3 C 25,8 C 28,8 C 63 % 53 % 1023,1 hPa 0,0 l/m 8,0 km/h (2 Bft) O-SO 112 15,5 C 25,8 C 10,7 km/h (2 Bft)
17.06.2019 17:38 22,3 C 25,6 C 28,1 C 63 % 52 % 1023,1 hPa 0,0 l/m 8,7 km/h (2 Bft) O-NO 67 15,0 C 25,6 C 12,1 km/h (2 Bft)
17.06.2019 17:37 22,3 C 25,6 C 28,1 C 63 % 52 % 1023,1 hPa 0,0 l/m 8,7 km/h (2 Bft) O-NO 67 15,0 C 25,6 C 12,1 km/h (2 Bft)
17.06.2019 17:36 22,3 C 25,3 C 27,6 C 63 % 52 % 1023,1 hPa 0,0 l/m 9,0 km/h (2 Bft) SO 135 14,7 C 25,3 C 11,5 km/h (2 Bft)
17.06.2019 17:35 22,3 C 25,3 C 27,6 C 63 % 52 % 1023,1 hPa 0,0 l/m 9,0 km/h (2 Bft) SO 135 14,7 C 25,3 C 11,5 km/h (2 Bft)
17.06.2019 17:34 22,2 C 25,5 C 27,1 C 63 % 51 % 1023,3 hPa 0,0 l/m 9,5 km/h (2 Bft) S-SO 157 14,6 C 25,5 C 15,9 km/h (3 Bft)
17.06.2019 17:33 22,2 C 25,5 C 27,1 C 63 % 51 % 1023,3 hPa 0,0 l/m 9,5 km/h (2 Bft) S-SO 157 14,6 C 25,5 C 15,9 km/h (3 Bft)
17.06.2019 17:32 22,2 C 25,4 C 26,9 C 63 % 52 % 1023,3 hPa 0,0 l/m 9,8 km/h (2 Bft) O 90 14,8 C 25,4 C 10,7 km/h (2 Bft)
17.06.2019 17:31 22,2 C 25,4 C 26,9 C 63 % 52 % 1023,3 hPa 0,0 l/m 9,8 km/h (2 Bft) O 90 14,8 C 25,4 C 10,7 km/h (2 Bft)
17.06.2019 17:30 22,3 C 25,4 C 26,8 C 63 % 52 % 1023,3 hPa 0,0 l/m 10,3 km/h (2 Bft) O 90 14,8 C 25,4 C 19,9 km/h (4 Bft)
17.06.2019 17:29 22,3 C 25,4 C 26,8 C 63 % 52 % 1023,3 hPa 0,0 l/m 10,3 km/h (2 Bft) O 90 14,8 C 25,4 C 19,9 km/h (4 Bft)
17.06.2019 17:28 22,3 C 25,4 C 26,8 C 63 % 52 % 1023,3 hPa 0,0 l/m 10,3 km/h (2 Bft) O-SO 112 14,8 C 25,4 C 22,4 km/h (4 Bft)
17.06.2019 17:27 22,3 C 25,4 C 26,8 C 63 % 52 % 1023,3 hPa 0,0 l/m 10,3 km/h (2 Bft) O-SO 112 14,8 C 25,4 C 22,4 km/h (4 Bft)
17.06.2019 17:26 22,2 C 25,5 C 27,2 C 63 % 51 % 1023,3 hPa 0,0 l/m 9,5 km/h (2 Bft) N-NO 22 14,6 C 25,5 C 10,3 km/h (2 Bft)
17.06.2019 17:25 22,2 C 25,5 C 27,2 C 63 % 51 % 1023,3 hPa 0,0 l/m 9,5 km/h (2 Bft) N-NO 22 14,6 C 25,5 C 10,3 km/h (2 Bft)
17.06.2019 17:24 22,2 C 25,6 C 27,7 C 63 % 51 % 1023,3 hPa 0,0 l/m 9,8 km/h (2 Bft) O-SO 112 14,7 C 25,6 C 18,2 km/h (3 Bft)
17.06.2019 17:23 22,2 C 25,6 C 27,7 C 63 % 51 % 1023,3 hPa 0,0 l/m 9,8 km/h (2 Bft) O-SO 112 14,7 C 25,6 C 18,2 km/h (3 Bft)
17.06.2019 17:22 22,3 C 25,6 C 28,3 C 63 % 51 % 1023,3 hPa 0,0 l/m 9,5 km/h (2 Bft) O-SO 112 14,7 C 25,6 C 14,6 km/h (3 Bft)
17.06.2019 17:21 22,3 C 25,6 C 28,3 C 63 % 51 % 1023,3 hPa 0,0 l/m 9,5 km/h (2 Bft) O-SO 112 14,7 C 25,6 C 14,6 km/h (3 Bft)
17.06.2019 17:20 22,2 C 25,7 C 29,2 C 63 % 51 % 1023,3 hPa 0,0 l/m 9,2 km/h (2 Bft) O-SO 112 14,8 C 25,7 C 14,0 km/h (3 Bft)
17.06.2019 17:19 22,2 C 25,7 C 29,2 C 63 % 51 % 1023,3 hPa 0,0 l/m 9,2 km/h (2 Bft) O-SO 112 14,8 C 25,7 C 14,0 km/h (3 Bft)
17.06.2019 17:18 22,2 C 25,7 C 29,2 C 63 % 52 % 1023,3 hPa 0,0 l/m 9,2 km/h (2 Bft) O 90 15,1 C 25,7 C 15,1 km/h (3 Bft)
17.06.2019 17:17 22,2 C 25,7 C 29,2 C 63 % 52 % 1023,3 hPa 0,0 l/m 9,2 km/h (2 Bft) O 90 15,1 C 25,7 C 15,1 km/h (3 Bft)
17.06.2019 17:16 22,2 C 25,6 C 29,1 C 63 % 51 % 1023,3 hPa 0,0 l/m 9,3 km/h (2 Bft) O 90 14,7 C 25,6 C 11,5 km/h (2 Bft)
17.06.2019 17:15 22,2 C 25,6 C 29,1 C 63 % 51 % 1023,3 hPa 0,0 l/m 9,3 km/h (2 Bft) O 90 14,7 C 25,6 C 11,5 km/h (2 Bft)
17.06.2019 17:14 22,2 C 25,7 C 28,8 C 63 % 52 % 1023,4 hPa 0,0 l/m 10,8 km/h (2 Bft) O 90 15,1 C 25,7 C 15,7 km/h (3 Bft)
17.06.2019 17:13 22,2 C 25,7 C 28,8 C 63 % 52 % 1023,4 hPa 0,0 l/m 10,8 km/h (2 Bft) O 90 15,1 C 25,7 C 15,7 km/h (3 Bft)
17.06.2019 17:12 22,2 C 25,5 C 28,6 C 63 % 52 % 1023,4 hPa 0,0 l/m 11,3 km/h (2 Bft) S-SO 157 14,9 C 25,5 C 8,8 km/h (2 Bft)
17.06.2019 17:11 22,2 C 25,5 C 28,6 C 63 % 52 % 1023,4 hPa 0,0 l/m 11,3 km/h (2 Bft) S-SO 157 14,9 C 25,5 C 8,8 km/h (2 Bft)
17.06.2019 17:10 22,2 C 25,4 C 28,1 C 63 % 52 % 1023,4 hPa 0,0 l/m 11,1 km/h (2 Bft) O-SO 112 14,8 C 25,4 C 15,7 km/h (3 Bft)
17.06.2019 17:09 22,2 C 25,4 C 28,1 C 63 % 52 % 1023,4 hPa 0,0 l/m 11,1 km/h (2 Bft) O-SO 112 14,8 C 25,4 C 15,7 km/h (3 Bft)
17.06.2019 17:08 22,2 C 25,3 C 27,7 C 63 % 52 % 1023,4 hPa 0,0 l/m 11,6 km/h (2 Bft) O-SO 112 14,7 C 25,3 C 13,2 km/h (3 Bft)
17.06.2019 17:07 22,2 C 25,3 C 27,7 C 63 % 52 % 1023,4 hPa 0,0 l/m 11,6 km/h (2 Bft) O-SO 112 14,7 C 25,3 C 13,2 km/h (3 Bft)
17.06.2019 17:06 22,2 C 24,8 C 27,3 C 63 % 52 % 1023,4 hPa 0,0 l/m 11,4 km/h (2 Bft) O-SO 112 14,3 C 24,8 C 26,6 km/h (4 Bft)
17.06.2019 17:05 22,2 C 24,8 C 27,3 C 63 % 52 % 1023,4 hPa 0,0 l/m 11,4 km/h (2 Bft) O-SO 112 14,3 C 24,8 C 26,6 km/h (4 Bft)
17.06.2019 17:04 22,2 C 25,2 C 28,0 C 63 % 51 % 1023,4 hPa 0,0 l/m 10,3 km/h (2 Bft) O-SO 112 14,3 C 25,2 C 20,5 km/h (4 Bft)
17.06.2019 17:03 22,2 C 25,2 C 28,0 C 63 % 51 % 1023,4 hPa 0,0 l/m 10,3 km/h (2 Bft) O-SO 112 14,3 C 25,2 C 20,5 km/h (4 Bft)
17.06.2019 17:02 22,2 C 25,7 C 29,4 C 63 % 52 % 1023,4 hPa 0,0 l/m 9,0 km/h (2 Bft) O 90 15,1 C 25,7 C 17,2 km/h (3 Bft)
17.06.2019 17:01 22,2 C 25,7 C 29,4 C 63 % 52 % 1023,4 hPa 0,0 l/m 9,0 km/h (2 Bft) O 90 15,1 C 25,7 C 17,2 km/h (3 Bft)
17.06.2019 17:00 22,2 C 25,6 C 29,6 C 63 % 51 % 1023,4 hPa 0,0 l/m 8,9 km/h (2 Bft) O-NO 67 14,7 C 25,6 C 10,5 km/h (2 Bft)
17.06.2019 16:59 22,2 C 25,6 C 29,6 C 63 % 51 % 1023,4 hPa 0,0 l/m 8,9 km/h (2 Bft) O-NO 67 14,7 C 25,6 C 10,5 km/h (2 Bft)
17.06.2019 16:58 22,2 C 25,9 C 29,7 C 63 % 52 % 1023,4 hPa 0,0 l/m 9,5 km/h (2 Bft) O-SO 112 15,3 C 25,9 C 16,9 km/h (3 Bft)
17.06.2019 16:57 22,2 C 25,9 C 29,7 C 63 % 52 % 1023,4 hPa 0,0 l/m 9,5 km/h (2 Bft) O-SO 112 15,3 C 25,9 C 16,9 km/h (3 Bft)
17.06.2019 16:56 22,2 C 26,0 C 30,2 C 64 % 51 % 1023,4 hPa 0,0 l/m 9,5 km/h (2 Bft) O-SO 112 15,1 C 26,0 C 16,3 km/h (3 Bft)
17.06.2019 16:55 22,2 C 26,0 C 30,2 C 64 % 51 % 1023,4 hPa 0,0 l/m 9,5 km/h (2 Bft) O-SO 112 15,1 C 26,0 C 16,3 km/h (3 Bft)
17.06.2019 16:54 22,2 C 25,6 C 30,2 C 63 % 52 % 1023,8 hPa 0,0 l/m 10,0 km/h (2 Bft) O-SO 112 15,0 C 25,6 C 12,1 km/h (2 Bft)
17.06.2019 16:53 22,2 C 25,6 C 30,2 C 63 % 52 % 1023,8 hPa 0,0 l/m 10,0 km/h (2 Bft) O-SO 112 15,0 C 25,6 C 12,1 km/h (2 Bft)
17.06.2019 16:52 22,2 C 25,8 C 30,3 C 63 % 50 % 1023,8 hPa 0,0 l/m 10,5 km/h (2 Bft) O 90 14,6 C 25,8 C 13,4 km/h (3 Bft)
17.06.2019 16:51 22,2 C 25,8 C 30,3 C 63 % 50 % 1023,8 hPa 0,0 l/m 10,5 km/h (2 Bft) O 90 14,6 C 25,8 C 13,4 km/h (3 Bft)
17.06.2019 16:50 22,1 C 25,7 C 30,6 C 63 % 51 % 1023,8 hPa 0,0 l/m 10,8 km/h (2 Bft) SO 135 14,8 C 25,7 C 15,9 km/h (3 Bft)
17.06.2019 16:49 22,1 C 25,7 C 30,6 C 63 % 51 % 1023,8 hPa 0,0 l/m 10,8 km/h (2 Bft) SO 135 14,8 C 25,7 C 15,9 km/h (3 Bft)
17.06.2019 16:48 22,2 C 25,5 C 30,4 C 63 % 51 % 1023,8 hPa 0,0 l/m 10,5 km/h (2 Bft) O-SO 112 14,6 C 25,5 C 13,8 km/h (3 Bft)
17.06.2019 16:47 22,2 C 25,5 C 30,4 C 63 % 51 % 1023,8 hPa 0,0 l/m 10,5 km/h (2 Bft) O-SO 112 14,6 C 25,5 C 13,8 km/h (3 Bft)
17.06.2019 16:46 22,2 C 26,0 C 31,2 C 64 % 49 % 1023,8 hPa 0,0 l/m 10,0 km/h (2 Bft) O-SO 112 14,4 C 26,0 C 13,6 km/h (3 Bft)
17.06.2019 16:45 22,2 C 26,0 C 31,2 C 64 % 49 % 1023,8 hPa 0,0 l/m 10,0 km/h (2 Bft) O-SO 112 14,4 C 26,0 C 13,6 km/h (3 Bft)
17.06.2019 16:44 22,2 C 26,0 C 31,4 C 64 % 49 % 1023,8 hPa 0,0 l/m 9,3 km/h (2 Bft) O 90 14,4 C 26,0 C 12,8 km/h (3 Bft)
17.06.2019 16:43 22,2 C 26,0 C 31,4 C 64 % 49 % 1023,8 hPa 0,0 l/m 9,3 km/h (2 Bft) O 90 14,4 C 26,0 C 12,8 km/h (3 Bft)
17.06.2019 16:42 22,1 C 26,0 C 32,3 C 63 % 49 % 1023,8 hPa 0,0 l/m 9,7 km/h (2 Bft) O 90 14,4 C 26,0 C 19,7 km/h (3 Bft)
17.06.2019 16:41 22,1 C 26,0 C 32,3 C 63 % 49 % 1023,8 hPa 0,0 l/m 9,7 km/h (2 Bft) O 90 14,4 C 26,0 C 19,7 km/h (3 Bft)
17.06.2019 16:40 22,1 C 25,8 C 31,5 C 64 % 51 % 1023,8 hPa 0,0 l/m 9,3 km/h (2 Bft) O-SO 112 14,9 C 25,8 C 18,4 km/h (3 Bft)
17.06.2019 16:39 22,1 C 25,8 C 31,5 C 64 % 51 % 1023,8 hPa 0,0 l/m 9,3 km/h (2 Bft) O-SO 112 14,9 C 25,8 C 18,4 km/h (3 Bft)
17.06.2019 16:38 22,1 C 25,8 C 30,4 C 63 % 50 % 1023,8 hPa 0,0 l/m 9,5 km/h (2 Bft) N-NO 22 14,6 C 25,8 C 6,9 km/h (2 Bft)
17.06.2019 16:37 22,1 C 25,8 C 30,4 C 63 % 50 % 1023,8 hPa 0,0 l/m 9,5 km/h (2 Bft) N-NO 22 14,6 C 25,8 C 6,9 km/h (2 Bft)
17.06.2019 16:36 22,1 C 25,8 C 30,3 C 63 % 52 % 1023,8 hPa 0,0 l/m 9,5 km/h (2 Bft) O-NO 67 15,2 C 25,8 C 16,3 km/h (3 Bft)
17.06.2019 16:35 22,1 C 25,8 C 30,3 C 63 % 52 % 1023,8 hPa 0,0 l/m 9,5 km/h (2 Bft) O-NO 67 15,2 C 25,8 C 16,3 km/h (3 Bft)
17.06.2019 16:34 22,1 C 25,6 C 29,6 C 63 % 52 % 1023,7 hPa 0,0 l/m 9,7 km/h (2 Bft) O-SO 112 15,0 C 25,6 C 17,6 km/h (3 Bft)
17.06.2019 16:33 22,1 C 25,6 C 29,6 C 63 % 52 % 1023,7 hPa 0,0 l/m 9,7 km/h (2 Bft) O-SO 112 15,0 C 25,6 C 17,6 km/h (3 Bft)
17.06.2019 16:32 22,1 C 25,5 C 28,6 C 63 % 52 % 1023,7 hPa 0,0 l/m 9,7 km/h (2 Bft) O-SO 112 14,9 C 25,5 C 17,8 km/h (3 Bft)
17.06.2019 16:31 22,1 C 25,5 C 28,6 C 63 % 52 % 1023,7 hPa 0,0 l/m 9,7 km/h (2 Bft) O-SO 112 14,9 C 25,5 C 17,8 km/h (3 Bft)
17.06.2019 16:30 22,1 C 25,3 C 28,6 C 63 % 51 % 1023,7 hPa 0,0 l/m 10,1 km/h (2 Bft) O 90 14,4 C 25,3 C 11,5 km/h (2 Bft)
17.06.2019 16:29 22,1 C 25,3 C 28,6 C 63 % 51 % 1023,7 hPa 0,0 l/m 10,1 km/h (2 Bft) O 90 14,4 C 25,3 C 11,5 km/h (2 Bft)
17.06.2019 16:28 22,1 C 25,4 C 28,3 C 64 % 51 % 1023,7 hPa 0,0 l/m 10,0 km/h (2 Bft) O 90 14,5 C 25,4 C 25,9 km/h (4 Bft)
17.06.2019 16:27 22,1 C 25,4 C 28,3 C 64 % 51 % 1023,7 hPa 0,0 l/m 10,0 km/h (2 Bft) O 90 14,5 C 25,4 C 25,9 km/h (4 Bft)
17.06.2019 16:26 22,1 C 25,5 C 28,9 C 63 % 50 % 1023,7 hPa 0,0 l/m 9,7 km/h (2 Bft) N-NO 22 14,3 C 25,5 C 6,3 km/h (2 Bft)
17.06.2019 16:25 22,1 C 25,5 C 28,9 C 63 % 50 % 1023,7 hPa 0,0 l/m 9,7 km/h (2 Bft) N-NO 22 14,3 C 25,5 C 6,3 km/h (2 Bft)
17.06.2019 16:24 22,0 C 25,7 C 28,9 C 64 % 51 % 1023,7 hPa 0,0 l/m 9,7 km/h (2 Bft) O-SO 112 14,8 C 25,7 C 13,4 km/h (3 Bft)
17.06.2019 16:23 22,0 C 25,7 C 28,9 C 64 % 51 % 1023,7 hPa 0,0 l/m 9,7 km/h (2 Bft) O-SO 112 14,8 C 25,7 C 13,4 km/h (3 Bft)
17.06.2019 16:22 22,0 C 25,5 C 28,9 C 64 % 51 % 1023,7 hPa 0,0 l/m 9,8 km/h (2 Bft) NO 45 14,6 C 25,5 C 16,1 km/h (3 Bft)
17.06.2019 16:21 22,0 C 25,5 C 28,9 C 64 % 51 % 1023,7 hPa 0,0 l/m 9,8 km/h (2 Bft) NO 45 14,6 C 25,5 C 16,1 km/h (3 Bft)
17.06.2019 16:20 22,0 C 25,3 C 29,5 C 64 % 51 % 1023,7 hPa 0,0 l/m 9,5 km/h (2 Bft) O-SO 112 14,4 C 25,3 C 20,3 km/h (4 Bft)
17.06.2019 16:19 22,0 C 25,3 C 29,5 C 64 % 51 % 1023,7 hPa 0,0 l/m 9,5 km/h (2 Bft) O-SO 112 14,4 C 25,3 C 20,3 km/h (4 Bft)
17.06.2019 16:18 22,0 C 25,7 C 30,4 C 64 % 51 % 1023,7 hPa 0,0 l/m 9,0 km/h (2 Bft) SO 135 14,8 C 25,7 C 8,6 km/h (2 Bft)
17.06.2019 16:17 22,0 C 25,7 C 30,4 C 64 % 51 % 1023,7 hPa 0,0 l/m 9,0 km/h (2 Bft) SO 135 14,8 C 25,7 C 8,6 km/h (2 Bft)
17.06.2019 16:16 22,0 C 25,9 C 29,7 C 64 % 51 % 1023,7 hPa 0,0 l/m 9,3 km/h (2 Bft) O 90 15,0 C 25,9 C 15,3 km/h (3 Bft)
17.06.2019 16:15 22,0 C 25,9 C 29,7 C 64 % 51 % 1023,7 hPa 0,0 l/m 9,3 km/h (2 Bft) O 90 15,0 C 25,9 C 15,3 km/h (3 Bft)
17.06.2019 16:14 22,0 C 25,7 C 30,0 C 64 % 51 % 1023,8 hPa 0,0 l/m 10,0 km/h (2 Bft) O 90 14,8 C 25,7 C 13,4 km/h (3 Bft)
17.06.2019 16:13 22,0 C 25,7 C 30,0 C 64 % 51 % 1023,8 hPa 0,0 l/m 10,0 km/h (2 Bft) O 90 14,8 C 25,7 C 13,4 km/h (3 Bft)
17.06.2019 16:12 22,0 C 25,5 C 29,8 C 64 % 51 % 1023,8 hPa 0,0 l/m 9,7 km/h (2 Bft) SO 135 14,6 C 25,5 C 15,5 km/h (3 Bft)
17.06.2019 16:11 22,0 C 25,5 C 29,8 C 64 % 51 % 1023,8 hPa 0,0 l/m 9,7 km/h (2 Bft) SO 135 14,6 C 25,5 C 15,5 km/h (3 Bft)
17.06.2019 16:10 22,0 C 25,3 C 29,0 C 63 % 51 % 1023,8 hPa 0,0 l/m 9,5 km/h (2 Bft) NO 45 14,4 C 25,3 C 18,0 km/h (3 Bft)
17.06.2019 16:09 22,0 C 25,3 C 29,0 C 63 % 51 % 1023,8 hPa 0,0 l/m 9,5 km/h (2 Bft) NO 45 14,4 C 25,3 C 18,0 km/h (3 Bft)
17.06.2019 16:08 22,0 C 25,7 C 29,5 C 64 % 50 % 1023,8 hPa 0,0 l/m 9,5 km/h (2 Bft) O-SO 112 14,5 C 25,7 C 18,6 km/h (3 Bft)
17.06.2019 16:07 22,0 C 25,7 C 29,5 C 64 % 50 % 1023,8 hPa 0,0 l/m 9,5 km/h (2 Bft) O-SO 112 14,5 C 25,7 C 18,6 km/h (3 Bft)
17.06.2019 16:06 22,0 C 25,9 C 29,5 C 64 % 50 % 1023,8 hPa 0,0 l/m 10,1 km/h (2 Bft) SO 135 14,7 C 25,9 C 22,2 km/h (4 Bft)
17.06.2019 16:05 22,0 C 25,9 C 29,5 C 64 % 50 % 1023,8 hPa 0,0 l/m 10,1 km/h (2 Bft) SO 135 14,7 C 25,9 C 22,2 km/h (4 Bft)
17.06.2019 16:04 22,0 C 25,8 C 30,2 C 64 % 50 % 1023,8 hPa 0,0 l/m 9,8 km/h (2 Bft) O-NO 67 14,6 C 25,8 C 19,5 km/h (3 Bft)
17.06.2019 16:03 22,0 C 25,8 C 30,2 C 64 % 50 % 1023,8 hPa 0,0 l/m 9,8 km/h (2 Bft) O-NO 67 14,6 C 25,8 C 19,5 km/h (3 Bft)
17.06.2019 16:02 22,0 C 25,8 C 30,1 C 64 % 50 % 1023,8 hPa 0,0 l/m 10,0 km/h (2 Bft) SO 135 14,6 C 25,8 C 9,2 km/h (2 Bft)
17.06.2019 16:01 22,0 C 25,8 C 30,1 C 64 % 50 % 1023,8 hPa 0,0 l/m 10,0 km/h (2 Bft) SO 135 14,6 C 25,8 C 9,2 km/h (2 Bft)
17.06.2019 16:00 22,0 C 25,9 C 30,5 C 64 % 50 % 1023,8 hPa 0,0 l/m 10,6 km/h (2 Bft) O-SO 112 14,7 C 25,9 C 17,6 km/h (3 Bft)
17.06.2019 15:59 22,0 C 25,9 C 30,5 C 64 % 50 % 1023,8 hPa 0,0 l/m 10,6 km/h (2 Bft) O-SO 112 14,7 C 25,9 C 17,6 km/h (3 Bft)
17.06.2019 15:58 22,0 C 25,7 C 30,4 C 64 % 50 % 1023,8 hPa 0,0 l/m 11,4 km/h (2 Bft) S 180 14,5 C 25,7 C 12,8 km/h (3 Bft)
17.06.2019 15:57 22,0 C 25,7 C 30,4 C 64 % 50 % 1023,8 hPa 0,0 l/m 11,4 km/h (2 Bft) S 180 14,5 C 25,7 C 12,8 km/h (3 Bft)
17.06.2019 15:56 22,0 C 25,7 C 30,1 C 64 % 50 % 1023,8 hPa 0,0 l/m 11,6 km/h (2 Bft) O-SO 112 14,5 C 25,7 C 17,6 km/h (3 Bft)
17.06.2019 15:55 22,0 C 25,7 C 30,1 C 64 % 50 % 1023,8 hPa 0,0 l/m 11,6 km/h (2 Bft) O-SO 112 14,5 C 25,7 C 17,6 km/h (3 Bft)
17.06.2019 15:54 22,0 C 25,6 C 30,3 C 64 % 50 % 1024,0 hPa 0,0 l/m 12,2 km/h (2 Bft) SO 135 14,4 C 25,6 C 23,6 km/h (4 Bft)
17.06.2019 15:53 22,0 C 25,6 C 30,3 C 64 % 50 % 1024,0 hPa 0,0 l/m 12,2 km/h (2 Bft) SO 135 14,4 C 25,6 C 23,6 km/h (4 Bft)
17.06.2019 15:52 22,0 C 25,9 C 31,2 C 64 % 49 % 1024,0 hPa 0,0 l/m 11,4 km/h (2 Bft) O 90 14,4 C 25,9 C 17,6 km/h (3 Bft)
17.06.2019 15:51 22,0 C 25,9 C 31,2 C 64 % 49 % 1024,0 hPa 0,0 l/m 11,4 km/h (2 Bft) O 90 14,4 C 25,9 C 17,6 km/h (3 Bft)
17.06.2019 15:50 22,0 C 26,0 C 32,0 C 64 % 48 % 1024,0 hPa 0,0 l/m 11,3 km/h (2 Bft) O-SO 112 14,1 C 26,0 C 13,8 km/h (3 Bft)
17.06.2019 15:49 22,0 C 26,0 C 32,0 C 64 % 48 % 1024,0 hPa 0,0 l/m 11,3 km/h (2 Bft) O-SO 112 14,1 C 26,0 C 13,8 km/h (3 Bft)
17.06.2019 15:48 22,0 C 25,7 C 31,5 C 64 % 50 % 1024,0 hPa 0,0 l/m 10,3 km/h (2 Bft) O-SO 112 14,5 C 25,7 C 19,0 km/h (3 Bft)
17.06.2019 15:47 22,0 C 25,7 C 31,5 C 64 % 50 % 1024,0 hPa 0,0 l/m 10,3 km/h (2 Bft) O-SO 112 14,5 C 25,7 C 19,0 km/h (3 Bft)
17.06.2019 15:46 21,9 C 25,8 C 31,4 C 64 % 49 % 1024,0 hPa 0,0 l/m 8,5 km/h (2 Bft) O-SO 112 14,3 C 25,8 C 13,8 km/h (3 Bft)
17.06.2019 15:45 21,9 C 25,8 C 31,4 C 64 % 49 % 1024,0 hPa 0,0 l/m 8,5 km/h (2 Bft) O-SO 112 14,3 C 25,8 C 13,8 km/h (3 Bft)
17.06.2019 15:44 22,0 C 26,0 C 31,3 C 64 % 49 % 1024,0 hPa 0,0 l/m 8,5 km/h (2 Bft) SO 135 14,4 C 26,0 C 25,7 km/h (4 Bft)
17.06.2019 15:43 22,0 C 26,0 C 31,3 C 64 % 49 % 1024,0 hPa 0,0 l/m 8,5 km/h (2 Bft) SO 135 14,4 C 26,0 C 25,7 km/h (4 Bft)
17.06.2019 15:42 21,9 C 26,3 C 31,9 C 64 % 48 % 1024,0 hPa 0,0 l/m 9,0 km/h (2 Bft) N-NO 22 14,4 C 26,3 C 14,0 km/h (3 Bft)
17.06.2019 15:41 21,9 C 26,3 C 31,9 C 64 % 48 % 1024,0 hPa 0,0 l/m 9,0 km/h (2 Bft) N-NO 22 14,4 C 26,3 C 14,0 km/h (3 Bft)
17.06.2019 15:40 21,9 C 26,5 C 33,4 C 64 % 50 % 1024,0 hPa 0,0 l/m 10,5 km/h (2 Bft) O-SO 112 15,2 C 26,5 C 11,3 km/h (2 Bft)
17.06.2019 15:39 21,9 C 26,5 C 33,4 C 64 % 50 % 1024,0 hPa 0,0 l/m 10,5 km/h (2 Bft) O-SO 112 15,2 C 26,5 C 11,3 km/h (2 Bft)
17.06.2019 15:38 21,9 C 26,2 C 33,0 C 64 % 47 % 1024,0 hPa 0,0 l/m 10,9 km/h (2 Bft) O 90 14,0 C 26,2 C 12,6 km/h (3 Bft)
17.06.2019 15:37 21,9 C 26,2 C 33,0 C 64 % 47 % 1024,0 hPa 0,0 l/m 10,9 km/h (2 Bft) O 90 14,0 C 26,2 C 12,6 km/h (3 Bft)
17.06.2019 15:36 21,9 C 25,7 C 32,4 C 64 % 51 % 1024,0 hPa 0,0 l/m 11,3 km/h (2 Bft) S-SO 157 14,8 C 25,7 C 12,6 km/h (3 Bft)
17.06.2019 15:35 21,9 C 25,7 C 32,4 C 64 % 51 % 1024,0 hPa 0,0 l/m 11,3 km/h (2 Bft) S-SO 157 14,8 C 25,7 C 12,6 km/h (3 Bft)
17.06.2019 15:34 21,9 C 26,0 C 31,5 C 64 % 48 % 1024,2 hPa 0,0 l/m 11,9 km/h (2 Bft) O-SO 112 14,1 C 26,0 C 15,9 km/h (3 Bft)
17.06.2019 15:33 21,9 C 26,0 C 31,5 C 64 % 48 % 1024,2 hPa 0,0 l/m 11,9 km/h (2 Bft) O-SO 112 14,1 C 26,0 C 15,9 km/h (3 Bft)
17.06.2019 15:32 21,9 C 26,2 C 32,0 C 64 % 48 % 1024,2 hPa 0,0 l/m 11,4 km/h (2 Bft) O-SO 112 14,3 C 26,2 C 16,3 km/h (3 Bft)
17.06.2019 15:31 21,9 C 26,2 C 32,0 C 64 % 48 % 1024,2 hPa 0,0 l/m 11,4 km/h (2 Bft) O-SO 112 14,3 C 26,2 C 16,3 km/h (3 Bft)
17.06.2019 15:30 21,9 C 26,2 C 32,5 C 64 % 49 % 1024,2 hPa 0,0 l/m 10,8 km/h (2 Bft) SO 135 14,6 C 26,2 C 15,7 km/h (3 Bft)
17.06.2019 15:29 21,9 C 26,2 C 32,5 C 64 % 49 % 1024,2 hPa 0,0 l/m 10,8 km/h (2 Bft) SO 135 14,6 C 26,2 C 15,7 km/h (3 Bft)
17.06.2019 15:28 21,9 C 26,0 C 32,8 C 64 % 48 % 1024,2 hPa 0,0 l/m 9,8 km/h (2 Bft) S-SW 202 14,1 C 26,0 C 10,5 km/h (2 Bft)
17.06.2019 15:27 21,9 C 26,0 C 32,8 C 64 % 48 % 1024,2 hPa 0,0 l/m 9,8 km/h (2 Bft) S-SW 202 14,1 C 26,0 C 10,5 km/h (2 Bft)
17.06.2019 15:26 21,9 C 26,0 C 32,1 C 64 % 48 % 1024,2 hPa 0,0 l/m 9,8 km/h (2 Bft) O-NO 67 14,1 C 26,0 C 18,4 km/h (3 Bft)
17.06.2019 15:25 21,9 C 26,0 C 32,1 C 64 % 48 % 1024,2 hPa 0,0 l/m 9,8 km/h (2 Bft) O-NO 67 14,1 C 26,0 C 18,4 km/h (3 Bft)
17.06.2019 15:24 21,9 C 25,6 C 31,5 C 64 % 50 % 1024,2 hPa 0,0 l/m 9,7 km/h (2 Bft) O-SO 112 14,4 C 25,6 C 21,8 km/h (4 Bft)
17.06.2019 15:23 21,9 C 25,6 C 31,5 C 64 % 50 % 1024,2 hPa 0,0 l/m 9,7 km/h (2 Bft) O-SO 112 14,4 C 25,6 C 21,8 km/h (4 Bft)
17.06.2019 15:22 21,9 C 25,9 C 30,8 C 64 % 51 % 1024,2 hPa 0,0 l/m 9,3 km/h (2 Bft) N-NO 22 15,0 C 25,9 C 14,4 km/h (3 Bft)
17.06.2019 15:21 21,9 C 25,9 C 30,8 C 64 % 51 % 1024,2 hPa 0,0 l/m 9,3 km/h (2 Bft) N-NO 22 15,0 C 25,9 C 14,4 km/h (3 Bft)
17.06.2019 15:20 21,9 C 25,7 C 30,3 C 64 % 50 % 1024,2 hPa 0,0 l/m 9,3 km/h (2 Bft) O-SO 112 14,5 C 25,7 C 17,4 km/h (3 Bft)
17.06.2019 15:19 21,9 C 25,7 C 30,3 C 64 % 50 % 1024,2 hPa 0,0 l/m 9,3 km/h (2 Bft) O-SO 112 14,5 C 25,7 C 17,4 km/h (3 Bft)
17.06.2019 15:18 21,8 C 25,8 C 30,0 C 64 % 50 % 1024,2 hPa 0,0 l/m 9,5 km/h (2 Bft) O-SO 112 14,6 C 25,8 C 13,0 km/h (3 Bft)
17.06.2019 15:17 21,8 C 25,8 C 30,0 C 64 % 50 % 1024,2 hPa 0,0 l/m 9,5 km/h (2 Bft) O-SO 112 14,6 C 25,8 C 13,0 km/h (3 Bft)
17.06.2019 15:16 21,9 C 25,5 C 30,3 C 64 % 52 % 1024,2 hPa 0,0 l/m 9,5 km/h (2 Bft) O-SO 112 14,9 C 25,5 C 15,9 km/h (3 Bft)
17.06.2019 15:15 21,9 C 25,5 C 30,3 C 64 % 52 % 1024,2 hPa 0,0 l/m 9,5 km/h (2 Bft) O-SO 112 14,9 C 25,5 C 15,9 km/h (3 Bft)
17.06.2019 15:14 21,8 C 25,7 C 31,3 C 64 % 51 % 1024,4 hPa 0,0 l/m 9,3 km/h (2 Bft) O 90 14,8 C 25,7 C 18,2 km/h (3 Bft)
17.06.2019 15:13 21,8 C 25,7 C 31,3 C 64 % 51 % 1024,4 hPa 0,0 l/m 9,3 km/h (2 Bft) O 90 14,8 C 25,7 C 18,2 km/h (3 Bft)
17.06.2019 15:12 21,8 C 25,6 C 30,0 C 64 % 50 % 1024,4 hPa 0,0 l/m 9,3 km/h (2 Bft) O-SO 112 14,4 C 25,6 C 13,0 km/h (3 Bft)
17.06.2019 15:11 21,8 C 25,6 C 30,0 C 64 % 50 % 1024,4 hPa 0,0 l/m 9,3 km/h (2 Bft) O-SO 112 14,4 C 25,6 C 13,0 km/h (3 Bft)
17.06.2019 15:10 21,8 C 25,7 C 30,5 C 64 % 49 % 1024,4 hPa 0,0 l/m 9,3 km/h (2 Bft) N-NW 337 14,2 C 25,7 C 14,2 km/h (3 Bft)
17.06.2019 15:09 21,8 C 25,7 C 30,5 C 64 % 49 % 1024,4 hPa 0,0 l/m 9,3 km/h (2 Bft) N-NW 337 14,2 C 25,7 C 14,2 km/h (3 Bft)
17.06.2019 15:08 21,8 C 26,1 C 32,2 C 64 % 49 % 1024,4 hPa 0,0 l/m 9,5 km/h (2 Bft) O-SO 112 14,5 C 26,1 C 19,7 km/h (3 Bft)
17.06.2019 15:07 21,8 C 26,1 C 32,2 C 64 % 49 % 1024,4 hPa 0,0 l/m 9,5 km/h (2 Bft) O-SO 112 14,5 C 26,1 C 19,7 km/h (3 Bft)
17.06.2019 15:06 21,8 C 25,9 C 32,4 C 64 % 51 % 1024,4 hPa 0,0 l/m 9,2 km/h (2 Bft) SO 135 15,0 C 25,9 C 15,7 km/h (3 Bft)
17.06.2019 15:05 21,8 C 25,9 C 32,4 C 64 % 51 % 1024,4 hPa 0,0 l/m 9,2 km/h (2 Bft) SO 135 15,0 C 25,9 C 15,7 km/h (3 Bft)
17.06.2019 15:04 21,8 C 25,4 C 30,9 C 64 % 53 % 1024,4 hPa 0,0 l/m 8,9 km/h (2 Bft) O-SO 112 15,1 C 25,4 C 19,7 km/h (3 Bft)
17.06.2019 15:03 21,8 C 25,4 C 30,9 C 64 % 53 % 1024,4 hPa 0,0 l/m 8,9 km/h (2 Bft) O-SO 112 15,1 C 25,4 C 19,7 km/h (3 Bft)
17.06.2019 15:02 21,8 C 25,2 C 30,0 C 64 % 51 % 1024,4 hPa 0,0 l/m 8,0 km/h (2 Bft) O-SO 112 14,3 C 25,2 C 15,5 km/h (3 Bft)
17.06.2019 15:01 21,8 C 25,2 C 30,0 C 64 % 51 % 1024,4 hPa 0,0 l/m 8,0 km/h (2 Bft) O-SO 112 14,3 C 25,2 C 15,5 km/h (3 Bft)
17.06.2019 15:00 21,8 C 25,3 C 30,5 C 64 % 50 % 1024,4 hPa 0,0 l/m 8,0 km/h (2 Bft) N 360 14,1 C 25,3 C 16,7 km/h (3 Bft)
17.06.2019 14:59 21,8 C 25,3 C 30,5 C 64 % 50 % 1024,4 hPa 0,0 l/m 8,0 km/h (2 Bft) N 360 14,1 C 25,3 C 16,7 km/h (3 Bft)
17.06.2019 14:58 21,8 C 25,3 C 29,8 C 63 % 51 % 1024,4 hPa 0,0 l/m 8,2 km/h (2 Bft) S-SO 157 14,4 C 25,3 C 14,4 km/h (3 Bft)
17.06.2019 14:57 21,8 C 25,3 C 29,8 C 63 % 51 % 1024,4 hPa 0,0 l/m 8,2 km/h (2 Bft) S-SO 157 14,4 C 25,3 C 14,4 km/h (3 Bft)
17.06.2019 14:56 21,8 C 25,6 C 28,5 C 64 % 49 % 1024,4 hPa 0,0 l/m 8,0 km/h (2 Bft) NO 45 14,1 C 25,6 C 8,4 km/h (2 Bft)
17.06.2019 14:55 21,8 C 25,6 C 28,5 C 64 % 49 % 1024,4 hPa 0,0 l/m 8,0 km/h (2 Bft) NO 45 14,1 C 25,6 C 8,4 km/h (2 Bft)
17.06.2019 14:54 21,8 C 25,7 C 28,8 C 63 % 49 % 1024,4 hPa 0,0 l/m 8,4 km/h (2 Bft) O 90 14,2 C 25,7 C 11,3 km/h (2 Bft)
17.06.2019 14:53 21,8 C 25,7 C 28,8 C 63 % 49 % 1024,4 hPa 0,0 l/m 8,4 km/h (2 Bft) O 90 14,2 C 25,7 C 11,3 km/h (2 Bft)
17.06.2019 14:52 21,7 C 26,2 C 30,7 C 64 % 48 % 1024,4 hPa 0,0 l/m 8,9 km/h (2 Bft) N 360 14,3 C 26,2 C 6,5 km/h (2 Bft)
17.06.2019 14:51 21,7 C 26,2 C 30,7 C 64 % 48 % 1024,4 hPa 0,0 l/m 8,9 km/h (2 Bft) N 360 14,3 C 26,2 C 6,5 km/h (2 Bft)
17.06.2019 14:50 21,7 C 26,2 C 32,4 C 63 % 49 % 1024,4 hPa 0,0 l/m 9,3 km/h (2 Bft) SO 135 14,6 C 26,2 C 9,4 km/h (2 Bft)
17.06.2019 14:49 21,7 C 26,2 C 32,4 C 63 % 49 % 1024,4 hPa 0,0 l/m 9,3 km/h (2 Bft) SO 135 14,6 C 26,2 C 9,4 km/h (2 Bft)
17.06.2019 14:48 21,7 C 25,8 C 32,8 C 63 % 49 % 1024,4 hPa 0,0 l/m 9,5 km/h (2 Bft) O-SO 112 14,3 C 25,8 C 27,4 km/h (4 Bft)
17.06.2019 14:47 21,7 C 25,8 C 32,8 C 63 % 49 % 1024,4 hPa 0,0 l/m 9,5 km/h (2 Bft) O-SO 112 14,3 C 25,8 C 27,4 km/h (4 Bft)
17.06.2019 14:46 21,7 C 25,9 C 32,7 C 63 % 49 % 1024,4 hPa 0,0 l/m 9,3 km/h (2 Bft) O-SO 112 14,4 C 25,9 C 13,2 km/h (3 Bft)
17.06.2019 14:45 21,7 C 25,9 C 32,7 C 63 % 49 % 1024,4 hPa 0,0 l/m 9,3 km/h (2 Bft) O-SO 112 14,4 C 25,9 C 13,2 km/h (3 Bft)
17.06.2019 14:44 21,7 C 26,1 C 31,5 C 63 % 50 % 1024,4 hPa 0,0 l/m 10,0 km/h (2 Bft) S 180 14,8 C 26,1 C 11,3 km/h (2 Bft)
17.06.2019 14:43 21,7 C 26,1 C 31,5 C 63 % 50 % 1024,4 hPa 0,0 l/m 10,0 km/h (2 Bft) S 180 14,8 C 26,1 C 11,3 km/h (2 Bft)
17.06.2019 14:42 21,7 C 25,8 C 32,0 C 63 % 51 % 1024,4 hPa 0,0 l/m 10,5 km/h (2 Bft) O-SO 112 14,9 C 25,8 C 11,3 km/h (2 Bft)
17.06.2019 14:41 21,7 C 25,8 C 32,0 C 63 % 51 % 1024,4 hPa 0,0 l/m 10,5 km/h (2 Bft) O-SO 112 14,9 C 25,8 C 11,3 km/h (2 Bft)
17.06.2019 14:40 21,7 C 24,8 C 30,6 C 63 % 51 % 1024,4 hPa 0,0 l/m 10,8 km/h (2 Bft) O-SO 112 14,0 C 24,8 C 14,6 km/h (3 Bft)
17.06.2019 14:39 21,7 C 24,8 C 30,6 C 63 % 51 % 1024,4 hPa 0,0 l/m 10,8 km/h (2 Bft) O-SO 112 14,0 C 24,8 C 14,6 km/h (3 Bft)
17.06.2019 14:38 21,7 C 24,8 C 29,2 C 63 % 51 % 1024,4 hPa 0,0 l/m 11,3 km/h (2 Bft) SO 135 14,0 C 24,8 C 12,8 km/h (3 Bft)
17.06.2019 14:37 21,7 C 24,8 C 29,2 C 63 % 51 % 1024,4 hPa 0,0 l/m 11,3 km/h (2 Bft) SO 135 14,0 C 24,8 C 12,8 km/h (3 Bft)
17.06.2019 14:36 21,7 C 25,0 C 29,4 C 63 % 50 % 1024,4 hPa 0,0 l/m 12,6 km/h (3 Bft) O-SO 112 13,8 C 25,0 C 18,0 km/h (3 Bft)
17.06.2019 14:35 21,7 C 25,0 C 29,4 C 63 % 50 % 1024,4 hPa 0,0 l/m 12,6 km/h (3 Bft) O-SO 112 13,8 C 25,0 C 18,0 km/h (3 Bft)
17.06.2019 14:34 21,7 C 25,1 C 29,9 C 63 % 51 % 1024,2 hPa 0,0 l/m 12,6 km/h (3 Bft) SO 135 14,2 C 25,1 C 19,9 km/h (4 Bft)
17.06.2019 14:33 21,7 C 25,1 C 29,9 C 63 % 51 % 1024,2 hPa 0,0 l/m 12,6 km/h (3 Bft) SO 135 14,2 C 25,1 C 19,9 km/h (4 Bft)
17.06.2019 14:32 21,7 C 24,8 C 29,2 C 63 % 50 % 1024,2 hPa 0,0 l/m 12,1 km/h (2 Bft) O-NO 67 13,7 C 24,8 C 33,9 km/h (5 Bft)
17.06.2019 14:31 21,7 C 24,8 C 29,2 C 63 % 50 % 1024,2 hPa 0,0 l/m 12,1 km/h (2 Bft) O-NO 67 13,7 C 24,8 C 13,2 km/h (3 Bft)
17.06.2019 14:30 21,7 C 24,8 C 28,5 C 63 % 50 % 1024,2 hPa 0,0 l/m 11,3 km/h (2 Bft) O-SO 112 13,7 C 24,8 C 20,7 km/h (4 Bft)
17.06.2019 14:29 21,7 C 24,8 C 28,5 C 63 % 50 % 1024,2 hPa 0,0 l/m 11,3 km/h (2 Bft) O-SO 112 13,7 C 24,8 C 20,7 km/h (4 Bft)
17.06.2019 14:28 21,7 C 24,8 C 28,3 C 63 % 49 % 1024,2 hPa 0,0 l/m 10,5 km/h (2 Bft) O-SO 112 13,3 C 24,8 C 17,6 km/h (3 Bft)
17.06.2019 14:27 21,7 C 24,8 C 28,3 C 63 % 49 % 1024,2 hPa 0,0 l/m 10,5 km/h (2 Bft) O-SO 112 13,3 C 24,8 C 17,6 km/h (3 Bft)
17.06.2019 14:26 21,7 C 25,6 C 29,8 C 63 % 49 % 1024,2 hPa 0,0 l/m 9,7 km/h (2 Bft) SO 135 14,1 C 25,6 C 33,9 km/h (5 Bft)
17.06.2019 14:25 21,7 C 25,6 C 29,8 C 63 % 49 % 1024,2 hPa 0,0 l/m 9,7 km/h (2 Bft) SO 135 14,1 C 25,6 C 33,9 km/h (5 Bft)
17.06.2019 14:24 21,7 C 25,9 C 31,1 C 63 % 50 % 1024,2 hPa 0,0 l/m 8,7 km/h (2 Bft) N-NO 22 14,7 C 25,9 C 19,5 km/h (3 Bft)
17.06.2019 14:23 21,7 C 25,9 C 31,1 C 63 % 50 % 1024,2 hPa 0,0 l/m 8,7 km/h (2 Bft) N-NO 22 14,7 C 25,9 C 19,5 km/h (3 Bft)
17.06.2019 14:22 21,7 C 25,5 C 33,4 C 63 % 49 % 1024,2 hPa 0,0 l/m 8,5 km/h (2 Bft) SO 135 14,0 C 25,5 C 11,3 km/h (2 Bft)
17.06.2019 14:21 21,7 C 25,5 C 33,4 C 63 % 49 % 1024,2 hPa 0,0 l/m 8,5 km/h (2 Bft) SO 135 14,0 C 25,5 C 11,3 km/h (2 Bft)
17.06.2019 14:20 21,7 C 25,5 C 33,0 C 63 % 48 % 1024,2 hPa 0,0 l/m 9,2 km/h (2 Bft) S-SO 157 13,7 C 25,5 C 7,1 km/h (2 Bft)
17.06.2019 14:19 21,7 C 25,5 C 33,0 C 63 % 48 % 1024,2 hPa 0,0 l/m 9,2 km/h (2 Bft) S-SO 157 13,7 C 25,5 C 7,1 km/h (2 Bft)
17.06.2019 14:18 21,7 C 26,4 C 33,0 C 63 % 47 % 1024,2 hPa 0,0 l/m 9,5 km/h (2 Bft) O-SO 112 14,2 C 26,4 C 13,4 km/h (3 Bft)
17.06.2019 14:17 21,7 C 26,4 C 33,0 C 63 % 47 % 1024,2 hPa 0,0 l/m 9,5 km/h (2 Bft) O-SO 112 14,2 C 26,4 C 13,4 km/h (3 Bft)
17.06.2019 14:16 21,7 C 26,2 C 33,8 C 63 % 49 % 1024,2 hPa 0,0 l/m 10,1 km/h (2 Bft) O-SO 112 14,6 C 26,2 C 9,6 km/h (2 Bft)
17.06.2019 14:15 21,7 C 26,2 C 33,8 C 63 % 49 % 1024,2 hPa 0,0 l/m 10,1 km/h (2 Bft) O-SO 112 14,6 C 26,2 C 9,6 km/h (2 Bft)
17.06.2019 14:14 21,6 C 26,2 C 34,2 C 63 % 46 % 1024,6 hPa 0,0 l/m 10,8 km/h (2 Bft) O-SO 112 13,6 C 26,2 C 16,9 km/h (3 Bft)
17.06.2019 14:13 21,6 C 26,2 C 34,2 C 63 % 46 % 1024,6 hPa 0,0 l/m 10,8 km/h (2 Bft) O-SO 112 13,6 C 26,2 C 16,9 km/h (3 Bft)
17.06.2019 14:12 21,6 C 26,2 C 33,9 C 63 % 45 % 1024,6 hPa 0,0 l/m 10,5 km/h (2 Bft) O-SO 112 13,3 C 26,2 C 11,7 km/h (2 Bft)
17.06.2019 14:11 21,6 C 26,2 C 33,9 C 63 % 45 % 1024,6 hPa 0,0 l/m 10,5 km/h (2 Bft) O-SO 112 13,3 C 26,2 C 11,7 km/h (2 Bft)
17.06.2019 14:10 21,6 C 26,0 C 33,3 C 63 % 47 % 1024,6 hPa 0,0 l/m 10,8 km/h (2 Bft) O-NO 67 13,8 C 26,0 C 17,2 km/h (3 Bft)
17.06.2019 14:09 21,6 C 26,0 C 33,3 C 63 % 47 % 1024,6 hPa 0,0 l/m 10,8 km/h (2 Bft) O-NO 67 13,8 C 26,0 C 17,2 km/h (3 Bft)
17.06.2019 14:08 21,6 C 26,1 C 33,0 C 63 % 46 % 1024,6 hPa 0,0 l/m 11,9 km/h (2 Bft) O 90 13,6 C 26,1 C 14,9 km/h (3 Bft)
17.06.2019 14:07 21,6 C 26,1 C 33,0 C 63 % 46 % 1024,6 hPa 0,0 l/m 11,9 km/h (2 Bft) O 90 13,6 C 26,1 C 14,9 km/h (3 Bft)
17.06.2019 14:06 21,6 C 26,1 C 33,7 C 63 % 45 % 1024,6 hPa 0,0 l/m 11,3 km/h (2 Bft) SO 135 13,2 C 26,1 C 25,5 km/h (4 Bft)
17.06.2019 14:05 21,6 C 26,1 C 33,7 C 63 % 45 % 1024,6 hPa 0,0 l/m 11,3 km/h (2 Bft) SO 135 13,2 C 26,1 C 25,5 km/h (4 Bft)
17.06.2019 14:04 21,6 C 26,5 C 33,7 C 63 % 47 % 1024,6 hPa 0,0 l/m 11,9 km/h (2 Bft) S-SO 157 14,3 C 26,5 C 20,1 km/h (4 Bft)
17.06.2019 14:03 21,6 C 26,5 C 33,7 C 63 % 47 % 1024,6 hPa 0,0 l/m 11,9 km/h (2 Bft) S-SO 157 14,3 C 26,5 C 20,1 km/h (4 Bft)
17.06.2019 14:02 21,6 C 25,8 C 31,9 C 63 % 50 % 1024,6 hPa 0,0 l/m 11,4 km/h (2 Bft) O-SO 112 14,6 C 25,8 C 11,9 km/h (2 Bft)
17.06.2019 14:01 21,6 C 25,8 C 31,9 C 63 % 50 % 1024,6 hPa 0,0 l/m 11,4 km/h (2 Bft) O-SO 112 14,6 C 25,8 C 11,9 km/h (2 Bft)
17.06.2019 14:00 21,6 C 25,5 C 30,8 C 63 % 48 % 1024,6 hPa 0,0 l/m 11,7 km/h (2 Bft) SO 135 13,7 C 25,5 C 15,5 km/h (3 Bft)
17.06.2019 13:59 21,6 C 25,5 C 30,8 C 63 % 48 % 1024,6 hPa 0,0 l/m 11,7 km/h (2 Bft) SO 135 13,7 C 25,5 C 15,5 km/h (3 Bft)
17.06.2019 13:58 21,6 C 25,4 C 30,0 C 63 % 51 % 1024,6 hPa 0,0 l/m 10,6 km/h (2 Bft) SO 135 14,5 C 25,4 C 26,6 km/h (4 Bft)
17.06.2019 13:57 21,6 C 25,4 C 30,0 C 63 % 51 % 1024,6 hPa 0,0 l/m 10,6 km/h (2 Bft) SO 135 14,5 C 25,4 C 26,6 km/h (4 Bft)
17.06.2019 13:56 21,6 C 25,2 C 31,8 C 63 % 49 % 1024,6 hPa 0,0 l/m 10,1 km/h (2 Bft) O-NO 67 13,7 C 25,2 C 9,0 km/h (2 Bft)
17.06.2019 13:55 21,6 C 25,2 C 31,8 C 63 % 49 % 1024,6 hPa 0,0 l/m 10,1 km/h (2 Bft) O-NO 67 13,7 C 25,2 C 9,0 km/h (2 Bft)
17.06.2019 13:54 21,6 C 25,6 C 32,7 C 63 % 49 % 1024,7 hPa 0,0 l/m 10,3 km/h (2 Bft) O-SO 112 14,1 C 25,6 C 18,4 km/h (3 Bft)
17.06.2019 13:53 21,6 C 25,6 C 32,7 C 63 % 49 % 1024,7 hPa 0,0 l/m 10,3 km/h (2 Bft) O-SO 112 14,1 C 25,6 C 18,4 km/h (3 Bft)
17.06.2019 13:52 21,6 C 25,5 C 32,9 C 63 % 49 % 1024,7 hPa 0,0 l/m 10,0 km/h (2 Bft) O-SO 112 14,0 C 25,5 C 12,3 km/h (3 Bft)
17.06.2019 13:51 21,6 C 25,5 C 32,9 C 63 % 49 % 1024,7 hPa 0,0 l/m 10,0 km/h (2 Bft) O-SO 112 14,0 C 25,5 C 12,3 km/h (3 Bft)
17.06.2019 13:50 21,6 C 26,1 C 33,6 C 63 % 48 % 1024,7 hPa 0,0 l/m 10,1 km/h (2 Bft) O-SO 112 14,2 C 26,1 C 15,7 km/h (3 Bft)
17.06.2019 13:49 21,6 C 26,1 C 33,6 C 63 % 48 % 1024,7 hPa 0,0 l/m 10,1 km/h (2 Bft) O-SO 112 14,2 C 26,1 C 15,7 km/h (3 Bft)
17.06.2019 13:48 21,6 C 26,1 C 33,3 C 63 % 47 % 1024,7 hPa 0,0 l/m 10,6 km/h (2 Bft) O-SO 112 13,9 C 26,1 C 14,4 km/h (3 Bft)
17.06.2019 13:47 21,6 C 26,1 C 33,3 C 63 % 47 % 1024,7 hPa 0,0 l/m 10,6 km/h (2 Bft) O-SO 112 13,9 C 26,1 C 14,4 km/h (3 Bft)
17.06.2019 13:46 21,6 C 25,9 C 33,0 C 63 % 48 % 1024,7 hPa 0,0 l/m 10,5 km/h (2 Bft) O 90 14,0 C 25,9 C 17,4 km/h (3 Bft)
17.06.2019 13:45 21,6 C 25,9 C 33,0 C 63 % 48 % 1024,7 hPa 0,0 l/m 10,5 km/h (2 Bft) O 90 14,0 C 25,9 C 17,4 km/h (3 Bft)
17.06.2019 13:44 21,6 C 26,1 C 32,8 C 63 % 47 % 1024,7 hPa 0,0 l/m 10,5 km/h (2 Bft) O 90 13,9 C 26,1 C 14,2 km/h (3 Bft)
17.06.2019 13:43 21,6 C 26,1 C 32,8 C 63 % 47 % 1024,7 hPa 0,0 l/m 10,5 km/h (2 Bft) O 90 13,9 C 26,1 C 14,2 km/h (3 Bft)
17.06.2019 13:42 21,6 C 25,4 C 32,4 C 63 % 50 % 1024,7 hPa 0,0 l/m 11,1 km/h (2 Bft) O 90 14,2 C 25,4 C 17,2 km/h (3 Bft)
17.06.2019 13:41 21,6 C 25,4 C 32,4 C 63 % 50 % 1024,7 hPa 0,0 l/m 11,1 km/h (2 Bft) O 90 14,2 C 25,4 C 17,2 km/h (3 Bft)
17.06.2019 13:40 21,6 C 25,1 C 31,6 C 63 % 48 % 1024,7 hPa 0,0 l/m 10,3 km/h (2 Bft) S-SO 157 13,3 C 25,1 C 12,1 km/h (2 Bft)
17.06.2019 13:39 21,6 C 25,1 C 31,6 C 63 % 48 % 1024,7 hPa 0,0 l/m 10,3 km/h (2 Bft) S-SO 157 13,3 C 25,1 C 12,1 km/h (2 Bft)
17.06.2019 13:38 21,6 C 25,2 C 32,5 C 63 % 48 % 1024,7 hPa 0,0 l/m 10,1 km/h (2 Bft) S-SO 157 13,4 C 25,2 C 17,2 km/h (3 Bft)
17.06.2019 13:37 21,6 C 25,2 C 32,5 C 63 % 48 % 1024,7 hPa 0,0 l/m 10,1 km/h (2 Bft) S-SO 157 13,4 C 25,2 C 17,2 km/h (3 Bft)
17.06.2019 13:36 21,6 C 25,6 C 32,6 C 63 % 48 % 1024,7 hPa 0,0 l/m 9,8 km/h (2 Bft) SO 135 13,8 C 25,6 C 15,9 km/h (3 Bft)
17.06.2019 13:35 21,6 C 25,6 C 32,6 C 63 % 48 % 1024,7 hPa 0,0 l/m 9,8 km/h (2 Bft) SO 135 13,8 C 25,6 C 15,9 km/h (3 Bft)
17.06.2019 13:34 21,6 C 25,9 C 33,0 C 63 % 48 % 1024,6 hPa 0,0 l/m 10,3 km/h (2 Bft) O-SO 112 14,0 C 25,9 C 20,1 km/h (4 Bft)
17.06.2019 13:33 21,6 C 25,9 C 33,0 C 63 % 48 % 1024,6 hPa 0,0 l/m 10,3 km/h (2 Bft) O-SO 112 14,0 C 25,9 C 20,1 km/h (4 Bft)
17.06.2019 13:32 21,6 C 26,0 C 32,3 C 63 % 47 % 1024,6 hPa 0,0 l/m 10,0 km/h (2 Bft) O-SO 112 13,8 C 26,0 C 28,5 km/h (4 Bft)
17.06.2019 13:31 21,6 C 26,0 C 32,3 C 63 % 47 % 1024,6 hPa 0,0 l/m 10,0 km/h (2 Bft) O-SO 112 13,8 C 26,0 C 28,5 km/h (4 Bft)
17.06.2019 13:30 21,5 C 26,0 C 32,4 C 63 % 46 % 1024,6 hPa 0,0 l/m 10,3 km/h (2 Bft) SO 135 13,5 C 26,0 C 13,0 km/h (3 Bft)
17.06.2019 13:29 21,5 C 26,0 C 32,4 C 63 % 46 % 1024,6 hPa 0,0 l/m 10,3 km/h (2 Bft) SO 135 13,5 C 26,0 C 13,0 km/h (3 Bft)
17.06.2019 13:28 21,5 C 25,8 C 31,9 C 63 % 47 % 1024,6 hPa 0,0 l/m 10,1 km/h (2 Bft) O 90 13,6 C 25,8 C 16,3 km/h (3 Bft)
17.06.2019 13:27 21,5 C 25,8 C 31,9 C 63 % 47 % 1024,6 hPa 0,0 l/m 10,1 km/h (2 Bft) O 90 13,6 C 25,8 C 16,3 km/h (3 Bft)
17.06.2019 13:26 21,6 C 26,0 C 32,5 C 63 % 46 % 1024,6 hPa 0,0 l/m 10,6 km/h (2 Bft) O-SO 112 13,5 C 26,0 C 15,1 km/h (3 Bft)
17.06.2019 13:25 21,6 C 26,0 C 32,5 C 63 % 46 % 1024,6 hPa 0,0 l/m 10,6 km/h (2 Bft) O-SO 112 13,5 C 26,0 C 15,1 km/h (3 Bft)
17.06.2019 13:24 21,6 C 25,7 C 31,7 C 63 % 48 % 1024,6 hPa 0,0 l/m 10,6 km/h (2 Bft) O-SO 112 13,9 C 25,7 C 21,3 km/h (4 Bft)
17.06.2019 13:23 21,6 C 25,7 C 31,7 C 63 % 48 % 1024,6 hPa 0,0 l/m 10,6 km/h (2 Bft) O-SO 112 13,9 C 25,7 C 21,3 km/h (4 Bft)
17.06.2019 13:22 21,6 C 26,1 C 31,7 C 63 % 46 % 1024,6 hPa 0,0 l/m 9,7 km/h (2 Bft) O-SO 112 13,6 C 26,1 C 18,6 km/h (3 Bft)
17.06.2019 13:21 21,6 C 26,1 C 31,7 C 63 % 46 % 1024,6 hPa 0,0 l/m 9,7 km/h (2 Bft) O-SO 112 13,6 C 26,1 C 18,6 km/h (3 Bft)
17.06.2019 13:20 21,5 C 26,3 C 32,5 C 63 % 47 % 1024,6 hPa 0,0 l/m 8,9 km/h (2 Bft) O-SO 112 14,1 C 26,3 C 13,0 km/h (3 Bft)
17.06.2019 13:19 21,5 C 26,3 C 32,5 C 63 % 47 % 1024,6 hPa 0,0 l/m 8,9 km/h (2 Bft) O-SO 112 14,1 C 26,3 C 13,0 km/h (3 Bft)
17.06.2019 13:18 21,5 C 25,3 C 32,2 C 63 % 52 % 1024,6 hPa 0,0 l/m 8,5 km/h (2 Bft) O-SO 112 14,7 C 25,3 C 10,3 km/h (2 Bft)
17.06.2019 13:17 21,5 C 25,3 C 32,2 C 63 % 52 % 1024,6 hPa 0,0 l/m 8,5 km/h (2 Bft) O-SO 112 14,7 C 25,3 C 10,3 km/h (2 Bft)
17.06.2019 13:16 21,5 C 24,8 C 31,3 C 63 % 49 % 1024,6 hPa 0,0 l/m 8,4 km/h (2 Bft) S-SO 157 13,3 C 24,8 C 17,6 km/h (3 Bft)
17.06.2019 13:15 21,5 C 24,8 C 31,3 C 63 % 49 % 1024,6 hPa 0,0 l/m 8,4 km/h (2 Bft) S-SO 157 13,3 C 24,8 C 17,6 km/h (3 Bft)
17.06.2019 13:14 21,6 C 25,1 C 31,5 C 63 % 49 % 1024,9 hPa 0,0 l/m 7,7 km/h (2 Bft) S-SO 157 13,6 C 25,1 C 14,4 km/h (3 Bft)
17.06.2019 13:13 21,6 C 25,1 C 31,5 C 63 % 49 % 1024,9 hPa 0,0 l/m 7,7 km/h (2 Bft) S-SO 157 13,6 C 25,1 C 14,4 km/h (3 Bft)
17.06.2019 13:12 21,5 C 25,5 C 31,5 C 63 % 48 % 1024,9 hPa 0,0 l/m 7,7 km/h (2 Bft) O-NO 67 13,7 C 25,5 C 12,8 km/h (3 Bft)
17.06.2019 13:11 21,5 C 25,5 C 31,5 C 63 % 48 % 1024,9 hPa 0,0 l/m 7,7 km/h (2 Bft) O-NO 67 13,7 C 25,5 C 12,8 km/h (3 Bft)
17.06.2019 13:10 21,6 C 25,5 C 31,3 C 63 % 47 % 1024,9 hPa 0,0 l/m 7,6 km/h (2 Bft) O-SO 112 13,3 C 25,5 C 6,3 km/h (2 Bft)
17.06.2019 13:09 21,6 C 25,5 C 31,3 C 63 % 47 % 1024,9 hPa 0,0 l/m 7,6 km/h (2 Bft) O-SO 112 13,3 C 25,5 C 6,3 km/h (2 Bft)
17.06.2019 13:08 21,5 C 25,5 C 30,5 C 63 % 47 % 1024,9 hPa 0,0 l/m 7,9 km/h (2 Bft) O 90 13,3 C 25,5 C 13,8 km/h (3 Bft)
17.06.2019 13:07 21,5 C 25,5 C 30,5 C 63 % 47 % 1024,9 hPa 0,0 l/m 7,9 km/h (2 Bft) O 90 13,3 C 25,5 C 13,8 km/h (3 Bft)
17.06.2019 13:06 21,5 C 25,3 C 29,5 C 63 % 48 % 1024,9 hPa 0,0 l/m 9,3 km/h (2 Bft) O 90 13,5 C 25,3 C 8,8 km/h (2 Bft)
17.06.2019 13:05 21,5 C 25,3 C 29,5 C 63 % 48 % 1024,9 hPa 0,0 l/m 9,3 km/h (2 Bft) O 90 13,5 C 25,3 C 8,8 km/h (2 Bft)
17.06.2019 13:04 21,5 C 25,0 C 30,9 C 62 % 48 % 1024,9 hPa 0,0 l/m 9,7 km/h (2 Bft) O-SO 112 13,2 C 25,0 C 15,5 km/h (3 Bft)
17.06.2019 13:03 21,5 C 25,0 C 30,9 C 62 % 48 % 1024,9 hPa 0,0 l/m 9,7 km/h (2 Bft) O-SO 112 13,2 C 25,0 C 15,5 km/h (3 Bft)
17.06.2019 13:02 21,6 C 25,3 C 30,5 C 63 % 47 % 1024,9 hPa 0,0 l/m 9,7 km/h (2 Bft) S-SO 157 13,2 C 25,3 C 12,1 km/h (2 Bft)
17.06.2019 13:01 21,6 C 25,3 C 30,5 C 63 % 47 % 1024,9 hPa 0,0 l/m 9,7 km/h (2 Bft) S-SO 157 13,2 C 25,3 C 12,1 km/h (2 Bft)
17.06.2019 13:00 21,6 C 25,6 C 30,6 C 62 % 48 % 1024,9 hPa 0,0 l/m 10,6 km/h (2 Bft) N 360 13,8 C 25,6 C 12,8 km/h (3 Bft)
17.06.2019 12:59 21,6 C 25,6 C 30,6 C 62 % 48 % 1024,9 hPa 0,0 l/m 10,6 km/h (2 Bft) N 360 13,8 C 25,6 C 12,8 km/h (3 Bft)
17.06.2019 12:58 21,6 C 24,6 C 29,9 C 62 % 48 % 1024,9 hPa 0,0 l/m 10,3 km/h (2 Bft) O-SO 112 12,8 C 24,6 C 11,3 km/h (2 Bft)
17.06.2019 12:57 21,6 C 24,6 C 29,9 C 62 % 48 % 1024,9 hPa 0,0 l/m 10,3 km/h (2 Bft) O-SO 112 12,8 C 24,6 C 11,3 km/h (2 Bft)
17.06.2019 12:56 21,6 C 24,7 C 30,4 C 62 % 48 % 1024,9 hPa 0,0 l/m 10,0 km/h (2 Bft) O-SO 112 12,9 C 24,7 C 18,2 km/h (3 Bft)
17.06.2019 12:55 21,6 C 24,7 C 30,4 C 62 % 48 % 1024,9 hPa 0,0 l/m 10,0 km/h (2 Bft) O-SO 112 12,9 C 24,7 C 18,2 km/h (3 Bft)
17.06.2019 12:54 21,6 C 24,8 C 30,5 C 62 % 48 % 1025,1 hPa 0,0 l/m 8,9 km/h (2 Bft) SW 225 13,0 C 24,8 C 12,8 km/h (3 Bft)
17.06.2019 12:53 21,6 C 24,8 C 30,5 C 62 % 48 % 1025,1 hPa 0,0 l/m 8,9 km/h (2 Bft) SW 225 13,0 C 24,8 C 12,8 km/h (3 Bft)
17.06.2019 12:52 21,6 C 25,1 C 30,7 C 62 % 48 % 1025,1 hPa 0,0 l/m 8,2 km/h (2 Bft) SO 135 13,3 C 25,1 C 14,2 km/h (3 Bft)
17.06.2019 12:51 21,6 C 25,1 C 30,7 C 62 % 48 % 1025,1 hPa 0,0 l/m 8,2 km/h (2 Bft) SO 135 13,3 C 25,1 C 14,2 km/h (3 Bft)
17.06.2019 12:50 21,6 C 25,4 C 32,1 C 62 % 49 % 1025,1 hPa 0,0 l/m 7,2 km/h (2 Bft) O-SO 112 13,9 C 25,4 C 20,3 km/h (4 Bft)
17.06.2019 12:49 21,6 C 25,4 C 32,1 C 62 % 49 % 1025,1 hPa 0,0 l/m 7,2 km/h (2 Bft) O-SO 112 13,9 C 25,4 C 20,3 km/h (4 Bft)
17.06.2019 12:48 21,6 C 25,8 C 32,3 C 62 % 48 % 1025,1 hPa 0,0 l/m 7,2 km/h (2 Bft) S 180 13,9 C 25,8 C 9,2 km/h (2 Bft)
17.06.2019 12:47 21,6 C 25,8 C 32,3 C 62 % 48 % 1025,1 hPa 0,0 l/m 7,2 km/h (2 Bft) S 180 13,9 C 25,8 C 9,2 km/h (2 Bft)
17.06.2019 12:46 21,6 C 25,5 C 31,6 C 62 % 49 % 1025,1 hPa 0,0 l/m 6,6 km/h (2 Bft) O-SO 112 14,0 C 25,5 C 15,3 km/h (3 Bft)
17.06.2019 12:45 21,6 C 25,5 C 31,6 C 62 % 49 % 1025,1 hPa 0,0 l/m 6,6 km/h (2 Bft) O-SO 112 14,0 C 25,5 C 15,3 km/h (3 Bft)
17.06.2019 12:44 21,6 C 25,0 C 30,4 C 62 % 47 % 1025,1 hPa 0,0 l/m 6,8 km/h (2 Bft) O-NO 67 12,9 C 25,0 C 8,2 km/h (2 Bft)
17.06.2019 12:43 21,6 C 25,0 C 30,4 C 62 % 47 % 1025,1 hPa 0,0 l/m 6,8 km/h (2 Bft) O-NO 67 12,9 C 25,0 C 8,2 km/h (2 Bft)
17.06.2019 12:42 21,6 C 25,7 C 30,0 C 62 % 48 % 1025,1 hPa 0,0 l/m 7,2 km/h (2 Bft) O-SO 112 13,9 C 25,7 C 19,2 km/h (3 Bft)
17.06.2019 12:41 21,6 C 25,7 C 30,0 C 62 % 48 % 1025,1 hPa 0,0 l/m 7,2 km/h (2 Bft) O-SO 112 13,9 C 25,7 C 19,2 km/h (3 Bft)
17.06.2019 12:40 21,6 C 25,7 C 30,0 C 62 % 49 % 1025,1 hPa 0,0 l/m 8,4 km/h (2 Bft) O-SO 112 14,2 C 25,7 C 12,6 km/h (3 Bft)
17.06.2019 12:39 21,6 C 25,7 C 30,0 C 62 % 49 % 1025,1 hPa 0,0 l/m 8,4 km/h (2 Bft) O-SO 112 14,2 C 25,7 C 12,6 km/h (3 Bft)
17.06.2019 12:38 21,6 C 25,1 C 29,3 C 62 % 48 % 1025,1 hPa 0,0 l/m 7,4 km/h (2 Bft) O-NO 67 13,3 C 25,1 C 11,9 km/h (2 Bft)
17.06.2019 12:37 21,6 C 25,1 C 29,3 C 62 % 48 % 1025,1 hPa 0,0 l/m 7,4 km/h (2 Bft) O-NO 67 13,3 C 25,1 C 11,9 km/h (2 Bft)
17.06.2019 12:36 21,6 C 25,2 C 29,2 C 62 % 46 % 1025,1 hPa 0,0 l/m 7,2 km/h (2 Bft) N-NO 22 12,7 C 25,2 C 12,6 km/h (3 Bft)
17.06.2019 12:35 21,6 C 25,2 C 29,2 C 62 % 46 % 1025,1 hPa 0,0 l/m 7,2 km/h (2 Bft) N-NO 22 12,7 C 25,2 C 12,6 km/h (3 Bft)
17.06.2019 12:34 21,7 C 25,4 C 29,3 C 62 % 48 % 1025,4 hPa 0,0 l/m 7,4 km/h (2 Bft) O-SO 112 13,6 C 25,4 C 15,9 km/h (3 Bft)
17.06.2019 12:33 21,7 C 25,4 C 29,3 C 62 % 48 % 1025,4 hPa 0,0 l/m 7,4 km/h (2 Bft) O-SO 112 13,6 C 25,4 C 15,9 km/h (3 Bft)
17.06.2019 12:32 21,6 C 25,1 C 28,9 C 62 % 50 % 1025,4 hPa 0,0 l/m 7,6 km/h (2 Bft) O-NO 67 13,9 C 25,1 C 25,7 km/h (4 Bft)
17.06.2019 12:31 21,6 C 25,1 C 28,9 C 62 % 50 % 1025,4 hPa 0,0 l/m 7,6 km/h (2 Bft) O-NO 67 13,9 C 25,1 C 18,6 km/h (3 Bft)
17.06.2019 12:30 21,6 C 24,1 C 27,0 C 62 % 51 % 1025,4 hPa 0,0 l/m 7,2 km/h (2 Bft) SO 135 13,3 C 24,1 C 16,3 km/h (3 Bft)
17.06.2019 12:29 21,6 C 24,1 C 27,0 C 62 % 51 % 1025,4 hPa 0,0 l/m 7,2 km/h (2 Bft) SO 135 13,3 C 24,1 C 16,3 km/h (3 Bft)
17.06.2019 12:28 21,7 C 24,2 C 26,2 C 62 % 48 % 1025,4 hPa 0,0 l/m 7,4 km/h (2 Bft) O 90 12,5 C 24,2 C 5,0 km/h (1 Bft)
17.06.2019 12:27 21,7 C 24,2 C 26,2 C 62 % 48 % 1025,4 hPa 0,0 l/m 7,4 km/h (2 Bft) O 90 12,5 C 24,2 C 5,0 km/h (1 Bft)
17.06.2019 12:26 21,7 C 24,7 C 27,9 C 61 % 49 % 1025,4 hPa 0,0 l/m 7,7 km/h (2 Bft) O-SO 112 13,3 C 24,7 C 8,2 km/h (2 Bft)
17.06.2019 12:25 21,7 C 24,7 C 27,9 C 61 % 49 % 1025,4 hPa 0,0 l/m 7,7 km/h (2 Bft) O-SO 112 13,3 C 24,7 C 8,2 km/h (2 Bft)
17.06.2019 12:24 21,6 C 24,5 C 28,7 C 62 % 50 % 1025,4 hPa 0,0 l/m 8,9 km/h (2 Bft) S-SO 157 13,4 C 24,5 C 11,7 km/h (2 Bft)
17.06.2019 12:23 21,6 C 24,5 C 28,7 C 62 % 50 % 1025,4 hPa 0,0 l/m 8,9 km/h (2 Bft) S-SO 157 13,4 C 24,5 C 11,7 km/h (2 Bft)
17.06.2019 12:22 21,6 C 24,2 C 28,2 C 62 % 50 % 1025,4 hPa 0,0 l/m 8,0 km/h (2 Bft) O-SO 112 13,1 C 24,2 C 16,5 km/h (3 Bft)
17.06.2019 12:21 21,6 C 24,2 C 28,2 C 62 % 50 % 1025,4 hPa 0,0 l/m 8,0 km/h (2 Bft) O-SO 112 13,1 C 24,2 C 16,5 km/h (3 Bft)
17.06.2019 12:20 21,6 C 24,1 C 27,9 C 62 % 50 % 1025,4 hPa 0,0 l/m 7,6 km/h (2 Bft) SO 135 13,0 C 24,1 C 13,0 km/h (3 Bft)
17.06.2019 12:19 21,6 C 24,1 C 27,9 C 62 % 50 % 1025,4 hPa 0,0 l/m 7,6 km/h (2 Bft) SO 135 13,0 C 24,1 C 13,0 km/h (3 Bft)
17.06.2019 12:18 21,6 C 24,1 C 27,9 C 62 % 49 % 1025,4 hPa 0,0 l/m 7,1 km/h (2 Bft) SO 135 12,7 C 24,1 C 5,0 km/h (1 Bft)
17.06.2019 12:17 21,6 C 24,1 C 27,9 C 62 % 49 % 1025,4 hPa 0,0 l/m 7,1 km/h (2 Bft) SO 135 12,7 C 24,1 C 5,0 km/h (1 Bft)
17.06.2019 12:16 21,6 C 24,8 C 29,6 C 62 % 49 % 1025,4 hPa 0,0 l/m 6,8 km/h (2 Bft) SO 135 13,3 C 24,8 C 17,8 km/h (3 Bft)
17.06.2019 12:15 21,6 C 24,8 C 29,6 C 62 % 49 % 1025,4 hPa 0,0 l/m 6,8 km/h (2 Bft) SO 135 13,3 C 24,8 C 17,8 km/h (3 Bft)
17.06.2019 12:14 21,6 C 25,5 C 30,9 C 62 % 50 % 1025,1 hPa 0,0 l/m 5,6 km/h (1 Bft) O-SO 112 14,3 C 25,5 C 14,9 km/h (3 Bft)
17.06.2019 12:13 21,6 C 25,5 C 30,9 C 62 % 50 % 1025,1 hPa 0,0 l/m 5,6 km/h (1 Bft) O-SO 112 14,3 C 25,5 C 14,9 km/h (3 Bft)
17.06.2019 12:12 21,6 C 25,7 C 30,6 C 62 % 49 % 1025,1 hPa 0,0 l/m 4,8 km/h (1 Bft) SO 135 14,2 C 25,7 C 10,9 km/h (2 Bft)
17.06.2019 12:11 21,6 C 25,7 C 30,6 C 62 % 49 % 1025,1 hPa 0,0 l/m 4,8 km/h (1 Bft) SO 135 14,2 C 25,7 C 10,9 km/h (2 Bft)
17.06.2019 12:10 21,6 C 25,1 C 30,1 C 62 % 50 % 1025,1 hPa 0,0 l/m 4,8 km/h (1 Bft) SO 135 13,9 C 25,1 C 5,9 km/h (2 Bft)
17.06.2019 12:09 21,6 C 25,1 C 30,1 C 62 % 50 % 1025,1 hPa 0,0 l/m 4,8 km/h (1 Bft) SO 135 13,9 C 25,1 C 5,9 km/h (2 Bft)
17.06.2019 12:08 21,5 C 24,7 C 28,9 C 62 % 50 % 1025,1 hPa 0,0 l/m 5,0 km/h (1 Bft) O-SO 112 13,6 C 24,7 C 14,6 km/h (3 Bft)
17.06.2019 12:07 21,5 C 24,7 C 28,9 C 62 % 50 % 1025,1 hPa 0,0 l/m 5,0 km/h (1 Bft) O-SO 112 13,6 C 24,7 C 14,6 km/h (3 Bft)
17.06.2019 12:06 21,5 C 23,8 C 26,9 C 62 % 53 % 1025,1 hPa 0,0 l/m 5,3 km/h (1 Bft) O-SO 112 13,6 C 23,8 C 9,4 km/h (2 Bft)
17.06.2019 12:05 21,5 C 23,8 C 26,9 C 62 % 53 % 1025,1 hPa 0,0 l/m 5,3 km/h (1 Bft) O-SO 112 13,6 C 23,8 C 9,4 km/h (2 Bft)
17.06.2019 12:04 21,5 C 24,8 C 29,0 C 62 % 51 % 1025,1 hPa 0,0 l/m 5,8 km/h (2 Bft) S-SO 157 14,0 C 24,8 C 10,7 km/h (2 Bft)
17.06.2019 12:03 21,5 C 24,8 C 29,0 C 62 % 51 % 1025,1 hPa 0,0 l/m 5,8 km/h (2 Bft) S-SO 157 14,0 C 24,8 C 10,7 km/h (2 Bft)
17.06.2019 12:02 21,4 C 24,8 C 29,2 C 62 % 51 % 1025,1 hPa 0,0 l/m 5,5 km/h (1 Bft) S-SO 157 14,0 C 24,8 C 15,7 km/h (3 Bft)
17.06.2019 12:01 21,4 C 24,8 C 29,2 C 62 % 51 % 1025,1 hPa 0,0 l/m 5,5 km/h (1 Bft) S-SO 157 14,0 C 24,8 C 15,7 km/h (3 Bft)
17.06.2019 12:00 21,4 C 24,6 C 28,7 C 62 % 52 % 1025,1 hPa 0,0 l/m 5,3 km/h (1 Bft) N-NO 22 14,1 C 24,6 C 8,4 km/h (2 Bft)
17.06.2019 11:59 21,4 C 24,6 C 28,7 C 62 % 52 % 1025,1 hPa 0,0 l/m 5,3 km/h (1 Bft) N-NO 22 14,1 C 24,6 C 8,4 km/h (2 Bft)
17.06.2019 11:58 21,4 C 24,0 C 27,1 C 62 % 50 % 1025,1 hPa 0,0 l/m 5,1 km/h (1 Bft) N-NW 337 12,9 C 24,0 C 9,0 km/h (2 Bft)
17.06.2019 11:57 21,4 C 24,0 C 27,1 C 62 % 50 % 1025,1 hPa 0,0 l/m 5,1 km/h (1 Bft) N-NW 337 12,9 C 24,0 C 9,0 km/h (2 Bft)
17.06.2019 11:56 21,4 C 23,5 C 25,8 C 62 % 51 % 1025,1 hPa 0,0 l/m 5,1 km/h (1 Bft) O-SO 112 12,8 C 23,5 C 8,2 km/h (2 Bft)
17.06.2019 11:55 21,4 C 23,5 C 25,8 C 62 % 51 % 1025,1 hPa 0,0 l/m 5,1 km/h (1 Bft) O-SO 112 12,8 C 23,5 C 8,2 km/h (2 Bft)
17.06.2019 11:54 21,4 C 23,5 C 24,5 C 62 % 51 % 1025,2 hPa 0,0 l/m 5,6 km/h (1 Bft) N-NO 22 12,8 C 23,5 C 7,9 km/h (2 Bft)
17.06.2019 11:53 21,4 C 23,5 C 24,5 C 62 % 51 % 1025,2 hPa 0,0 l/m 5,6 km/h (1 Bft) N-NO 22 12,8 C 23,5 C 7,9 km/h (2 Bft)
17.06.2019 11:52 21,4 C 23,5 C 24,9 C 63 % 51 % 1025,2 hPa 0,0 l/m 6,0 km/h (2 Bft) N 360 12,8 C 23,5 C 3,3 km/h (1 Bft)
17.06.2019 11:51 21,4 C 23,5 C 24,9 C 63 % 51 % 1025,2 hPa 0,0 l/m 6,0 km/h (2 Bft) N 360 12,8 C 23,5 C 3,3 km/h (1 Bft)
17.06.2019 11:50 21,4 C 23,9 C 26,0 C 63 % 51 % 1025,2 hPa 0,0 l/m 6,8 km/h (2 Bft) O 90 13,1 C 23,9 C 6,7 km/h (2 Bft)
17.06.2019 11:49 21,4 C 23,9 C 26,0 C 63 % 51 % 1025,2 hPa 0,0 l/m 6,8 km/h (2 Bft) O 90 13,1 C 23,9 C 6,7 km/h (2 Bft)
17.06.2019 11:48 21,4 C 24,1 C 26,1 C 63 % 50 % 1025,2 hPa 0,0 l/m 6,9 km/h (2 Bft) O-NO 67 13,0 C 24,1 C 5,2 km/h (1 Bft)
17.06.2019 11:47 21,4 C 24,1 C 26,1 C 63 % 50 % 1025,2 hPa 0,0 l/m 6,9 km/h (2 Bft) O-NO 67 13,0 C 24,1 C 5,2 km/h (1 Bft)
17.06.2019 11:46 21,4 C 23,4 C 25,2 C 63 % 51 % 1025,2 hPa 0,0 l/m 6,4 km/h (2 Bft) O-SO 112 12,7 C 23,4 C 8,8 km/h (2 Bft)
17.06.2019 11:45 21,4 C 23,4 C 25,2 C 63 % 51 % 1025,2 hPa 0,0 l/m 6,4 km/h (2 Bft) O-SO 112 12,7 C 23,4 C 8,8 km/h (2 Bft)
17.06.2019 11:44 21,2 C 23,5 C 24,0 C 63 % 51 % 1025,2 hPa 0,0 l/m 6,1 km/h (2 Bft) O-SO 112 12,8 C 23,5 C 12,3 km/h (3 Bft)
17.06.2019 11:43 21,2 C 23,5 C 24,0 C 63 % 51 % 1025,2 hPa 0,0 l/m 6,1 km/h (2 Bft) O-SO 112 12,8 C 23,5 C 12,3 km/h (3 Bft)
17.06.2019 11:42 21,2 C 23,7 C 24,5 C 63 % 50 % 1025,2 hPa 0,0 l/m 5,8 km/h (2 Bft) NO 45 12,6 C 23,7 C 11,3 km/h (2 Bft)
17.06.2019 11:41 21,2 C 23,7 C 24,5 C 63 % 50 % 1025,2 hPa 0,0 l/m 5,8 km/h (2 Bft) NO 45 12,6 C 23,7 C 11,3 km/h (2 Bft)
17.06.2019 11:40 21,2 C 24,3 C 25,9 C 63 % 50 % 1025,2 hPa 0,0 l/m 5,6 km/h (1 Bft) N-NO 22 13,2 C 24,3 C 7,9 km/h (2 Bft)
17.06.2019 11:39 21,2 C 24,3 C 25,9 C 63 % 50 % 1025,2 hPa 0,0 l/m 5,6 km/h (1 Bft) N-NO 22 13,2 C 24,3 C 7,9 km/h (2 Bft)
17.06.2019 11:38 21,2 C 24,3 C 26,4 C 63 % 51 % 1025,2 hPa 0,0 l/m 5,5 km/h (1 Bft) N-NO 22 13,5 C 24,3 C 9,4 km/h (2 Bft)
17.06.2019 11:37 21,2 C 24,3 C 26,4 C 63 % 51 % 1025,2 hPa 0,0 l/m 5,5 km/h (1 Bft) N-NO 22 13,5 C 24,3 C 9,4 km/h (2 Bft)
17.06.2019 11:36 21,3 C 23,5 C 26,1 C 63 % 50 % 1025,2 hPa 0,0 l/m 6,0 km/h (2 Bft) O-SO 112 12,5 C 23,5 C 4,8 km/h (1 Bft)
17.06.2019 11:35 21,3 C 23,5 C 26,1 C 63 % 50 % 1025,2 hPa 0,0 l/m 6,0 km/h (2 Bft) O-SO 112 12,5 C 23,5 C 4,8 km/h (1 Bft)
17.06.2019 11:34 21,3 C 23,6 C 25,5 C 64 % 50 % 1025,3 hPa 0,0 l/m 7,1 km/h (2 Bft) O-SO 112 12,6 C 23,6 C 9,0 km/h (2 Bft)
17.06.2019 11:33 21,3 C 23,6 C 25,5 C 64 % 50 % 1025,3 hPa 0,0 l/m 7,1 km/h (2 Bft) O-SO 112 12,6 C 23,6 C 9,0 km/h (2 Bft)
17.06.2019 11:32 21,2 C 23,6 C 24,7 C 64 % 50 % 1025,3 hPa 0,0 l/m 7,2 km/h (2 Bft) N 360 12,6 C 23,6 C 24,9 km/h (4 Bft)
17.06.2019 11:31 21,2 C 23,6 C 24,7 C 64 % 50 % 1025,3 hPa 0,0 l/m 7,2 km/h (2 Bft) N 360 12,6 C 23,6 C 11,1 km/h (2 Bft)
17.06.2019 11:30 21,2 C 23,4 C 24,4 C 64 % 52 % 1025,3 hPa 0,0 l/m 7,7 km/h (2 Bft) O-SO 112 13,0 C 23,4 C 9,2 km/h (2 Bft)
17.06.2019 11:29 21,2 C 23,4 C 24,4 C 64 % 52 % 1025,3 hPa 0,0 l/m 7,7 km/h (2 Bft) O-SO 112 13,0 C 23,4 C 9,2 km/h (2 Bft)
17.06.2019 11:28 21,2 C 22,9 C 23,6 C 64 % 55 % 1025,3 hPa 0,0 l/m 8,5 km/h (2 Bft) N-NO 22 13,4 C 22,9 C 2,9 km/h (1 Bft)
17.06.2019 11:27 21,2 C 22,9 C 23,6 C 64 % 55 % 1025,3 hPa 0,0 l/m 8,5 km/h (2 Bft) N-NO 22 13,4 C 22,9 C 2,9 km/h (1 Bft)
17.06.2019 11:26 21,2 C 23,3 C 24,0 C 64 % 53 % 1025,3 hPa 0,0 l/m 9,0 km/h (2 Bft) S-SW 202 13,2 C 23,3 C 24,9 km/h (4 Bft)
17.06.2019 11:25 21,2 C 23,3 C 24,0 C 64 % 53 % 1025,3 hPa 0,0 l/m 9,0 km/h (2 Bft) S-SW 202 13,2 C 23,3 C 24,9 km/h (4 Bft)
17.06.2019 11:24 21,2 C 23,5 C 24,4 C 64 % 53 % 1025,3 hPa 0,0 l/m 8,9 km/h (2 Bft) O 90 13,4 C 23,5 C 14,9 km/h (3 Bft)
17.06.2019 11:23 21,2 C 23,5 C 24,4 C 64 % 53 % 1025,3 hPa 0,0 l/m 8,9 km/h (2 Bft) O 90 13,4 C 23,5 C 14,9 km/h (3 Bft)
17.06.2019 11:22 21,2 C 23,6 C 24,8 C 64 % 52 % 1025,3 hPa 0,0 l/m 8,0 km/h (2 Bft) S-SO 157 13,2 C 23,6 C 12,3 km/h (3 Bft)
17.06.2019 11:21 21,2 C 23,6 C 24,8 C 64 % 52 % 1025,3 hPa 0,0 l/m 8,0 km/h (2 Bft) S-SO 157 13,2 C 23,6 C 12,3 km/h (3 Bft)
17.06.2019 11:20 21,1 C 23,8 C 24,1 C 64 % 54 % 1025,3 hPa 0,0 l/m 8,0 km/h (2 Bft) O-SO 112 13,9 C 23,8 C 16,1 km/h (3 Bft)
17.06.2019 11:19 21,1 C 23,8 C 24,1 C 64 % 54 % 1025,3 hPa 0,0 l/m 8,0 km/h (2 Bft) O-SO 112 13,9 C 23,8 C 16,1 km/h (3 Bft)
17.06.2019 11:18 21,1 C 22,7 C 23,7 C 64 % 55 % 1025,3 hPa 0,0 l/m 7,6 km/h (2 Bft) O-SO 112 13,2 C 22,7 C 15,1 km/h (3 Bft)
17.06.2019 11:17 21,1 C 22,7 C 23,7 C 64 % 55 % 1025,3 hPa 0,0 l/m 7,6 km/h (2 Bft) O-SO 112 13,2 C 22,7 C 15,1 km/h (3 Bft)
17.06.2019 11:16 21,1 C 22,8 C 23,2 C 64 % 53 % 1025,3 hPa 0,0 l/m 8,2 km/h (2 Bft) SO 135 12,7 C 22,8 C 12,1 km/h (2 Bft)
17.06.2019 11:15 21,1 C 22,8 C 23,2 C 64 % 53 % 1025,3 hPa 0,0 l/m 8,2 km/h (2 Bft) SO 135 12,7 C 22,8 C 12,1 km/h (2 Bft)
17.06.2019 11:14 21,1 C 23,2 C 24,0 C 65 % 53 % 1025,2 hPa 0,0 l/m 8,0 km/h (2 Bft) O 90 13,1 C 23,2 C 11,3 km/h (2 Bft)
17.06.2019 11:13 21,1 C 23,2 C 24,0 C 65 % 53 % 1025,2 hPa 0,0 l/m 8,0 km/h (2 Bft) O 90 13,1 C 23,2 C 11,3 km/h (2 Bft)
17.06.2019 11:12 21,1 C 23,6 C 24,4 C 65 % 52 % 1025,2 hPa 0,0 l/m 8,2 km/h (2 Bft) O-SO 112 13,2 C 23,6 C 19,2 km/h (3 Bft)
17.06.2019 11:11 21,1 C 23,6 C 24,4 C 65 % 52 % 1025,2 hPa 0,0 l/m 8,2 km/h (2 Bft) O-SO 112 13,2 C 23,6 C 9,0 km/h (2 Bft)
17.06.2019 11:10 21,1 C 23,8 C 24,5 C 65 % 53 % 1025,2 hPa 0,0 l/m 7,1 km/h (2 Bft) SO 135 13,6 C 23,8 C 13,6 km/h (3 Bft)
17.06.2019 11:09 21,1 C 23,8 C 24,5 C 65 % 53 % 1025,2 hPa 0,0 l/m 7,1 km/h (2 Bft) SO 135 13,6 C 23,8 C 13,6 km/h (3 Bft)
17.06.2019 11:08 21,1 C 23,3 C 24,2 C 65 % 52 % 1025,2 hPa 0,0 l/m 6,8 km/h (2 Bft) O 90 12,9 C 23,3 C 14,9 km/h (3 Bft)
17.06.2019 11:07 21,1 C 23,3 C 24,2 C 65 % 52 % 1025,2 hPa 0,0 l/m 6,8 km/h (2 Bft) O 90 12,9 C 23,3 C 14,9 km/h (3 Bft)
17.06.2019 11:06 21,0 C 23,2 C 24,1 C 65 % 55 % 1025,2 hPa 0,0 l/m 6,3 km/h (2 Bft) O 90 13,6 C 23,2 C 15,9 km/h (3 Bft)
17.06.2019 11:05 21,0 C 23,2 C 24,1 C 65 % 55 % 1025,2 hPa 0,0 l/m 6,3 km/h (2 Bft) O 90 13,6 C 23,2 C 15,9 km/h (3 Bft)
17.06.2019 11:04 21,0 C 22,6 C 22,8 C 65 % 56 % 1025,2 hPa 0,0 l/m 5,8 km/h (2 Bft) SO 135 13,4 C 22,6 C 9,0 km/h (2 Bft)
17.06.2019 11:03 21,0 C 22,6 C 22,8 C 65 % 56 % 1025,2 hPa 0,0 l/m 5,8 km/h (2 Bft) SO 135 13,4 C 22,6 C 9,0 km/h (2 Bft)
17.06.2019 11:02 21,0 C 22,7 C 23,1 C 65 % 57 % 1025,2 hPa 0,0 l/m 5,5 km/h (1 Bft) O-SO 112 13,7 C 22,7 C 10,5 km/h (2 Bft)
17.06.2019 11:01 21,0 C 22,7 C 23,1 C 65 % 57 % 1025,2 hPa 0,0 l/m 5,5 km/h (1 Bft) O-SO 112 13,7 C 22,7 C 10,5 km/h (2 Bft)
17.06.2019 11:00 21,0 C 23,0 C 23,5 C 65 % 57 % 1025,2 hPa 0,0 l/m 5,0 km/h (1 Bft) O-SO 112 14,0 C 23,0 C 4,2 km/h (1 Bft)
17.06.2019 10:59 21,0 C 23,0 C 23,5 C 65 % 57 % 1025,2 hPa 0,0 l/m 5,0 km/h (1 Bft) O-SO 112 14,0 C 23,0 C 4,2 km/h (1 Bft)
17.06.2019 10:58 21,0 C 22,7 C 23,6 C 66 % 57 % 1025,2 hPa 0,0 l/m 5,1 km/h (1 Bft) O-SO 112 13,7 C 22,7 C 5,6 km/h (1 Bft)
17.06.2019 10:57 21,0 C 22,7 C 23,6 C 66 % 57 % 1025,2 hPa 0,0 l/m 5,1 km/h (1 Bft) O-SO 112 13,7 C 22,7 C 5,6 km/h (1 Bft)
17.06.2019 10:56 21,0 C 23,1 C 23,2 C 66 % 54 % 1025,2 hPa 0,0 l/m 4,8 km/h (1 Bft) O 90 13,3 C 23,1 C 10,3 km/h (2 Bft)
17.06.2019 10:55 21,0 C 23,1 C 23,2 C 66 % 54 % 1025,2 hPa 0,0 l/m 4,8 km/h (1 Bft) O 90 13,3 C 23,1 C 10,3 km/h (2 Bft)
17.06.2019 10:54 21,0 C 23,4 C 23,5 C 66 % 56 % 1025,4 hPa 0,0 l/m 4,3 km/h (1 Bft) O-SO 112 14,1 C 23,4 C 8,2 km/h (2 Bft)
17.06.2019 10:53 21,0 C 23,4 C 23,5 C 66 % 56 % 1025,4 hPa 0,0 l/m 4,3 km/h (1 Bft) O-SO 112 14,1 C 23,4 C 8,2 km/h (2 Bft)
17.06.2019 10:52 21,0 C 22,4 C 23,0 C 66 % 59 % 1025,4 hPa 0,0 l/m 4,5 km/h (1 Bft) O-SO 112 14,0 C 22,4 C 5,6 km/h (1 Bft)
17.06.2019 10:51 21,0 C 22,4 C 23,0 C 66 % 59 % 1025,4 hPa 0,0 l/m 4,5 km/h (1 Bft) O-SO 112 14,0 C 22,4 C 5,6 km/h (1 Bft)
17.06.2019 10:50 21,0 C 22,1 C 22,3 C 66 % 58 % 1025,4 hPa 0,0 l/m 5,1 km/h (1 Bft) O-SO 112 13,4 C 22,1 C 5,4 km/h (1 Bft)
17.06.2019 10:49 21,0 C 22,1 C 22,3 C 66 % 58 % 1025,4 hPa 0,0 l/m 5,1 km/h (1 Bft) O-SO 112 13,4 C 22,1 C 5,4 km/h (1 Bft)
17.06.2019 10:48 21,0 C 22,8 C 22,5 C 66 % 60 % 1025,4 hPa 0,0 l/m 6,0 km/h (2 Bft) S-SO 157 14,6 C 22,8 C 3,6 km/h (1 Bft)
17.06.2019 10:47 21,0 C 22,8 C 22,5 C 66 % 60 % 1025,4 hPa 0,0 l/m 6,0 km/h (2 Bft) S-SO 157 14,6 C 22,8 C 3,6 km/h (1 Bft)
17.06.2019 10:46 20,9 C 22,8 C 22,8 C 66 % 58 % 1025,4 hPa 0,0 l/m 6,8 km/h (2 Bft) O 90 14,1 C 22,8 C 4,8 km/h (1 Bft)
17.06.2019 10:45 20,9 C 22,8 C 22,8 C 66 % 58 % 1025,4 hPa 0,0 l/m 6,8 km/h (2 Bft) O 90 14,1 C 22,8 C 4,8 km/h (1 Bft)
17.06.2019 10:44 20,9 C 22,7 C 22,7 C 66 % 57 % 1025,4 hPa 0,0 l/m 7,2 km/h (2 Bft) S-SO 157 13,7 C 22,7 C 9,0 km/h (2 Bft)
17.06.2019 10:43 20,9 C 22,7 C 22,7 C 66 % 57 % 1025,4 hPa 0,0 l/m 7,2 km/h (2 Bft) S-SO 157 13,7 C 22,7 C 9,0 km/h (2 Bft)
17.06.2019 10:42 21,0 C 22,2 C 22,1 C 66 % 58 % 1025,4 hPa 0,0 l/m 7,1 km/h (2 Bft) O 90 13,5 C 22,2 C 10,3 km/h (2 Bft)
17.06.2019 10:41 21,0 C 22,2 C 22,1 C 66 % 58 % 1025,4 hPa 0,0 l/m 7,1 km/h (2 Bft) O 90 13,5 C 22,2 C 10,3 km/h (2 Bft)
17.06.2019 10:40 20,9 C 22,3 C 21,9 C 66 % 57 % 1025,4 hPa 0,0 l/m 6,8 km/h (2 Bft) SO 135 13,4 C 22,3 C 9,2 km/h (2 Bft)
17.06.2019 10:39 20,9 C 22,3 C 21,9 C 66 % 57 % 1025,4 hPa 0,0 l/m 6,8 km/h (2 Bft) SO 135 13,4 C 22,3 C 9,2 km/h (2 Bft)
17.06.2019 10:38 20,9 C 23,0 C 22,5 C 66 % 56 % 1025,4 hPa 0,0 l/m 6,8 km/h (2 Bft) O-SO 112 13,7 C 23,0 C 10,9 km/h (2 Bft)
17.06.2019 10:37 20,9 C 23,0 C 22,5 C 66 % 56 % 1025,4 hPa 0,0 l/m 6,8 km/h (2 Bft) O-SO 112 13,7 C 23,0 C 10,9 km/h (2 Bft)
17.06.2019 10:36 20,9 C 22,8 C 22,9 C 66 % 58 % 1025,4 hPa 0,0 l/m 6,6 km/h (2 Bft) O 90 14,1 C 22,8 C 11,9 km/h (2 Bft)
17.06.2019 10:35 20,9 C 22,8 C 22,9 C 66 % 58 % 1025,4 hPa 0,0 l/m 6,6 km/h (2 Bft) O 90 14,1 C 22,8 C 11,9 km/h (2 Bft)
17.06.2019 10:34 20,9 C 22,7 C 22,7 C 66 % 58 % 1025,3 hPa 0,0 l/m 6,3 km/h (2 Bft) S-SO 157 14,0 C 22,7 C 13,0 km/h (3 Bft)
17.06.2019 10:33 20,9 C 22,7 C 22,7 C 66 % 58 % 1025,3 hPa 0,0 l/m 6,3 km/h (2 Bft) S-SO 157 14,0 C 22,7 C 13,0 km/h (3 Bft)
17.06.2019 10:32 20,9 C 22,7 C 22,5 C 66 % 57 % 1025,3 hPa 0,0 l/m 5,6 km/h (1 Bft) O-SO 112 13,7 C 22,7 C 9,8 km/h (2 Bft)
17.06.2019 10:31 20,9 C 22,7 C 22,5 C 66 % 57 % 1025,3 hPa 0,0 l/m 5,6 km/h (1 Bft) O-SO 112 13,7 C 22,7 C 9,8 km/h (2 Bft)
17.06.2019 10:30 20,8 C 23,5 C 23,1 C 66 % 56 % 1025,3 hPa 0,0 l/m 5,5 km/h (1 Bft) SO 135 14,2 C 23,5 C 7,1 km/h (2 Bft)
17.06.2019 10:29 20,8 C 23,5 C 23,1 C 66 % 56 % 1025,3 hPa 0,0 l/m 5,5 km/h (1 Bft) SO 135 14,2 C 23,5 C 7,1 km/h (2 Bft)
17.06.2019 10:28 20,8 C 23,2 C 22,9 C 66 % 58 % 1025,3 hPa 0,0 l/m 4,7 km/h (1 Bft) O 90 14,5 C 23,2 C 9,4 km/h (2 Bft)
17.06.2019 10:27 20,8 C 23,2 C 22,9 C 66 % 58 % 1025,3 hPa 0,0 l/m 4,7 km/h (1 Bft) O 90 14,5 C 23,2 C 9,4 km/h (2 Bft)
17.06.2019 10:26 20,8 C 23,0 C 22,7 C 66 % 58 % 1025,3 hPa 0,0 l/m 4,8 km/h (1 Bft) S-SO 157 14,3 C 23,0 C 11,7 km/h (2 Bft)
17.06.2019 10:25 20,8 C 23,0 C 22,7 C 66 % 58 % 1025,3 hPa 0,0 l/m 4,8 km/h (1 Bft) S-SO 157 14,3 C 23,0 C 11,7 km/h (2 Bft)
17.06.2019 10:24 20,8 C 23,1 C 22,9 C 66 % 58 % 1025,3 hPa 0,0 l/m 5,3 km/h (1 Bft) O-SO 112 14,4 C 23,1 C 9,0 km/h (2 Bft)
17.06.2019 10:23 20,8 C 23,1 C 22,9 C 66 % 58 % 1025,3 hPa 0,0 l/m 5,3 km/h (1 Bft) O-SO 112 14,4 C 23,1 C 9,0 km/h (2 Bft)
17.06.2019 10:22 20,8 C 22,7 C 22,4 C 66 % 57 % 1025,3 hPa 0,0 l/m 5,0 km/h (1 Bft) S-SO 157 13,7 C 22,7 C 5,2 km/h (1 Bft)
17.06.2019 10:21 20,8 C 22,7 C 22,4 C 66 % 57 % 1025,3 hPa 0,0 l/m 5,0 km/h (1 Bft) S-SO 157 13,7 C 22,7 C 5,2 km/h (1 Bft)
17.06.2019 10:20 20,8 C 22,5 C 21,7 C 66 % 59 % 1025,3 hPa 0,0 l/m 4,8 km/h (1 Bft) O 90 14,1 C 22,5 C 7,9 km/h (2 Bft)
17.06.2019 10:19 20,8 C 22,5 C 21,7 C 66 % 59 % 1025,3 hPa 0,0 l/m 4,8 km/h (1 Bft) O 90 14,1 C 22,5 C 7,9 km/h (2 Bft)
17.06.2019 10:18 20,8 C 22,6 C 21,9 C 66 % 57 % 1025,3 hPa 0,0 l/m 5,1 km/h (1 Bft) SO 135 13,6 C 22,6 C 3,3 km/h (1 Bft)
17.06.2019 10:17 20,8 C 22,6 C 21,9 C 66 % 57 % 1025,3 hPa 0,0 l/m 5,1 km/h (1 Bft) SO 135 13,6 C 22,6 C 3,3 km/h (1 Bft)
17.06.2019 10:16 20,8 C 22,5 C 22,1 C 66 % 57 % 1025,3 hPa 0,0 l/m 5,8 km/h (2 Bft) O 90 13,5 C 22,5 C 11,3 km/h (2 Bft)
17.06.2019 10:15 20,8 C 22,5 C 22,1 C 66 % 57 % 1025,3 hPa 0,0 l/m 5,8 km/h (2 Bft) O 90 13,5 C 22,5 C 11,3 km/h (2 Bft)
17.06.2019 10:14 20,8 C 22,5 C 22,3 C 67 % 57 % 1025,4 hPa 0,0 l/m 5,6 km/h (1 Bft) S-SO 157 13,5 C 22,5 C 10,7 km/h (2 Bft)
17.06.2019 10:13 20,8 C 22,5 C 22,3 C 67 % 57 % 1025,4 hPa 0,0 l/m 5,6 km/h (1 Bft) S-SO 157 13,5 C 22,5 C 10,7 km/h (2 Bft)
17.06.2019 10:12 20,8 C 22,6 C 22,2 C 67 % 58 % 1025,4 hPa 0,0 l/m 5,1 km/h (1 Bft) SO 135 13,9 C 22,6 C 2,5 km/h (1 Bft)
17.06.2019 10:11 20,8 C 22,6 C 22,2 C 67 % 58 % 1025,4 hPa 0,0 l/m 5,1 km/h (1 Bft) SO 135 13,9 C 22,6 C 2,5 km/h (1 Bft)
17.06.2019 10:10 20,7 C 22,4 C 22,0 C 67 % 58 % 1025,4 hPa 0,0 l/m 6,3 km/h (2 Bft) N-NO 22 13,7 C 22,4 C 9,4 km/h (2 Bft)
17.06.2019 10:09 20,7 C 22,4 C 22,0 C 67 % 58 % 1025,4 hPa 0,0 l/m 6,3 km/h (2 Bft) N-NO 22 13,7 C 22,4 C 9,4 km/h (2 Bft)
17.06.2019 10:08 20,7 C 22,4 C 21,9 C 67 % 59 % 1025,4 hPa 0,0 l/m 6,3 km/h (2 Bft) SO 135 14,0 C 22,4 C 10,7 km/h (2 Bft)
17.06.2019 10:07 20,7 C 22,4 C 21,9 C 67 % 59 % 1025,4 hPa 0,0 l/m 6,3 km/h (2 Bft) SO 135 14,0 C 22,4 C 10,7 km/h (2 Bft)
17.06.2019 10:06 20,8 C 22,2 C 21,9 C 67 % 58 % 1025,4 hPa 0,0 l/m 5,5 km/h (1 Bft) S-SO 157 13,5 C 22,2 C 8,2 km/h (2 Bft)
17.06.2019 10:05 20,8 C 22,2 C 21,9 C 67 % 58 % 1025,4 hPa 0,0 l/m 5,5 km/h (1 Bft) S-SO 157 13,5 C 22,2 C 8,2 km/h (2 Bft)
17.06.2019 10:04 20,7 C 22,7 C 21,9 C 68 % 58 % 1025,4 hPa 0,0 l/m 4,7 km/h (1 Bft) S-SO 157 14,0 C 22,7 C 11,9 km/h (2 Bft)
17.06.2019 10:03 20,7 C 22,7 C 21,9 C 68 % 58 % 1025,4 hPa 0,0 l/m 4,7 km/h (1 Bft) S-SO 157 14,0 C 22,7 C 11,9 km/h (2 Bft)
17.06.2019 10:02 20,7 C 22,3 C 21,8 C 68 % 58 % 1025,4 hPa 0,0 l/m 4,8 km/h (1 Bft) S-SO 157 13,6 C 22,3 C 8,2 km/h (2 Bft)
17.06.2019 10:01 20,7 C 22,3 C 21,8 C 68 % 58 % 1025,4 hPa 0,0 l/m 4,8 km/h (1 Bft) S-SO 157 13,6 C 22,3 C 8,2 km/h (2 Bft)
17.06.2019 10:00 20,6 C 22,4 C 21,9 C 68 % 60 % 1025,4 hPa 0,0 l/m 4,3 km/h (1 Bft) S-SO 157 14,2 C 22,4 C 10,3 km/h (2 Bft)
17.06.2019 09:59 20,6 C 22,4 C 21,9 C 68 % 60 % 1025,4 hPa 0,0 l/m 4,3 km/h (1 Bft) S-SO 157 14,2 C 22,4 C 10,3 km/h (2 Bft)
17.06.2019 09:58 20,6 C 22,7 C 22,0 C 68 % 60 % 1025,4 hPa 0,0 l/m 4,0 km/h (1 Bft) S-SO 157 14,5 C 22,7 C 12,8 km/h (3 Bft)
17.06.2019 09:57 20,6 C 22,7 C 22,0 C 68 % 60 % 1025,4 hPa 0,0 l/m 4,0 km/h (1 Bft) S-SO 157 14,5 C 22,7 C 12,8 km/h (3 Bft)
17.06.2019 09:56 20,6 C 22,6 C 22,0 C 68 % 60 % 1025,4 hPa 0,0 l/m 5,0 km/h (1 Bft) O-SO 112 14,4 C 22,6 C 7,1 km/h (2 Bft)
17.06.2019 09:55 20,6 C 22,6 C 22,0 C 68 % 60 % 1025,4 hPa 0,0 l/m 5,0 km/h (1 Bft) O-SO 112 14,4 C 22,6 C 7,1 km/h (2 Bft)
17.06.2019 09:54 20,6 C 22,4 C 22,0 C 68 % 59 % 1025,4 hPa 0,0 l/m 5,6 km/h (1 Bft) N-NO 22 14,0 C 22,4 C 7,1 km/h (2 Bft)
17.06.2019 09:53 20,6 C 22,4 C 22,0 C 68 % 59 % 1025,4 hPa 0,0 l/m 5,6 km/h (1 Bft) N-NO 22 14,0 C 22,4 C 7,1 km/h (2 Bft)
17.06.2019 09:52 20,6 C 22,4 C 21,9 C 68 % 58 % 1025,4 hPa 0,0 l/m 5,8 km/h (2 Bft) W 270 13,7 C 22,4 C 7,9 km/h (2 Bft)
17.06.2019 09:51 20,6 C 22,4 C 21,9 C 68 % 58 % 1025,4 hPa 0,0 l/m 5,8 km/h (2 Bft) W 270 13,7 C 22,4 C 7,9 km/h (2 Bft)
17.06.2019 09:50 20,5 C 22,3 C 21,8 C 69 % 56 % 1025,4 hPa 0,0 l/m 6,1 km/h (2 Bft) O 90 13,1 C 22,3 C 7,3 km/h (2 Bft)
17.06.2019 09:49 20,5 C 22,3 C 21,8 C 69 % 56 % 1025,4 hPa 0,0 l/m 6,1 km/h (2 Bft) O 90 13,1 C 22,3 C 7,3 km/h (2 Bft)
17.06.2019 09:48 20,5 C 22,4 C 21,7 C 69 % 58 % 1025,4 hPa 0,0 l/m 6,1 km/h (2 Bft) O-NO 67 13,7 C 22,4 C 4,2 km/h (1 Bft)
17.06.2019 09:47 20,5 C 22,4 C 21,7 C 69 % 58 % 1025,4 hPa 0,0 l/m 6,1 km/h (2 Bft) O-NO 67 13,7 C 22,4 C 4,2 km/h (1 Bft)
17.06.2019 09:46 20,5 C 22,5 C 21,7 C 69 % 57 % 1025,4 hPa 0,0 l/m 6,3 km/h (2 Bft) O-NO 67 13,5 C 22,5 C 15,1 km/h (3 Bft)
17.06.2019 09:45 20,5 C 22,5 C 21,7 C 69 % 57 % 1025,4 hPa 0,0 l/m 6,3 km/h (2 Bft) O-NO 67 13,5 C 22,5 C 15,1 km/h (3 Bft)
17.06.2019 09:44 20,5 C 22,2 C 21,6 C 70 % 53 % 1025,4 hPa 0,0 l/m 6,0 km/h (2 Bft) O-SO 112 12,2 C 22,2 C 9,6 km/h (2 Bft)
17.06.2019 09:43 20,5 C 22,2 C 21,6 C 70 % 53 % 1025,4 hPa 0,0 l/m 6,0 km/h (2 Bft) O-SO 112 12,2 C 22,2 C 9,6 km/h (2 Bft)
17.06.2019 09:42 20,4 C 22,3 C 21,7 C 70 % 60 % 1025,4 hPa 0,0 l/m 5,5 km/h (1 Bft) S-SW 202 14,2 C 22,3 C 17,6 km/h (3 Bft)
17.06.2019 09:41 20,4 C 22,3 C 21,7 C 70 % 60 % 1025,4 hPa 0,0 l/m 5,5 km/h (1 Bft) S-SW 202 14,2 C 22,3 C 9,6 km/h (2 Bft)
17.06.2019 09:40 20,4 C 22,2 C 21,8 C 70 % 63 % 1025,4 hPa 0,0 l/m 5,3 km/h (1 Bft) O-NO 67 14,8 C 22,2 C 6,5 km/h (2 Bft)
17.06.2019 09:39 20,4 C 22,2 C 21,8 C 70 % 63 % 1025,4 hPa 0,0 l/m 5,3 km/h (1 Bft) O-NO 67 14,8 C 22,2 C 6,5 km/h (2 Bft)
17.06.2019 09:38 20,4 C 22,0 C 21,6 C 70 % 63 % 1025,4 hPa 0,0 l/m 5,5 km/h (1 Bft) NO 45 14,6 C 22,0 C 8,6 km/h (2 Bft)
17.06.2019 09:37 20,4 C 22,0 C 21,6 C 70 % 63 % 1025,4 hPa 0,0 l/m 5,5 km/h (1 Bft) NO 45 14,6 C 22,0 C 8,6 km/h (2 Bft)
17.06.2019 09:36 20,4 C 21,7 C 21,4 C 70 % 62 % 1025,4 hPa 0,0 l/m 5,1 km/h (1 Bft) NO 45 14,1 C 21,7 C 12,6 km/h (3 Bft)
17.06.2019 09:35 20,4 C 21,7 C 21,4 C 70 % 62 % 1025,4 hPa 0,0 l/m 5,1 km/h (1 Bft) NO 45 14,1 C 21,7 C 12,6 km/h (3 Bft)
17.06.2019 09:34 20,4 C 21,9 C 21,5 C 70 % 62 % 1025,5 hPa 0,0 l/m 4,5 km/h (1 Bft) O-NO 67 14,3 C 21,9 C 8,4 km/h (2 Bft)
17.06.2019 09:33 20,4 C 21,9 C 21,5 C 70 % 62 % 1025,5 hPa 0,0 l/m 4,5 km/h (1 Bft) O-NO 67 14,3 C 21,9 C 8,4 km/h (2 Bft)
17.06.2019 09:32 20,4 C 22,0 C 21,5 C 70 % 62 % 1025,5 hPa 0,0 l/m 4,2 km/h (1 Bft) O-NO 67 14,4 C 22,0 C 6,9 km/h (2 Bft)
17.06.2019 09:31 20,4 C 22,0 C 21,5 C 70 % 62 % 1025,5 hPa 0,0 l/m 4,2 km/h (1 Bft) O-NO 67 14,4 C 22,0 C 6,9 km/h (2 Bft)
17.06.2019 09:30 20,4 C 22,0 C 21,5 C 70 % 62 % 1025,5 hPa 0,0 l/m 3,7 km/h (1 Bft) O-NO 67 14,4 C 22,0 C 9,4 km/h (2 Bft)
17.06.2019 09:29 20,4 C 22,0 C 21,5 C 70 % 62 % 1025,5 hPa 0,0 l/m 3,7 km/h (1 Bft) O-NO 67 14,4 C 22,0 C 9,4 km/h (2 Bft)
17.06.2019 09:28 20,4 C 21,9 C 21,4 C 70 % 63 % 1025,5 hPa 0,0 l/m 3,9 km/h (1 Bft) NO 45 14,5 C 21,9 C 10,5 km/h (2 Bft)
17.06.2019 09:27 20,4 C 21,9 C 21,4 C 70 % 63 % 1025,5 hPa 0,0 l/m 3,9 km/h (1 Bft) NO 45 14,5 C 21,9 C 10,5 km/h (2 Bft)
17.06.2019 09:26 20,2 C 21,5 C 21,3 C 70 % 63 % 1025,5 hPa 0,0 l/m 4,0 km/h (1 Bft) O-NO 67 14,2 C 21,5 C 0,0 km/h (0 Bft)
17.06.2019 09:25 20,2 C 21,5 C 21,3 C 70 % 63 % 1025,5 hPa 0,0 l/m 4,0 km/h (1 Bft) O-NO 67 14,2 C 21,5 C 0,0 km/h (0 Bft)
17.06.2019 09:24 20,3 C 21,6 C 21,2 C 70 % 65 % 1025,5 hPa 0,0 l/m 4,5 km/h (1 Bft) N-NW 337 14,7 C 21,6 C 6,5 km/h (2 Bft)
17.06.2019 09:23 20,3 C 21,6 C 21,2 C 70 % 65 % 1025,5 hPa 0,0 l/m 4,5 km/h (1 Bft) N-NW 337 14,7 C 21,6 C 6,5 km/h (2 Bft)
17.06.2019 09:22 20,3 C 21,7 C 21,1 C 71 % 66 % 1025,5 hPa 0,0 l/m 4,7 km/h (1 Bft) N-NO 22 15,1 C 21,7 C 11,3 km/h (2 Bft)
17.06.2019 09:21 20,3 C 21,7 C 21,1 C 71 % 66 % 1025,5 hPa 0,0 l/m 4,7 km/h (1 Bft) N-NO 22 15,1 C 21,7 C 7,7 km/h (2 Bft)
17.06.2019 09:20 20,3 C 21,4 C 21,0 C 71 % 63 % 1025,5 hPa 0,0 l/m 4,3 km/h (1 Bft) N-NO 22 14,1 C 21,4 C 5,0 km/h (1 Bft)
17.06.2019 09:19 20,3 C 21,4 C 21,0 C 71 % 63 % 1025,5 hPa 0,0 l/m 4,3 km/h (1 Bft) N-NO 22 14,1 C 21,4 C 5,0 km/h (1 Bft)
17.06.2019 09:18 20,2 C 21,7 C 20,9 C 71 % 67 % 1025,5 hPa 0,0 l/m 4,0 km/h (1 Bft) SO 135 15,3 C 21,7 C 8,6 km/h (2 Bft)
17.06.2019 09:17 20,2 C 21,7 C 20,9 C 71 % 67 % 1025,5 hPa 0,0 l/m 4,0 km/h (1 Bft) SO 135 15,3 C 21,7 C 8,6 km/h (2 Bft)
17.06.2019 09:16 20,2 C 21,5 C 20,7 C 71 % 68 % 1025,5 hPa 0,0 l/m 3,7 km/h (1 Bft) O-NO 67 15,3 C 21,5 C 8,6 km/h (2 Bft)
17.06.2019 09:15 20,2 C 21,5 C 20,7 C 71 % 68 % 1025,5 hPa 0,0 l/m 3,7 km/h (1 Bft) O-NO 67 15,3 C 21,5 C 8,6 km/h (2 Bft)
17.06.2019 09:14 20,2 C 21,4 C 20,7 C 71 % 68 % 1025,3 hPa 0,0 l/m 2,7 km/h (1 Bft) O-SO 112 15,2 C 21,4 C 5,2 km/h (1 Bft)
17.06.2019 09:13 20,2 C 21,4 C 20,7 C 71 % 68 % 1025,3 hPa 0,0 l/m 2,7 km/h (1 Bft) O-SO 112 15,2 C 21,4 C 5,2 km/h (1 Bft)
17.06.2019 09:12 20,2 C 21,2 C 20,6 C 71 % 68 % 1025,3 hPa 0,0 l/m 2,6 km/h (1 Bft) O-SO 112 15,1 C 21,2 C 6,5 km/h (2 Bft)
17.06.2019 09:11 20,2 C 21,2 C 20,6 C 71 % 68 % 1025,3 hPa 0,0 l/m 2,6 km/h (1 Bft) O-SO 112 15,1 C 21,2 C 6,5 km/h (2 Bft)
17.06.2019 09:10 20,1 C 20,8 C 20,5 C 71 % 68 % 1025,3 hPa 0,0 l/m 2,6 km/h (1 Bft) N-NO 22 14,7 C 20,8 C 4,0 km/h (1 Bft)
17.06.2019 09:09 20,1 C 20,8 C 20,5 C 71 % 68 % 1025,3 hPa 0,0 l/m 2,6 km/h (1 Bft) N-NO 22 14,7 C 20,8 C 4,0 km/h (1 Bft)
17.06.2019 09:08 20,1 C 21,1 C 20,4 C 71 % 68 % 1025,3 hPa 0,0 l/m 2,9 km/h (1 Bft) N-NW 337 15,0 C 21,1 C 5,0 km/h (1 Bft)
17.06.2019 09:07 20,1 C 21,1 C 20,4 C 71 % 68 % 1025,3 hPa 0,0 l/m 2,9 km/h (1 Bft) N-NW 337 15,0 C 21,1 C 5,0 km/h (1 Bft)
17.06.2019 09:06 20,1 C 21,1 C 20,3 C 71 % 69 % 1025,3 hPa 0,0 l/m 2,7 km/h (1 Bft) N-NO 22 15,2 C 21,1 C 5,9 km/h (2 Bft)
17.06.2019 09:05 20,1 C 21,1 C 20,3 C 71 % 69 % 1025,3 hPa 0,0 l/m 2,7 km/h (1 Bft) N-NO 22 15,2 C 21,1 C 5,9 km/h (2 Bft)
17.06.2019 09:04 20,1 C 20,8 C 20,1 C 71 % 69 % 1025,3 hPa 0,0 l/m 3,2 km/h (1 Bft) O-SO 112 14,9 C 20,8 C 0,0 km/h (0 Bft)
17.06.2019 09:03 20,1 C 20,8 C 20,1 C 71 % 69 % 1025,3 hPa 0,0 l/m 3,2 km/h (1 Bft) O-SO 112 14,9 C 20,8 C 0,0 km/h (0 Bft)
17.06.2019 09:02 20,0 C 20,9 C 20,0 C 71 % 70 % 1025,3 hPa 0,0 l/m 3,7 km/h (1 Bft) W-NW 292 15,2 C 20,9 C 10,5 km/h (2 Bft)
17.06.2019 09:01 20,0 C 20,9 C 20,0 C 71 % 70 % 1025,3 hPa 0,0 l/m 3,7 km/h (1 Bft) W-NW 292 15,2 C 20,9 C 2,3 km/h (1 Bft)
17.06.2019 09:00 20,0 C 20,8 C 19,8 C 71 % 71 % 1025,3 hPa 0,0 l/m 3,7 km/h (1 Bft) O 90 15,3 C 20,8 C 5,6 km/h (1 Bft)
17.06.2019 08:59 20,0 C 20,8 C 19,8 C 71 % 71 % 1025,3 hPa 0,0 l/m 3,7 km/h (1 Bft) O 90 15,3 C 20,8 C 5,6 km/h (1 Bft)
17.06.2019 08:58 20,0 C 20,5 C 19,6 C 71 % 70 % 1025,3 hPa 0,0 l/m 3,9 km/h (1 Bft) O 90 14,8 C 20,5 C 4,2 km/h (1 Bft)
17.06.2019 08:57 20,0 C 20,5 C 19,6 C 71 % 70 % 1025,3 hPa 0,0 l/m 3,9 km/h (1 Bft) O 90 14,8 C 20,5 C 4,2 km/h (1 Bft)
17.06.2019 08:56 20,0 C 20,5 C 19,5 C 71 % 70 % 1025,3 hPa 0,0 l/m 3,9 km/h (1 Bft) O-SO 112 14,8 C 20,5 C 3,8 km/h (1 Bft)
17.06.2019 08:55 20,0 C 20,5 C 19,5 C 71 % 70 % 1025,3 hPa 0,0 l/m 3,9 km/h (1 Bft) O-SO 112 14,8 C 20,5 C 3,8 km/h (1 Bft)
17.06.2019 08:54 20,0 C 20,5 C 19,5 C 72 % 70 % 1025,6 hPa 0,0 l/m 3,5 km/h (1 Bft) O-SO 112 14,8 C 20,5 C 10,5 km/h (2 Bft)
17.06.2019 08:53 20,0 C 20,5 C 19,5 C 72 % 70 % 1025,6 hPa 0,0 l/m 3,5 km/h (1 Bft) O-SO 112 14,8 C 20,5 C 10,5 km/h (2 Bft)
17.06.2019 08:52 20,0 C 20,6 C 19,6 C 72 % 70 % 1025,6 hPa 0,0 l/m 3,2 km/h (1 Bft) S-SO 157 14,9 C 20,6 C 4,8 km/h (1 Bft)
17.06.2019 08:51 20,0 C 20,6 C 19,6 C 72 % 70 % 1025,6 hPa 0,0 l/m 3,2 km/h (1 Bft) S-SO 157 14,9 C 20,6 C 4,8 km/h (1 Bft)
17.06.2019 08:50 20,0 C 20,7 C 19,7 C 72 % 70 % 1025,6 hPa 0,0 l/m 3,7 km/h (1 Bft) O-SO 112 15,0 C 20,7 C 4,0 km/h (1 Bft)
17.06.2019 08:49 20,0 C 20,7 C 19,7 C 72 % 70 % 1025,6 hPa 0,0 l/m 3,7 km/h (1 Bft) O-SO 112 15,0 C 20,7 C 4,0 km/h (1 Bft)
17.06.2019 08:48 20,0 C 20,9 C 19,6 C 72 % 71 % 1025,6 hPa 0,0 l/m 3,7 km/h (1 Bft) O-NO 67 15,4 C 20,9 C 4,0 km/h (1 Bft)
17.06.2019 08:47 20,0 C 20,9 C 19,6 C 72 % 71 % 1025,6 hPa 0,0 l/m 3,7 km/h (1 Bft) O-NO 67 15,4 C 20,9 C 4,0 km/h (1 Bft)
17.06.2019 08:46 19,9 C 20,6 C 19,5 C 72 % 71 % 1025,6 hPa 0,0 l/m 3,9 km/h (1 Bft) O-SO 112 15,2 C 20,6 C 5,9 km/h (2 Bft)
17.06.2019 08:45 19,9 C 20,6 C 19,5 C 72 % 71 % 1025,6 hPa 0,0 l/m 3,9 km/h (1 Bft) O-SO 112 15,2 C 20,6 C 5,9 km/h (2 Bft)
17.06.2019 08:44 19,9 C 21,0 C 19,7 C 72 % 71 % 1025,6 hPa 0,0 l/m 4,2 km/h (1 Bft) O 90 15,5 C 21,0 C 5,0 km/h (1 Bft)
17.06.2019 08:43 19,9 C 21,0 C 19,7 C 72 % 71 % 1025,6 hPa 0,0 l/m 4,2 km/h (1 Bft) O 90 15,5 C 21,0 C 5,0 km/h (1 Bft)
17.06.2019 08:42 19,9 C 20,6 C 19,7 C 72 % 72 % 1025,6 hPa 0,0 l/m 4,7 km/h (1 Bft) O-SO 112 15,4 C 20,6 C 9,2 km/h (2 Bft)
17.06.2019 08:41 19,9 C 20,6 C 19,7 C 72 % 72 % 1025,6 hPa 0,0 l/m 4,7 km/h (1 Bft) O-SO 112 15,4 C 20,6 C 6,5 km/h (2 Bft)
17.06.2019 08:40 19,9 C 20,5 C 19,4 C 72 % 73 % 1025,6 hPa 0,0 l/m 4,0 km/h (1 Bft) O-SO 112 15,5 C 20,5 C 9,0 km/h (2 Bft)
17.06.2019 08:39 19,9 C 20,5 C 19,4 C 72 % 73 % 1025,6 hPa 0,0 l/m 4,0 km/h (1 Bft) O-SO 112 15,5 C 20,5 C 9,0 km/h (2 Bft)
17.06.2019 08:38 19,8 C 20,4 C 19,4 C 72 % 73 % 1025,6 hPa 0,0 l/m 3,4 km/h (1 Bft) S-SO 157 15,4 C 20,4 C 5,0 km/h (1 Bft)
17.06.2019 08:37 19,8 C 20,4 C 19,4 C 72 % 73 % 1025,6 hPa 0,0 l/m 3,4 km/h (1 Bft) S-SO 157 15,4 C 20,4 C 5,0 km/h (1 Bft)
17.06.2019 08:36 19,9 C 20,2 C 19,2 C 72 % 74 % 1025,6 hPa 0,0 l/m 3,4 km/h (1 Bft) SO 135 15,4 C 20,2 C 9,2 km/h (2 Bft)
17.06.2019 08:35 19,9 C 20,2 C 19,2 C 72 % 74 % 1025,6 hPa 0,0 l/m 3,4 km/h (1 Bft) SO 135 15,4 C 20,2 C 9,2 km/h (2 Bft)
17.06.2019 08:34 19,8 C 20,0 C 19,1 C 72 % 75 % 1025,6 hPa 0,0 l/m 3,2 km/h (1 Bft) SO 135 15,4 C 20,0 C 5,9 km/h (2 Bft)
17.06.2019 08:33 19,8 C 20,0 C 19,1 C 72 % 75 % 1025,6 hPa 0,0 l/m 3,2 km/h (1 Bft) SO 135 15,4 C 20,0 C 5,9 km/h (2 Bft)
17.06.2019 08:32 19,8 C 19,8 C 18,9 C 72 % 75 % 1025,6 hPa 0,0 l/m 3,1 km/h (1 Bft) S-SO 157 15,2 C 19,8 C 5,0 km/h (1 Bft)
17.06.2019 08:31 19,8 C 19,8 C 18,9 C 72 % 75 % 1025,6 hPa 0,0 l/m 3,1 km/h (1 Bft) S-SO 157 15,2 C 19,8 C 5,0 km/h (1 Bft)
17.06.2019 08:30 19,8 C 20,1 C 19,0 C 73 % 74 % 1025,6 hPa 0,0 l/m 3,2 km/h (1 Bft) S-SO 157 15,3 C 20,1 C 3,1 km/h (1 Bft)
17.06.2019 08:29 19,8 C 20,1 C 19,0 C 73 % 74 % 1025,6 hPa 0,0 l/m 3,2 km/h (1 Bft) S-SO 157 15,3 C 20,1 C 3,1 km/h (1 Bft)
17.06.2019 08:28 19,8 C 20,1 C 19,0 C 73 % 74 % 1025,6 hPa 0,0 l/m 3,4 km/h (1 Bft) S-SO 157 15,3 C 20,1 C 4,4 km/h (1 Bft)
17.06.2019 08:27 19,8 C 20,1 C 19,0 C 73 % 74 % 1025,6 hPa 0,0 l/m 3,4 km/h (1 Bft) S-SO 157 15,3 C 20,1 C 4,4 km/h (1 Bft)
17.06.2019 08:26 19,7 C 20,2 C 18,9 C 72 % 74 % 1025,6 hPa 0,0 l/m 3,4 km/h (1 Bft) S-SO 157 15,4 C 20,2 C 5,2 km/h (1 Bft)
17.06.2019 08:25 19,7 C 20,2 C 18,9 C 72 % 74 % 1025,6 hPa 0,0 l/m 3,4 km/h (1 Bft) S-SO 157 15,4 C 20,2 C 5,2 km/h (1 Bft)
17.06.2019 08:24 19,8 C 20,1 C 18,9 C 73 % 74 % 1025,6 hPa 0,0 l/m 2,9 km/h (1 Bft) O-SO 112 15,3 C 20,1 C 6,1 km/h (2 Bft)
17.06.2019 08:23 19,8 C 20,1 C 18,9 C 73 % 74 % 1025,6 hPa 0,0 l/m 2,9 km/h (1 Bft) O-SO 112 15,3 C 20,1 C 6,1 km/h (2 Bft)
17.06.2019 08:22 19,7 C 20,1 C 18,9 C 72 % 75 % 1025,6 hPa 0,0 l/m 1,9 km/h (1 Bft) SO 135 15,5 C 20,1 C 7,3 km/h (2 Bft)
17.06.2019 08:21 19,7 C 20,1 C 18,9 C 72 % 75 % 1025,6 hPa 0,0 l/m 1,9 km/h (1 Bft) SO 135 15,5 C 20,1 C 6,5 km/h (2 Bft)
17.06.2019 08:20 19,7 C 20,2 C 18,8 C 72 % 75 % 1025,6 hPa 0,0 l/m 1,4 km/h (1 Bft) O-SO 112 15,6 C 20,2 C 4,4 km/h (1 Bft)
17.06.2019 08:19 19,7 C 20,2 C 18,8 C 72 % 75 % 1025,6 hPa 0,0 l/m 1,4 km/h (1 Bft) O-SO 112 15,6 C 20,2 C 4,4 km/h (1 Bft)
17.06.2019 08:18 19,7 C 19,9 C 18,5 C 73 % 76 % 1025,6 hPa 0,0 l/m 1,3 km/h (1 Bft) O-NO 67 15,5 C 19,9 C 5,0 km/h (1 Bft)
17.06.2019 08:17 19,7 C 19,9 C 18,5 C 73 % 76 % 1025,6 hPa 0,0 l/m 1,3 km/h (1 Bft) O-NO 67 15,5 C 19,9 C 5,0 km/h (1 Bft)
17.06.2019 08:16 19,7 C 19,8 C 18,3 C 72 % 76 % 1025,6 hPa 0,0 l/m 1,1 km/h (1 Bft) S-SO 157 15,4 C 19,8 C 0,0 km/h (0 Bft)
17.06.2019 08:15 19,7 C 19,8 C 18,3 C 72 % 76 % 1025,6 hPa 0,0 l/m 1,1 km/h (1 Bft) S-SO 157 15,4 C 19,8 C 0,0 km/h (0 Bft)
17.06.2019 08:14 19,7 C 19,9 C 18,3 C 73 % 77 % 1025,2 hPa 0,0 l/m 1,4 km/h (1 Bft) O-SO 112 15,7 C 19,9 C 0,0 km/h (0 Bft)
17.06.2019 08:13 19,7 C 19,9 C 18,3 C 73 % 77 % 1025,2 hPa 0,0 l/m 1,4 km/h (1 Bft) O-SO 112 15,7 C 19,9 C 0,0 km/h (0 Bft)
17.06.2019 08:12 19,6 C 19,8 C 18,2 C 73 % 77 % 1025,2 hPa 0,0 l/m 1,8 km/h (1 Bft) O-SO 112 15,6 C 19,8 C 0,0 km/h (0 Bft)
17.06.2019 08:11 19,6 C 19,8 C 18,2 C 73 % 77 % 1025,2 hPa 0,0 l/m 1,8 km/h (1 Bft) O-SO 112 15,6 C 19,8 C 0,0 km/h (0 Bft)
17.06.2019 08:10 19,6 C 19,9 C 18,1 C 73 % 77 % 1025,2 hPa 0,0 l/m 2,3 km/h (1 Bft) O-SO 112 15,7 C 19,9 C 2,3 km/h (1 Bft)
17.06.2019 08:09 19,6 C 19,9 C 18,1 C 73 % 77 % 1025,2 hPa 0,0 l/m 2,3 km/h (1 Bft) O-SO 112 15,7 C 19,9 C 2,3 km/h (1 Bft)
17.06.2019 08:08 19,6 C 20,0 C 18,5 C 73 % 77 % 1025,2 hPa 0,0 l/m 2,4 km/h (1 Bft) O 90 15,8 C 20,0 C 2,9 km/h (1 Bft)
17.06.2019 08:07 19,6 C 20,0 C 18,5 C 73 % 77 % 1025,2 hPa 0,0 l/m 2,4 km/h (1 Bft) O 90 15,8 C 20,0 C 2,9 km/h (1 Bft)
17.06.2019 08:06 19,6 C 19,9 C 18,4 C 73 % 77 % 1025,2 hPa 0,0 l/m 1,9 km/h (1 Bft) SO 135 15,7 C 19,9 C 5,0 km/h (1 Bft)
17.06.2019 08:05 19,6 C 19,9 C 18,4 C 73 % 77 % 1025,2 hPa 0,0 l/m 1,9 km/h (1 Bft) SO 135 15,7 C 19,9 C 5,0 km/h (1 Bft)
17.06.2019 08:04 19,6 C 19,8 C 18,4 C 73 % 78 % 1025,2 hPa 0,0 l/m 1,4 km/h (1 Bft) S-SO 157 15,8 C 19,8 C 2,9 km/h (1 Bft)
17.06.2019 08:03 19,6 C 19,8 C 18,4 C 73 % 78 % 1025,2 hPa 0,0 l/m 1,4 km/h (1 Bft) S-SO 157 15,8 C 19,8 C 2,9 km/h (1 Bft)
17.06.2019 08:02 19,5 C 19,8 C 18,4 C 73 % 78 % 1025,2 hPa 0,0 l/m 1,4 km/h (1 Bft) O-SO 112 15,8 C 19,8 C 4,2 km/h (1 Bft)
17.06.2019 08:01 19,5 C 19,8 C 18,4 C 73 % 78 % 1025,2 hPa 0,0 l/m 1,4 km/h (1 Bft) O-SO 112 15,8 C 19,8 C 4,2 km/h (1 Bft)
17.06.2019 08:00 19,4 C 19,8 C 18,3 C 73 % 78 % 1025,2 hPa 0,0 l/m 1,0 km/h (0 Bft) O-SO 112 15,8 C 19,8 C 5,0 km/h (1 Bft)
17.06.2019 07:59 19,4 C 19,8 C 18,3 C 73 % 78 % 1025,2 hPa 0,0 l/m 1,0 km/h (0 Bft) O-SO 112 15,8 C 19,8 C 5,0 km/h (1 Bft)
17.06.2019 07:58 19,4 C 19,3 C 18,0 C 73 % 78 % 1025,2 hPa 0,0 l/m 0,5 km/h (0 Bft) S-SO 157 15,4 C 19,3 C 3,6 km/h (1 Bft)
17.06.2019 07:57 19,4 C 19,3 C 18,0 C 73 % 78 % 1025,2 hPa 0,0 l/m 0,5 km/h (0 Bft) S-SO 157 15,4 C 19,3 C 3,6 km/h (1 Bft)
17.06.2019 07:56 19,4 C 19,1 C 17,8 C 73 % 78 % 1025,2 hPa 0,0 l/m 0,5 km/h (0 Bft) O-SO 112 15,2 C 19,1 C 3,1 km/h (1 Bft)
17.06.2019 07:55 19,4 C 19,1 C 17,8 C 73 % 78 % 1025,2 hPa 0,0 l/m 0,5 km/h (0 Bft) O-SO 112 15,2 C 19,1 C 3,1 km/h (1 Bft)
17.06.2019 07:54 19,4 C 19,2 C 17,7 C 73 % 79 % 1025,1 hPa 0,0 l/m 0,3 km/h (0 Bft) SO 135 15,5 C 19,2 C 0,0 km/h (0 Bft)
17.06.2019 07:53 19,4 C 19,2 C 17,7 C 73 % 79 % 1025,1 hPa 0,0 l/m 0,3 km/h (0 Bft) SO 135 15,5 C 19,2 C 0,0 km/h (0 Bft)
17.06.2019 07:52 19,4 C 19,3 C 17,9 C 73 % 79 % 1025,1 hPa 0,0 l/m 0,2 km/h (0 Bft) S-SO 157 15,6 C 19,3 C 2,1 km/h (1 Bft)
17.06.2019 07:51 19,4 C 19,3 C 17,9 C 73 % 79 % 1025,1 hPa 0,0 l/m 0,2 km/h (0 Bft) S-SO 157 15,6 C 19,3 C 2,1 km/h (1 Bft)
17.06.2019 07:50 19,2 C 19,2 C 17,5 C 73 % 79 % 1025,1 hPa 0,0 l/m 0,0 km/h (0 Bft) O-SO 112 15,5 C 19,2 C 3,3 km/h (1 Bft)
17.06.2019 07:49 19,2 C 19,2 C 17,5 C 73 % 79 % 1025,1 hPa 0,0 l/m 0,0 km/h (0 Bft) O-SO 112 15,5 C 19,2 C 3,3 km/h (1 Bft)
17.06.2019 07:48 19,3 C 18,9 C 17,5 C 73 % 80 % 1025,1 hPa 0,0 l/m 0,0 km/h (0 Bft) S-SO 157 15,4 C 18,9 C 0,0 km/h (0 Bft)
17.06.2019 07:47 19,3 C 18,9 C 17,5 C 73 % 80 % 1025,1 hPa 0,0 l/m 0,0 km/h (0 Bft) S-SO 157 15,4 C 18,9 C 0,0 km/h (0 Bft)
17.06.2019 07:46 19,2 C 19,2 C 17,6 C 73 % 80 % 1025,1 hPa 0,0 l/m 0,0 km/h (0 Bft) S-SO 157 15,7 C 19,2 C 0,0 km/h (0 Bft)
17.06.2019 07:45 19,2 C 19,2 C 17,6 C 73 % 80 % 1025,1 hPa 0,0 l/m 0,0 km/h (0 Bft) S-SO 157 15,7 C 19,2 C 0,0 km/h (0 Bft)
17.06.2019 07:44 19,2 C 18,9 C 17,3 C 73 % 80 % 1025,1 hPa 0,0 l/m 0,2 km/h (0 Bft) S-SO 157 15,4 C 18,9 C 0,0 km/h (0 Bft)
17.06.2019 07:43 19,2 C 18,9 C 17,3 C 73 % 80 % 1025,1 hPa 0,0 l/m 0,2 km/h (0 Bft) S-SO 157 15,4 C 18,9 C 0,0 km/h (0 Bft)
17.06.2019 07:42 19,2 C 18,8 C 17,3 C 73 % 81 % 1025,1 hPa 0,0 l/m 0,2 km/h (0 Bft) O-SO 112 15,5 C 18,8 C 0,0 km/h (0 Bft)
17.06.2019 07:41 19,2 C 18,8 C 17,3 C 73 % 81 % 1025,1 hPa 0,0 l/m 0,2 km/h (0 Bft) O-SO 112 15,5 C 18,8 C 0,0 km/h (0 Bft)
17.06.2019 07:40 19,2 C 18,8 C 17,0 C 73 % 81 % 1025,1 hPa 0,0 l/m 0,2 km/h (0 Bft) O-SO 112 15,5 C 18,8 C 0,0 km/h (0 Bft)
17.06.2019 07:39 19,2 C 18,8 C 17,0 C 73 % 81 % 1025,1 hPa 0,0 l/m 0,2 km/h (0 Bft) O-SO 112 15,5 C 18,8 C 0,0 km/h (0 Bft)
17.06.2019 07:38 19,2 C 18,7 C 16,8 C 73 % 81 % 1025,1 hPa 0,0 l/m 0,2 km/h (0 Bft) SO 135 15,4 C 18,7 C 0,0 km/h (0 Bft)
17.06.2019 07:37 19,2 C 18,7 C 16,8 C 73 % 81 % 1025,1 hPa 0,0 l/m 0,2 km/h (0 Bft) SO 135 15,4 C 18,7 C 0,0 km/h (0 Bft)
17.06.2019 07:36 19,2 C 18,6 C 16,8 C 73 % 81 % 1025,1 hPa 0,0 l/m 0,2 km/h (0 Bft) O-SO 112 15,3 C 18,6 C 0,0 km/h (0 Bft)
17.06.2019 07:35 19,2 C 18,6 C 16,8 C 73 % 81 % 1025,1 hPa 0,0 l/m 0,2 km/h (0 Bft) O-SO 112 15,3 C 18,6 C 0,0 km/h (0 Bft)
17.06.2019 07:34 19,2 C 18,4 C 16,7 C 73 % 81 % 1025,1 hPa 0,0 l/m 0,0 km/h (0 Bft) O-SO 112 15,1 C 18,4 C 0,0 km/h (0 Bft)
17.06.2019 07:33 19,2 C 18,4 C 16,7 C 73 % 81 % 1025,1 hPa 0,0 l/m 0,0 km/h (0 Bft) O-SO 112 15,1 C 18,4 C 0,0 km/h (0 Bft)
17.06.2019 07:32 19,1 C 18,2 C 16,7 C 73 % 82 % 1025,1 hPa 0,0 l/m 0,0 km/h (0 Bft) SW 225 15,1 C 18,2 C 0,0 km/h (0 Bft)
17.06.2019 07:31 19,1 C 18,2 C 16,7 C 73 % 82 % 1025,1 hPa 0,0 l/m 0,0 km/h (0 Bft) SW 225 15,1 C 18,2 C 0,0 km/h (0 Bft)
17.06.2019 07:30 19,1 C 18,2 C 16,6 C 73 % 82 % 1025,1 hPa 0,0 l/m 0,0 km/h (0 Bft) SW 225 15,1 C 18,2 C 0,0 km/h (0 Bft)
17.06.2019 07:29 19,1 C 18,2 C 16,6 C 73 % 82 % 1025,1 hPa 0,0 l/m 0,0 km/h (0 Bft) SW 225 15,1 C 18,2 C 0,0 km/h (0 Bft)
17.06.2019 07:28 19,1 C 18,1 C 16,6 C 73 % 83 % 1025,1 hPa 0,0 l/m 0,0 km/h (0 Bft) W-SW 247 15,2 C 18,1 C 0,0 km/h (0 Bft)
17.06.2019 07:27 19,1 C 18,1 C 16,6 C 73 % 83 % 1025,1 hPa 0,0 l/m 0,0 km/h (0 Bft) W-SW 247 15,2 C 18,1 C 0,0 km/h (0 Bft)
17.06.2019 07:26 19,0 C 18,0 C 16,5 C 73 % 83 % 1025,1 hPa 0,0 l/m 0,0 km/h (0 Bft) W-SW 247 15,1 C 18,0 C 0,0 km/h (0 Bft)
17.06.2019 07:25 19,0 C 18,0 C 16,5 C 73 % 83 % 1025,1 hPa 0,0 l/m 0,0 km/h (0 Bft) W-SW 247 15,1 C 18,0 C 0,0 km/h (0 Bft)
17.06.2019 07:24 19,0 C 17,7 C 16,5 C 73 % 83 % 1025,1 hPa 0,0 l/m 0,0 km/h (0 Bft) SW 225 14,8 C 17,7 C 0,0 km/h (0 Bft)
17.06.2019 07:23 19,0 C 17,7 C 16,5 C 73 % 83 % 1025,1 hPa 0,0 l/m 0,0 km/h (0 Bft) SW 225 14,8 C 17,7 C 0,0 km/h (0 Bft)
17.06.2019 07:22 19,1 C 17,4 C 16,5 C 73 % 83 % 1025,1 hPa 0,0 l/m 0,0 km/h (0 Bft) W 270 14,5 C 17,4 C 0,0 km/h (0 Bft)
17.06.2019 07:21 19,1 C 17,4 C 16,5 C 73 % 83 % 1025,1 hPa 0,0 l/m 0,0 km/h (0 Bft) W 270 14,5 C 17,4 C 0,0 km/h (0 Bft)
17.06.2019 07:20 19,0 C 17,1 C 16,8 C 73 % 83 % 1025,1 hPa 0,0 l/m 0,0 km/h (0 Bft) W-SW 247 14,2 C 17,1 C 0,0 km/h (0 Bft)
17.06.2019 07:19 19,0 C 17,1 C 16,8 C 73 % 83 % 1025,1 hPa 0,0 l/m 0,0 km/h (0 Bft) W-SW 247 14,2 C 17,1 C 0,0 km/h (0 Bft)
17.06.2019 07:18 19,0 C 16,8 C 16,8 C 73 % 84 % 1025,1 hPa 0,0 l/m 0,0 km/h (0 Bft) W 270 14,1 C 16,8 C 0,0 km/h (0 Bft)
17.06.2019 07:17 19,0 C 16,8 C 16,8 C 73 % 84 % 1025,1 hPa 0,0 l/m 0,0 km/h (0 Bft) W 270 14,1 C 16,8 C 0,0 km/h (0 Bft)
17.06.2019 07:16 19,0 C 16,8 C 16,9 C 73 % 83 % 1025,1 hPa 0,0 l/m 0,0 km/h (0 Bft) W-SW 247 13,9 C 16,8 C 0,0 km/h (0 Bft)
17.06.2019 07:15 19,0 C 16,8 C 16,9 C 73 % 83 % 1025,1 hPa 0,0 l/m 0,0 km/h (0 Bft) W-SW 247 13,9 C 16,8 C 0,0 km/h (0 Bft)
17.06.2019 07:14 19,0 C 16,8 C 16,8 C 73 % 83 % 1024,9 hPa 0,0 l/m 0,0 km/h (0 Bft) W 270 13,9 C 16,8 C 0,0 km/h (0 Bft)
17.06.2019 07:13 19,0 C 16,8 C 16,8 C 73 % 83 % 1024,9 hPa 0,0 l/m 0,0 km/h (0 Bft) W 270 13,9 C 16,8 C 0,0 km/h (0 Bft)
17.06.2019 07:12 18,9 C 16,7 C 16,7 C 73 % 83 % 1024,9 hPa 0,0 l/m 0,0 km/h (0 Bft) W 270 13,8 C 16,7 C 0,0 km/h (0 Bft)
17.06.2019 07:11 18,9 C 16,7 C 16,7 C 73 % 83 % 1024,9 hPa 0,0 l/m 0,0 km/h (0 Bft) W 270 13,8 C 16,7 C 0,0 km/h (0 Bft)
17.06.2019 07:10 18,9 C 16,6 C 16,6 C 73 % 83 % 1024,9 hPa 0,0 l/m 0,0 km/h (0 Bft) S 180 13,7 C 16,6 C 0,0 km/h (0 Bft)
17.06.2019 07:09 18,9 C 16,6 C 16,6 C 73 % 83 % 1024,9 hPa 0,0 l/m 0,0 km/h (0 Bft) S 180 13,7 C 16,6 C 0,0 km/h (0 Bft)
17.06.2019 07:08 18,9 C 16,5 C 16,6 C 73 % 83 % 1024,9 hPa 0,0 l/m 0,0 km/h (0 Bft) S-SO 157 13,6 C 16,5 C 0,0 km/h (0 Bft)
17.06.2019 07:07 18,9 C 16,5 C 16,6 C 73 % 83 % 1024,9 hPa 0,0 l/m 0,0 km/h (0 Bft) S-SO 157 13,6 C 16,5 C 0,0 km/h (0 Bft)
17.06.2019 07:06 19,0 C 16,4 C 16,6 C 73 % 83 % 1024,9 hPa 0,0 l/m 0,0 km/h (0 Bft) SO 135 13,5 C 16,4 C 0,0 km/h (0 Bft)
17.06.2019 07:05 19,0 C 16,4 C 16,6 C 73 % 83 % 1024,9 hPa 0,0 l/m 0,0 km/h (0 Bft) SO 135 13,5 C 16,4 C 0,0 km/h (0 Bft)
17.06.2019 07:04 18,9 C 16,3 C 16,3 C 73 % 83 % 1024,9 hPa 0,0 l/m 0,0 km/h (0 Bft) S-SO 157 13,4 C 16,3 C 0,0 km/h (0 Bft)
17.06.2019 07:03 18,9 C 16,3 C 16,3 C 73 % 83 % 1024,9 hPa 0,0 l/m 0,0 km/h (0 Bft) S-SO 157 13,4 C 16,3 C 0,0 km/h (0 Bft)
17.06.2019 07:02 18,9 C 16,1 C 16,2 C 73 % 83 % 1024,9 hPa 0,0 l/m 0,0 km/h (0 Bft) S-SO 157 13,2 C 16,1 C 0,0 km/h (0 Bft)
17.06.2019 07:01 18,9 C 16,1 C 16,2 C 73 % 83 % 1024,9 hPa 0,0 l/m 0,0 km/h (0 Bft) S-SO 157 13,2 C 16,1 C 0,0 km/h (0 Bft)
17.06.2019 07:00 18,9 C 16,1 C 15,9 C 73 % 83 % 1024,9 hPa 0,0 l/m 0,0 km/h (0 Bft) SO 135 13,2 C 16,1 C 0,0 km/h (0 Bft)
17.06.2019 06:59 18,9 C 16,1 C 15,9 C 73 % 83 % 1024,9 hPa 0,0 l/m 0,0 km/h (0 Bft) SO 135 13,2 C 16,1 C 0,0 km/h (0 Bft)
17.06.2019 06:58 18,9 C 15,9 C 15,8 C 73 % 84 % 1024,9 hPa 0,0 l/m 0,0 km/h (0 Bft) S-SO 157 13,2 C 15,9 C 0,0 km/h (0 Bft)
17.06.2019 06:57 18,9 C 15,9 C 15,8 C 73 % 84 % 1024,9 hPa 0,0 l/m 0,0 km/h (0 Bft) S-SO 157 13,2 C 15,9 C 0,0 km/h (0 Bft)
17.06.2019 06:56 18,9 C 15,9 C 15,5 C 73 % 84 % 1024,9 hPa 0,0 l/m 0,0 km/h (0 Bft) S-SO 157 13,2 C 15,9 C 0,0 km/h (0 Bft)
17.06.2019 06:55 18,9 C 15,9 C 15,5 C 73 % 84 % 1024,9 hPa 0,0 l/m 0,0 km/h (0 Bft) S-SO 157 13,2 C 15,9 C 0,0 km/h (0 Bft)
17.06.2019 06:54 18,8 C 15,9 C 15,4 C 73 % 84 % 1025,0 hPa 0,0 l/m 0,0 km/h (0 Bft) W-SW 247 13,2 C 15,9 C 0,0 km/h (0 Bft)
17.06.2019 06:53 18,8 C 15,9 C 15,4 C 73 % 84 % 1025,0 hPa 0,0 l/m 0,0 km/h (0 Bft) W-SW 247 13,2 C 15,9 C 0,0 km/h (0 Bft)
17.06.2019 06:52 18,8 C 15,7 C 15,3 C 73 % 84 % 1025,0 hPa 0,0 l/m 0,2 km/h (0 Bft) W-SW 247 13,0 C 15,7 C 0,0 km/h (0 Bft)
17.06.2019 06:51 18,8 C 15,7 C 15,3 C 73 % 84 % 1025,0 hPa 0,0 l/m 0,2 km/h (0 Bft) W-SW 247 13,0 C 15,7 C 0,0 km/h (0 Bft)
17.06.2019 06:50 18,8 C 15,6 C 15,2 C 73 % 84 % 1025,0 hPa 0,0 l/m 0,3 km/h (0 Bft) W 270 12,9 C 15,6 C 0,0 km/h (0 Bft)
17.06.2019 06:49 18,8 C 15,6 C 15,2 C 73 % 84 % 1025,0 hPa 0,0 l/m 0,3 km/h (0 Bft) W 270 12,9 C 15,6 C 0,0 km/h (0 Bft)
17.06.2019 06:48 18,8 C 15,6 C 15,2 C 73 % 84 % 1025,0 hPa 0,0 l/m 0,6 km/h (0 Bft) W 270 12,9 C 15,6 C 0,0 km/h (0 Bft)
17.06.2019 06:47 18,8 C 15,6 C 15,2 C 73 % 84 % 1025,0 hPa 0,0 l/m 0,6 km/h (0 Bft) W 270 12,9 C 15,6 C 0,0 km/h (0 Bft)
17.06.2019 06:46 18,8 C 15,5 C 15,2 C 73 % 84 % 1025,0 hPa 0,0 l/m 1,1 km/h (1 Bft) W 270 12,8 C 15,5 C 0,0 km/h (0 Bft)
17.06.2019 06:45 18,8 C 15,5 C 15,2 C 73 % 84 % 1025,0 hPa 0,0 l/m 1,1 km/h (1 Bft) W 270 12,8 C 15,5 C 0,0 km/h (0 Bft)
17.06.2019 06:44 18,8 C 15,5 C 15,2 C 72 % 84 % 1025,0 hPa 0,0 l/m 1,4 km/h (1 Bft) NW 315 12,8 C 15,5 C 0,0 km/h (0 Bft)
17.06.2019 06:43 18,8 C 15,5 C 15,2 C 72 % 84 % 1025,0 hPa 0,0 l/m 1,4 km/h (1 Bft) NW 315 12,8 C 15,5 C 0,0 km/h (0 Bft)
17.06.2019 06:42 18,8 C 15,4 C 15,2 C 72 % 84 % 1025,0 hPa 0,0 l/m 1,9 km/h (1 Bft) W 270 12,7 C 15,4 C 2,7 km/h (1 Bft)
17.06.2019 06:41 18,8 C 15,4 C 15,2 C 72 % 84 % 1025,0 hPa 0,0 l/m 1,9 km/h (1 Bft) W 270 12,7 C 15,4 C 2,7 km/h (1 Bft)
17.06.2019 06:40 18,8 C 15,4 C 15,1 C 72 % 84 % 1025,0 hPa 0,0 l/m 1,6 km/h (1 Bft) W 270 12,7 C 15,4 C 2,5 km/h (1 Bft)
17.06.2019 06:39 18,8 C 15,4 C 15,1 C 72 % 84 % 1025,0 hPa 0,0 l/m 1,6 km/h (1 Bft) W 270 12,7 C 15,4 C 2,5 km/h (1 Bft)
17.06.2019 06:38 18,8 C 15,3 C 15,0 C 72 % 84 % 1025,0 hPa 0,0 l/m 1,4 km/h (1 Bft) SW 225 12,6 C 15,3 C 2,5 km/h (1 Bft)
17.06.2019 06:37 18,8 C 15,3 C 15,0 C 72 % 84 % 1025,0 hPa 0,0 l/m 1,4 km/h (1 Bft) SW 225 12,6 C 15,3 C 2,5 km/h (1 Bft)
17.06.2019 06:36 18,8 C 15,3 C 15,0 C 72 % 84 % 1025,0 hPa 0,0 l/m 1,4 km/h (1 Bft) W 270 12,6 C 15,3 C 3,6 km/h (1 Bft)
17.06.2019 06:35 18,8 C 15,3 C 15,0 C 72 % 84 % 1025,0 hPa 0,0 l/m 1,4 km/h (1 Bft) W 270 12,6 C 15,3 C 3,6 km/h (1 Bft)
17.06.2019 06:34 18,8 C 15,3 C 14,9 C 72 % 84 % 1024,7 hPa 0,0 l/m 1,3 km/h (1 Bft) W 270 12,6 C 15,3 C 3,6 km/h (1 Bft)
17.06.2019 06:33 18,8 C 15,3 C 14,9 C 72 % 84 % 1024,7 hPa 0,0 l/m 1,3 km/h (1 Bft) W 270 12,6 C 15,3 C 3,6 km/h (1 Bft)
17.06.2019 06:32 18,8 C 15,3 C 14,8 C 72 % 84 % 1024,7 hPa 0,0 l/m 0,6 km/h (0 Bft) W 270 12,6 C 15,3 C 2,5 km/h (1 Bft)
17.06.2019 06:31 18,8 C 15,3 C 14,8 C 72 % 84 % 1024,7 hPa 0,0 l/m 0,6 km/h (0 Bft) W 270 12,6 C 15,3 C 2,5 km/h (1 Bft)
17.06.2019 06:30 18,8 C 15,3 C 14,8 C 72 % 84 % 1024,7 hPa 0,0 l/m 0,6 km/h (0 Bft) NW 315 12,6 C 15,3 C 0,0 km/h (0 Bft)
17.06.2019 06:29 18,8 C 15,3 C 14,8 C 72 % 84 % 1024,7 hPa 0,0 l/m 0,6 km/h (0 Bft) NW 315 12,6 C 15,3 C 0,0 km/h (0 Bft)
17.06.2019 06:28 18,8 C 15,3 C 14,8 C 72 % 84 % 1024,7 hPa 0,0 l/m 0,6 km/h (0 Bft) W-SW 247 12,6 C 15,3 C 0,0 km/h (0 Bft)
17.06.2019 06:27 18,8 C 15,3 C 14,8 C 72 % 84 % 1024,7 hPa 0,0 l/m 0,6 km/h (0 Bft) W-SW 247 12,6 C 15,3 C 0,0 km/h (0 Bft)
17.06.2019 06:26 18,8 C 15,2 C 14,8 C 72 % 84 % 1024,7 hPa 0,0 l/m 0,6 km/h (0 Bft) W 270 12,5 C 15,2 C 3,1 km/h (1 Bft)
17.06.2019 06:25 18,8 C 15,2 C 14,8 C 72 % 84 % 1024,7 hPa 0,0 l/m 0,6 km/h (0 Bft) W 270 12,5 C 15,2 C 3,1 km/h (1 Bft)
17.06.2019 06:24 18,8 C 15,2 C 14,7 C 72 % 84 % 1024,7 hPa 0,0 l/m 0,3 km/h (0 Bft) W-NW 292 12,5 C 15,2 C 2,5 km/h (1 Bft)
17.06.2019 06:23 18,8 C 15,2 C 14,7 C 72 % 84 % 1024,7 hPa 0,0 l/m 0,3 km/h (0 Bft) W-NW 292 12,5 C 15,2 C 2,5 km/h (1 Bft)
17.06.2019 06:22 18,8 C 15,2 C 14,7 C 72 % 84 % 1024,7 hPa 0,0 l/m 0,2 km/h (0 Bft) W 270 12,5 C 15,2 C 0,0 km/h (0 Bft)
17.06.2019 06:21 18,8 C 15,2 C 14,7 C 72 % 84 % 1024,7 hPa 0,0 l/m 0,2 km/h (0 Bft) W 270 12,5 C 15,2 C 0,0 km/h (0 Bft)
17.06.2019 06:20 18,8 C 15,2 C 14,7 C 72 % 84 % 1024,7 hPa 0,0 l/m 0,2 km/h (0 Bft) W 270 12,5 C 15,2 C 0,0 km/h (0 Bft)
17.06.2019 06:19 18,8 C 15,2 C 14,7 C 72 % 84 % 1024,7 hPa 0,0 l/m 0,2 km/h (0 Bft) W 270 12,5 C 15,2 C 0,0 km/h (0 Bft)
17.06.2019 06:18 18,8 C 15,1 C 14,7 C 72 % 84 % 1024,7 hPa 0,0 l/m 0,2 km/h (0 Bft) W-SW 247 12,4 C 15,1 C 2,1 km/h (1 Bft)
17.06.2019 06:17 18,8 C 15,1 C 14,7 C 72 % 84 % 1024,7 hPa 0,0 l/m 0,2 km/h (0 Bft) W-SW 247 12,4 C 15,1 C 2,1 km/h (1 Bft)
17.06.2019 06:16 18,8 C 15,1 C 14,6 C 72 % 84 % 1024,7 hPa 0,0 l/m 0,2 km/h (0 Bft) W-NW 292 12,4 C 15,1 C 0,0 km/h (0 Bft)
17.06.2019 06:15 18,8 C 15,1 C 14,6 C 72 % 84 % 1024,7 hPa 0,0 l/m 0,2 km/h (0 Bft) W-NW 292 12,4 C 15,1 C 0,0 km/h (0 Bft)
17.06.2019 06:14 18,8 C 15,0 C 14,6 C 72 % 84 % 1024,9 hPa 0,0 l/m 0,5 km/h (0 Bft) W 270 12,3 C 15,0 C 0,0 km/h (0 Bft)
17.06.2019 06:13 18,8 C 15,0 C 14,6 C 72 % 84 % 1024,9 hPa 0,0 l/m 0,5 km/h (0 Bft) W 270 12,3 C 15,0 C 0,0 km/h (0 Bft)
17.06.2019 06:12 18,8 C 15,0 C 14,6 C 72 % 83 % 1024,9 hPa 0,0 l/m 0,8 km/h (0 Bft) W 270 12,1 C 15,0 C 0,0 km/h (0 Bft)
17.06.2019 06:11 18,8 C 15,0 C 14,6 C 72 % 83 % 1024,9 hPa 0,0 l/m 0,8 km/h (0 Bft) W 270 12,1 C 15,0 C 0,0 km/h (0 Bft)
17.06.2019 06:10 18,8 C 14,8 C 14,5 C 72 % 84 % 1024,9 hPa 0,0 l/m 1,1 km/h (1 Bft) W 270 12,1 C 14,8 C 0,0 km/h (0 Bft)
17.06.2019 06:09 18,8 C 14,8 C 14,5 C 72 % 84 % 1024,9 hPa 0,0 l/m 1,1 km/h (1 Bft) W 270 12,1 C 14,8 C 0,0 km/h (0 Bft)
17.06.2019 06:08 18,8 C 14,8 C 14,4 C 71 % 84 % 1024,9 hPa 0,0 l/m 1,1 km/h (1 Bft) W 270 12,1 C 14,8 C 0,0 km/h (0 Bft)
17.06.2019 06:07 18,8 C 14,8 C 14,4 C 71 % 84 % 1024,9 hPa 0,0 l/m 1,1 km/h (1 Bft) W 270 12,1 C 14,8 C 0,0 km/h (0 Bft)
17.06.2019 06:06 18,8 C 14,7 C 14,4 C 71 % 84 % 1024,9 hPa 0,0 l/m 1,1 km/h (1 Bft) W-NW 292 12,0 C 14,7 C 2,7 km/h (1 Bft)
17.06.2019 06:05 18,8 C 14,7 C 14,4 C 71 % 84 % 1024,9 hPa 0,0 l/m 1,1 km/h (1 Bft) W-NW 292 12,0 C 14,7 C 2,7 km/h (1 Bft)
17.06.2019 06:04 18,8 C 14,6 C 14,1 C 71 % 84 % 1024,9 hPa 0,0 l/m 0,6 km/h (0 Bft) W 270 11,9 C 14,6 C 2,9 km/h (1 Bft)
17.06.2019 06:03 18,8 C 14,6 C 14,1 C 71 % 84 % 1024,9 hPa 0,0 l/m 0,6 km/h (0 Bft) W 270 11,9 C 14,6 C 2,9 km/h (1 Bft)
17.06.2019 06:02 18,8 C 14,5 C 14,1 C 71 % 84 % 1024,9 hPa 0,0 l/m 0,5 km/h (0 Bft) W 270 11,8 C 14,5 C 2,7 km/h (1 Bft)
17.06.2019 06:01 18,8 C 14,5 C 14,1 C 71 % 84 % 1024,9 hPa 0,0 l/m 0,5 km/h (0 Bft) W 270 11,8 C 14,5 C 2,7 km/h (1 Bft)
17.06.2019 06:00 18,8 C 14,5 C 14,0 C 71 % 84 % 1024,9 hPa 0,0 l/m 0,2 km/h (0 Bft) W 270 11,8 C 14,5 C 2,1 km/h (1 Bft)
17.06.2019 05:59 18,8 C 14,5 C 14,0 C 71 % 84 % 1024,9 hPa 0,0 l/m 0,2 km/h (0 Bft) W 270 11,8 C 14,5 C 2,1 km/h (1 Bft)
17.06.2019 05:58 18,8 C 14,5 C 13,9 C 71 % 84 % 1024,9 hPa 0,0 l/m 0,0 km/h (0 Bft) W 270 11,8 C 14,5 C 0,0 km/h (0 Bft)
17.06.2019 05:57 18,8 C 14,5 C 13,9 C 71 % 84 % 1024,9 hPa 0,0 l/m 0,0 km/h (0 Bft) W 270 11,8 C 14,5 C 0,0 km/h (0 Bft)
17.06.2019 05:56 18,8 C 14,4 C 13,8 C 71 % 84 % 1024,9 hPa 0,0 l/m 0,0 km/h (0 Bft) W 270 11,7 C 14,4 C 0,0 km/h (0 Bft)
17.06.2019 05:55 18,8 C 14,4 C 13,8 C 71 % 84 % 1024,9 hPa 0,0 l/m 0,0 km/h (0 Bft) W 270 11,7 C 14,4 C 0,0 km/h (0 Bft)
17.06.2019 05:54 18,8 C 14,4 C 13,8 C 71 % 84 % 1024,9 hPa 0,0 l/m 0,0 km/h (0 Bft) W 270 11,7 C 14,4 C 0,0 km/h (0 Bft)
17.06.2019 05:53 18,8 C 14,4 C 13,8 C 71 % 84 % 1024,9 hPa 0,0 l/m 0,0 km/h (0 Bft) W 270 11,7 C 14,4 C 0,0 km/h (0 Bft)
17.06.2019 05:52 18,8 C 14,3 C 13,7 C 71 % 84 % 1024,9 hPa 0,0 l/m 0,2 km/h (0 Bft) W 270 11,6 C 14,3 C 0,0 km/h (0 Bft)
17.06.2019 05:51 18,8 C 14,3 C 13,7 C 71 % 84 % 1024,9 hPa 0,0 l/m 0,2 km/h (0 Bft) W 270 11,6 C 14,3 C 0,0 km/h (0 Bft)
17.06.2019 05:50 18,8 C 14,3 C 13,7 C 71 % 84 % 1024,9 hPa 0,0 l/m 0,2 km/h (0 Bft) W 270 11,6 C 14,3 C 0,0 km/h (0 Bft)
17.06.2019 05:49 18,8 C 14,3 C 13,7 C 71 % 84 % 1024,9 hPa 0,0 l/m 0,2 km/h (0 Bft) W 270 11,6 C 14,3 C 0,0 km/h (0 Bft)
17.06.2019 05:48 18,8 C 14,3 C 13,6 C 71 % 84 % 1024,9 hPa 0,0 l/m 0,2 km/h (0 Bft) W 270 11,6 C 14,3 C 0,0 km/h (0 Bft)
17.06.2019 05:47 18,8 C 14,3 C 13,6 C 71 % 84 % 1024,9 hPa 0,0 l/m 0,2 km/h (0 Bft) W 270 11,6 C 14,3 C 0,0 km/h (0 Bft)
17.06.2019 05:46 18,8 C 14,3 C 13,6 C 71 % 84 % 1024,9 hPa 0,0 l/m 0,2 km/h (0 Bft) W-SW 247 11,6 C 14,3 C 2,1 km/h (1 Bft)
17.06.2019 05:45 18,8 C 14,3 C 13,6 C 71 % 84 % 1024,9 hPa 0,0 l/m 0,2 km/h (0 Bft) W-SW 247 11,6 C 14,3 C 2,1 km/h (1 Bft)
17.06.2019 05:44 18,8 C 14,3 C 13,6 C 71 % 84 % 1024,9 hPa 0,0 l/m 0,3 km/h (0 Bft) W 270 11,6 C 14,3 C 0,0 km/h (0 Bft)
17.06.2019 05:43 18,8 C 14,3 C 13,6 C 71 % 84 % 1024,9 hPa 0,0 l/m 0,3 km/h (0 Bft) W 270 11,6 C 14,3 C 0,0 km/h (0 Bft)
17.06.2019 05:42 18,8 C 14,2 C 13,7 C 71 % 84 % 1024,9 hPa 0,0 l/m 0,6 km/h (0 Bft) W 270 11,5 C 14,2 C 0,0 km/h (0 Bft)
17.06.2019 05:41 18,8 C 14,2 C 13,7 C 71 % 84 % 1024,9 hPa 0,0 l/m 0,6 km/h (0 Bft) W 270 11,5 C 14,2 C 0,0 km/h (0 Bft)
17.06.2019 05:40 18,8 C 14,2 C 13,6 C 71 % 84 % 1024,9 hPa 0,0 l/m 0,6 km/h (0 Bft) W 270 11,5 C 14,2 C 0,0 km/h (0 Bft)
17.06.2019 05:39 18,8 C 14,2 C 13,6 C 71 % 84 % 1024,9 hPa 0,0 l/m 0,6 km/h (0 Bft) W 270 11,5 C 14,2 C 0,0 km/h (0 Bft)
17.06.2019 05:38 18,8 C 14,2 C 13,6 C 71 % 84 % 1024,9 hPa 0,0 l/m 0,6 km/h (0 Bft) NW 315 11,5 C 14,2 C 0,0 km/h (0 Bft)
17.06.2019 05:37 18,8 C 14,2 C 13,6 C 71 % 84 % 1024,9 hPa 0,0 l/m 0,6 km/h (0 Bft) NW 315 11,5 C 14,2 C 0,0 km/h (0 Bft)
17.06.2019 05:36 18,8 C 14,3 C 13,8 C 71 % 84 % 1024,9 hPa 0,0 l/m 0,6 km/h (0 Bft) W 270 11,6 C 14,3 C 2,1 km/h (1 Bft)
17.06.2019 05:35 18,8 C 14,3 C 13,8 C 71 % 84 % 1024,9 hPa 0,0 l/m 0,6 km/h (0 Bft) W 270 11,6 C 14,3 C 2,1 km/h (1 Bft)
17.06.2019 05:34 18,8 C 14,3 C 13,9 C 71 % 84 % 1025,1 hPa 0,0 l/m 0,6 km/h (0 Bft) W-SW 247 11,6 C 14,3 C 2,9 km/h (1 Bft)
17.06.2019 05:33 18,8 C 14,3 C 13,9 C 71 % 84 % 1025,1 hPa 0,0 l/m 0,6 km/h (0 Bft) W-SW 247 11,6 C 14,3 C 2,9 km/h (1 Bft)
17.06.2019 05:32 18,8 C 14,2 C 14,0 C 71 % 84 % 1025,1 hPa 0,0 l/m 0,3 km/h (0 Bft) W 270 11,5 C 14,2 C 3,1 km/h (1 Bft)
17.06.2019 05:31 18,8 C 14,2 C 14,0 C 71 % 84 % 1025,1 hPa 0,0 l/m 0,3 km/h (0 Bft) W 270 11,5 C 14,2 C 3,1 km/h (1 Bft)
17.06.2019 05:30 18,8 C 14,2 C 13,9 C 71 % 84 % 1025,1 hPa 0,0 l/m 0,2 km/h (0 Bft) W 270 11,5 C 14,2 C 0,0 km/h (0 Bft)
17.06.2019 05:29 18,8 C 14,2 C 13,9 C 71 % 84 % 1025,1 hPa 0,0 l/m 0,2 km/h (0 Bft) W 270 11,5 C 14,2 C 0,0 km/h (0 Bft)
17.06.2019 05:28 18,8 C 14,1 C 13,8 C 71 % 83 % 1025,1 hPa 0,0 l/m 0,2 km/h (0 Bft) O-SO 112 11,3 C 14,1 C 0,0 km/h (0 Bft)
17.06.2019 05:27 18,8 C 14,1 C 13,8 C 71 % 83 % 1025,1 hPa 0,0 l/m 0,2 km/h (0 Bft) O-SO 112 11,3 C 14,1 C 0,0 km/h (0 Bft)
17.06.2019 05:26 18,8 C 13,9 C 13,8 C 70 % 84 % 1025,1 hPa 0,0 l/m 0,0 km/h (0 Bft) NW 315 11,2 C 13,9 C 0,0 km/h (0 Bft)
17.06.2019 05:25 18,8 C 13,9 C 13,8 C 70 % 84 % 1025,1 hPa 0,0 l/m 0,0 km/h (0 Bft) NW 315 11,2 C 13,9 C 0,0 km/h (0 Bft)
17.06.2019 05:24 18,8 C 13,8 C 13,6 C 70 % 84 % 1025,1 hPa 0,0 l/m 0,0 km/h (0 Bft) NW 315 11,1 C 13,8 C 0,0 km/h (0 Bft)
17.06.2019 05:23 18,8 C 13,8 C 13,6 C 70 % 84 % 1025,1 hPa 0,0 l/m 0,0 km/h (0 Bft) NW 315 11,1 C 13,8 C 0,0 km/h (0 Bft)
17.06.2019 05:22 18,8 C 13,7 C 13,2 C 70 % 84 % 1025,1 hPa 0,0 l/m 0,0 km/h (0 Bft) NW 315 11,0 C 13,7 C 0,0 km/h (0 Bft)
17.06.2019 05:21 18,8 C 13,7 C 13,2 C 70 % 84 % 1025,1 hPa 0,0 l/m 0,0 km/h (0 Bft) NW 315 11,0 C 13,7 C 0,0 km/h (0 Bft)
17.06.2019 05:20 18,9 C 13,8 C 13,1 C 70 % 84 % 1025,1 hPa 0,0 l/m 0,2 km/h (0 Bft) W 270 11,1 C 13,8 C 0,0 km/h (0 Bft)
17.06.2019 05:19 18,9 C 13,8 C 13,1 C 70 % 84 % 1025,1 hPa 0,0 l/m 0,2 km/h (0 Bft) W 270 11,1 C 13,8 C 0,0 km/h (0 Bft)
17.06.2019 05:18 18,9 C 13,8 C 13,1 C 70 % 84 % 1025,1 hPa 0,0 l/m 0,6 km/h (0 Bft) W 270 11,1 C 13,8 C 0,0 km/h (0 Bft)
17.06.2019 05:17 18,9 C 13,8 C 13,1 C 70 % 84 % 1025,1 hPa 0,0 l/m 0,6 km/h (0 Bft) W 270 11,1 C 13,8 C 0,0 km/h (0 Bft)
17.06.2019 05:16 18,9 C 13,8 C 13,1 C 70 % 84 % 1025,1 hPa 0,0 l/m 0,8 km/h (0 Bft) W 270 11,1 C 13,8 C 0,0 km/h (0 Bft)
17.06.2019 05:15 18,9 C 13,8 C 13,1 C 70 % 84 % 1025,1 hPa 0,0 l/m 0,8 km/h (0 Bft) W 270 11,1 C 13,8 C 0,0 km/h (0 Bft)
17.06.2019 05:14 18,9 C 13,8 C 13,0 C 70 % 84 % 1025,1 hPa 0,0 l/m 1,0 km/h (0 Bft) W 270 11,1 C 13,8 C 0,0 km/h (0 Bft)
17.06.2019 05:13 18,9 C 13,8 C 13,0 C 70 % 84 % 1025,1 hPa 0,0 l/m 1,0 km/h (0 Bft) W 270 11,1 C 13,8 C 0,0 km/h (0 Bft)
17.06.2019 05:12 18,9 C 13,8 C 13,0 C 70 % 84 % 1025,1 hPa 0,0 l/m 1,0 km/h (0 Bft) W-NW 292 11,1 C 13,8 C 0,0 km/h (0 Bft)
17.06.2019 05:11 18,9 C 13,8 C 13,0 C 70 % 84 % 1025,1 hPa 0,0 l/m 1,0 km/h (0 Bft) W-NW 292 11,1 C 13,8 C 0,0 km/h (0 Bft)
17.06.2019 05:10 18,9 C 13,8 C 13,1 C 70 % 84 % 1025,1 hPa 0,0 l/m 1,1 km/h (1 Bft) W 270 11,1 C 13,8 C 3,1 km/h (1 Bft)
17.06.2019 05:09 18,9 C 13,8 C 13,1 C 70 % 84 % 1025,1 hPa 0,0 l/m 1,1 km/h (1 Bft) W 270 11,1 C 13,8 C 3,1 km/h (1 Bft)
17.06.2019 05:08 18,9 C 13,8 C 13,0 C 70 % 84 % 1025,1 hPa 0,0 l/m 0,8 km/h (0 Bft) W 270 11,1 C 13,8 C 3,3 km/h (1 Bft)
17.06.2019 05:07 18,9 C 13,8 C 13,0 C 70 % 84 % 1025,1 hPa 0,0 l/m 0,8 km/h (0 Bft) W 270 11,1 C 13,8 C 3,3 km/h (1 Bft)
17.06.2019 05:06 18,9 C 13,7 C 13,0 C 70 % 84 % 1025,1 hPa 0,0 l/m 0,5 km/h (0 Bft) W 270 11,0 C 13,7 C 2,3 km/h (1 Bft)
17.06.2019 05:05 18,9 C 13,7 C 13,0 C 70 % 84 % 1025,1 hPa 0,0 l/m 0,5 km/h (0 Bft) W 270 11,0 C 13,7 C 2,3 km/h (1 Bft)
17.06.2019 05:04 19,0 C 13,7 C 12,9 C 70 % 84 % 1025,1 hPa 0,0 l/m 0,6 km/h (0 Bft) W-NW 292 11,0 C 13,7 C 2,3 km/h (1 Bft)
17.06.2019 05:03 19,0 C 13,7 C 12,9 C 70 % 84 % 1025,1 hPa 0,0 l/m 0,6 km/h (0 Bft) W-NW 292 11,0 C 13,7 C 2,3 km/h (1 Bft)
17.06.2019 05:02 19,0 C 13,7 C 13,0 C 70 % 84 % 1025,1 hPa 0,0 l/m 1,0 km/h (0 Bft) W 270 11,0 C 13,7 C 0,0 km/h (0 Bft)
17.06.2019 05:01 19,0 C 13,7 C 13,0 C 70 % 84 % 1025,1 hPa 0,0 l/m 1,0 km/h (0 Bft) W 270 11,0 C 13,7 C 0,0 km/h (0 Bft)
17.06.2019 05:00 19,0 C 13,8 C 13,0 C 70 % 84 % 1025,1 hPa 0,0 l/m 1,0 km/h (0 Bft) W 270 11,1 C 13,8 C 3,1 km/h (1 Bft)
17.06.2019 04:59 19,0 C 13,8 C 13,0 C 70 % 84 % 1025,1 hPa 0,0 l/m 1,0 km/h (0 Bft) W 270 11,1 C 13,8 C 3,1 km/h (1 Bft)
17.06.2019 04:58 19,0 C 13,7 C 13,0 C 70 % 83 % 1025,1 hPa 0,0 l/m 0,6 km/h (0 Bft) W 270 10,9 C 13,7 C 0,0 km/h (0 Bft)
17.06.2019 04:57 19,0 C 13,7 C 13,0 C 70 % 83 % 1025,1 hPa 0,0 l/m 0,6 km/h (0 Bft) W 270 10,9 C 13,7 C 0,0 km/h (0 Bft)
17.06.2019 04:56 19,0 C 13,7 C 13,1 C 70 % 83 % 1025,1 hPa 0,0 l/m 0,6 km/h (0 Bft) W 270 10,9 C 13,7 C 0,0 km/h (0 Bft)
17.06.2019 04:55 19,0 C 13,7 C 13,1 C 70 % 83 % 1025,1 hPa 0,0 l/m 0,6 km/h (0 Bft) W 270 10,9 C 13,7 C 0,0 km/h (0 Bft)
17.06.2019 04:54 19,1 C 13,8 C 13,1 C 70 % 83 % 1025,0 hPa 0,0 l/m 0,6 km/h (0 Bft) W-SW 247 11,0 C 13,8 C 2,9 km/h (1 Bft)
17.06.2019 04:53 19,1 C 13,8 C 13,1 C 70 % 83 % 1025,0 hPa 0,0 l/m 0,6 km/h (0 Bft) W-SW 247 11,0 C 13,8 C 2,9 km/h (1 Bft)
17.06.2019 04:52 19,1 C 13,9 C 13,2 C 70 % 83 % 1025,0 hPa 0,0 l/m 0,6 km/h (0 Bft) W 270 11,1 C 13,9 C 2,1 km/h (1 Bft)
17.06.2019 04:51 19,1 C 13,9 C 13,2 C 70 % 83 % 1025,0 hPa 0,0 l/m 0,6 km/h (0 Bft) W 270 11,1 C 13,9 C 2,1 km/h (1 Bft)
17.06.2019 04:50 19,1 C 13,9 C 13,3 C 70 % 83 % 1025,0 hPa 0,0 l/m 1,0 km/h (0 Bft) W 270 11,1 C 13,9 C 0,0 km/h (0 Bft)
17.06.2019 04:49 19,1 C 13,9 C 13,3 C 70 % 83 % 1025,0 hPa 0,0 l/m 1,0 km/h (0 Bft) W 270 11,1 C 13,9 C 0,0 km/h (0 Bft)
17.06.2019 04:48 19,1 C 13,9 C 13,5 C 70 % 83 % 1025,0 hPa 0,0 l/m 1,4 km/h (1 Bft) W 270 11,1 C 13,9 C 2,3 km/h (1 Bft)
17.06.2019 04:47 19,1 C 13,9 C 13,5 C 70 % 83 % 1025,0 hPa 0,0 l/m 1,4 km/h (1 Bft) W 270 11,1 C 13,9 C 2,3 km/h (1 Bft)
17.06.2019 04:46 19,1 C 14,0 C 13,5 C 70 % 83 % 1025,0 hPa 0,0 l/m 1,4 km/h (1 Bft) N-NW 337 11,2 C 14,0 C 2,3 km/h (1 Bft)
17.06.2019 04:45 19,1 C 14,0 C 13,5 C 70 % 83 % 1025,0 hPa 0,0 l/m 1,4 km/h (1 Bft) N-NW 337 11,2 C 14,0 C 2,3 km/h (1 Bft)
17.06.2019 04:44 19,1 C 13,9 C 13,5 C 70 % 83 % 1025,0 hPa 0,0 l/m 1,4 km/h (1 Bft) NW 315 11,1 C 13,9 C 0,0 km/h (0 Bft)
17.06.2019 04:43 19,1 C 13,9 C 13,5 C 70 % 83 % 1025,0 hPa 0,0 l/m 1,4 km/h (1 Bft) NW 315 11,1 C 13,9 C 0,0 km/h (0 Bft)
17.06.2019 04:42 19,1 C 13,8 C 13,3 C 70 % 83 % 1025,0 hPa 0,0 l/m 1,3 km/h (1 Bft) W 270 11,0 C 13,8 C 3,3 km/h (1 Bft)
17.06.2019 04:41 19,1 C 13,8 C 13,3 C 70 % 83 % 1025,0 hPa 0,0 l/m 1,3 km/h (1 Bft) W 270 11,0 C 13,8 C 3,3 km/h (1 Bft)
17.06.2019 04:40 19,2 C 13,8 C 13,3 C 69 % 83 % 1025,0 hPa 0,0 l/m 0,8 km/h (0 Bft) W 270 11,0 C 13,8 C 3,8 km/h (1 Bft)
17.06.2019 04:39 19,2 C 13,8 C 13,3 C 69 % 83 % 1025,0 hPa 0,0 l/m 0,8 km/h (0 Bft) W 270 11,0 C 13,8 C 3,8 km/h (1 Bft)
17.06.2019 04:38 19,2 C 13,8 C 13,3 C 69 % 83 % 1025,0 hPa 0,0 l/m 0,3 km/h (0 Bft) W 270 11,0 C 13,8 C 3,6 km/h (1 Bft)
17.06.2019 04:37 19,2 C 13,8 C 13,3 C 69 % 83 % 1025,0 hPa 0,0 l/m 0,3 km/h (0 Bft) W 270 11,0 C 13,8 C 3,6 km/h (1 Bft)
17.06.2019 04:36 19,2 C 13,7 C 13,2 C 69 % 83 % 1025,0 hPa 0,0 l/m 0,0 km/h (0 Bft) W-NW 292 10,9 C 13,7 C 0,0 km/h (0 Bft)
17.06.2019 04:35 19,2 C 13,7 C 13,2 C 69 % 83 % 1025,0 hPa 0,0 l/m 0,0 km/h (0 Bft) W-NW 292 10,9 C 13,7 C 0,0 km/h (0 Bft)
17.06.2019 04:34 19,2 C 13,8 C 13,2 C 69 % 83 % 1024,8 hPa 0,0 l/m 0,0 km/h (0 Bft) W 270 11,0 C 13,8 C 0,0 km/h (0 Bft)
17.06.2019 04:33 19,2 C 13,8 C 13,2 C 69 % 83 % 1024,8 hPa 0,0 l/m 0,0 km/h (0 Bft) W 270 11,0 C 13,8 C 0,0 km/h (0 Bft)
17.06.2019 04:32 19,2 C 13,8 C 13,2 C 69 % 83 % 1024,8 hPa 0,0 l/m 0,0 km/h (0 Bft) W 270 11,0 C 13,8 C 0,0 km/h (0 Bft)
17.06.2019 04:31 19,2 C 13,8 C 13,2 C 69 % 83 % 1024,8 hPa 0,0 l/m 0,0 km/h (0 Bft) W 270 11,0 C 13,8 C 0,0 km/h (0 Bft)
17.06.2019 04:30 19,2 C 13,8 C 13,2 C 69 % 83 % 1024,8 hPa 0,0 l/m 0,0 km/h (0 Bft) W 270 11,0 C 13,8 C 0,0 km/h (0 Bft)
17.06.2019 04:29 19,2 C 13,8 C 13,2 C 69 % 83 % 1024,8 hPa 0,0 l/m 0,0 km/h (0 Bft) W 270 11,0 C 13,8 C 0,0 km/h (0 Bft)
17.06.2019 04:28 19,2 C 13,9 C 13,2 C 69 % 83 % 1024,8 hPa 0,0 l/m 0,5 km/h (0 Bft) NW 315 11,1 C 13,9 C 0,0 km/h (0 Bft)
17.06.2019 04:27 19,2 C 13,9 C 13,2 C 69 % 83 % 1024,8 hPa 0,0 l/m 0,5 km/h (0 Bft) NW 315 11,1 C 13,9 C 0,0 km/h (0 Bft)
17.06.2019 04:26 19,2 C 13,8 C 13,2 C 69 % 83 % 1024,8 hPa 0,0 l/m 1,0 km/h (0 Bft) W 270 11,0 C 13,8 C 0,0 km/h (0 Bft)
17.06.2019 04:25 19,2 C 13,8 C 13,2 C 69 % 83 % 1024,8 hPa 0,0 l/m 1,0 km/h (0 Bft) W 270 11,0 C 13,8 C 0,0 km/h (0 Bft)
17.06.2019 04:24 19,3 C 13,9 C 13,2 C 69 % 83 % 1024,8 hPa 0,0 l/m 1,3 km/h (1 Bft) NW 315 11,1 C 13,9 C 0,0 km/h (0 Bft)
17.06.2019 04:23 19,3 C 13,9 C 13,2 C 69 % 83 % 1024,8 hPa 0,0 l/m 1,3 km/h (1 Bft) NW 315 11,1 C 13,9 C 0,0 km/h (0 Bft)
17.06.2019 04:22 19,2 C 13,9 C 13,3 C 69 % 83 % 1024,8 hPa 0,0 l/m 1,4 km/h (1 Bft) W-NW 292 11,1 C 13,9 C 0,0 km/h (0 Bft)
17.06.2019 04:21 19,2 C 13,9 C 13,3 C 69 % 83 % 1024,8 hPa 0,0 l/m 1,4 km/h (1 Bft) W-NW 292 11,1 C 13,9 C 0,0 km/h (0 Bft)
17.06.2019 04:20 19,2 C 13,9 C 13,2 C 69 % 83 % 1024,8 hPa 0,0 l/m 1,6 km/h (1 Bft) W-SW 247 11,1 C 13,9 C 0,0 km/h (0 Bft)
17.06.2019 04:19 19,2 C 13,9 C 13,2 C 69 % 83 % 1024,8 hPa 0,0 l/m 1,6 km/h (1 Bft) W-SW 247 11,1 C 13,9 C 0,0 km/h (0 Bft)
17.06.2019 04:18 19,4 C 14,0 C 13,2 C 69 % 83 % 1024,8 hPa 0,0 l/m 1,8 km/h (1 Bft) W-SW 247 11,2 C 14,0 C 5,0 km/h (1 Bft)
17.06.2019 04:17 19,4 C 14,0 C 13,2 C 69 % 83 % 1024,8 hPa 0,0 l/m 1,8 km/h (1 Bft) W-SW 247 11,2 C 14,0 C 5,0 km/h (1 Bft)
17.06.2019 04:16 19,4 C 14,0 C 13,4 C 69 % 83 % 1024,8 hPa 0,0 l/m 1,9 km/h (1 Bft) W-SW 247 11,2 C 14,0 C 3,1 km/h (1 Bft)
17.06.2019 04:15 19,4 C 14,0 C 13,4 C 69 % 83 % 1024,8 hPa 0,0 l/m 1,9 km/h (1 Bft) W-SW 247 11,2 C 14,0 C 3,1 km/h (1 Bft)
17.06.2019 04:14 19,4 C 14,1 C 13,4 C 69 % 83 % 1024,9 hPa 0,0 l/m 2,1 km/h (1 Bft) W 270 11,3 C 14,1 C 2,9 km/h (1 Bft)
17.06.2019 04:13 19,4 C 14,1 C 13,4 C 69 % 83 % 1024,9 hPa 0,0 l/m 2,1 km/h (1 Bft) W 270 11,3 C 14,1 C 2,9 km/h (1 Bft)
17.06.2019 04:12 19,4 C 14,1 C 13,5 C 69 % 83 % 1024,9 hPa 0,0 l/m 2,4 km/h (1 Bft) W 270 11,3 C 14,1 C 2,7 km/h (1 Bft)
17.06.2019 04:11 19,4 C 14,1 C 13,5 C 69 % 83 % 1024,9 hPa 0,0 l/m 2,4 km/h (1 Bft) W 270 11,3 C 14,1 C 2,7 km/h (1 Bft)
17.06.2019 04:10 19,4 C 14,0 C 13,5 C 69 % 83 % 1024,9 hPa 0,0 l/m 2,7 km/h (1 Bft) NW 315 11,2 C 14,0 C 0,0 km/h (0 Bft)
17.06.2019 04:09 19,4 C 14,0 C 13,5 C 69 % 83 % 1024,9 hPa 0,0 l/m 2,7 km/h (1 Bft) NW 315 11,2 C 14,0 C 0,0 km/h (0 Bft)
17.06.2019 04:08 19,4 C 14,0 C 13,4 C 69 % 83 % 1024,9 hPa 0,0 l/m 3,2 km/h (1 Bft) NW 315 11,2 C 14,0 C 3,3 km/h (1 Bft)
17.06.2019 04:07 19,4 C 14,0 C 13,4 C 69 % 83 % 1024,9 hPa 0,0 l/m 3,2 km/h (1 Bft) NW 315 11,2 C 14,0 C 3,3 km/h (1 Bft)
17.06.2019 04:06 19,4 C 14,0 C 13,3 C 69 % 83 % 1024,9 hPa 0,0 l/m 3,4 km/h (1 Bft) NW 315 11,2 C 14,0 C 4,6 km/h (1 Bft)
17.06.2019 04:05 19,4 C 14,0 C 13,3 C 69 % 83 % 1024,9 hPa 0,0 l/m 3,4 km/h (1 Bft) NW 315 11,2 C 14,0 C 4,6 km/h (1 Bft)
17.06.2019 04:04 19,4 C 13,9 C 13,2 C 69 % 83 % 1024,9 hPa 0,0 l/m 2,7 km/h (1 Bft) W 270 11,1 C 13,9 C 5,4 km/h (1 Bft)
17.06.2019 04:03 19,4 C 13,9 C 13,2 C 69 % 83 % 1024,9 hPa 0,0 l/m 2,7 km/h (1 Bft) W 270 11,1 C 13,9 C 5,4 km/h (1 Bft)
17.06.2019 04:02 19,4 C 13,9 C 13,1 C 69 % 83 % 1024,9 hPa 0,0 l/m 2,4 km/h (1 Bft) W 270 11,1 C 13,9 C 4,4 km/h (1 Bft)
17.06.2019 04:01 19,4 C 13,9 C 13,1 C 69 % 83 % 1024,9 hPa 0,0 l/m 2,4 km/h (1 Bft) W 270 11,1 C 13,9 C 4,4 km/h (1 Bft)
17.06.2019 04:00 19,4 C 14,0 C 13,2 C 69 % 83 % 1024,9 hPa 0,0 l/m 2,3 km/h (1 Bft) W 270 11,2 C 14,0 C 4,8 km/h (1 Bft)
17.06.2019 03:59 19,4 C 14,0 C 13,2 C 69 % 83 % 1024,9 hPa 0,0 l/m 2,3 km/h (1 Bft) W 270 11,2 C 14,0 C 4,8 km/h (1 Bft)
17.06.2019 03:58 19,5 C 14,1 C 13,3 C 69 % 83 % 1024,9 hPa 0,0 l/m 2,1 km/h (1 Bft) W 270 11,3 C 14,1 C 4,8 km/h (1 Bft)
17.06.2019 03:57 19,5 C 14,1 C 13,3 C 69 % 83 % 1024,9 hPa 0,0 l/m 2,1 km/h (1 Bft) W 270 11,3 C 14,1 C 4,8 km/h (1 Bft)
17.06.2019 03:56 19,5 C 14,1 C 13,4 C 69 % 83 % 1024,9 hPa 0,0 l/m 1,9 km/h (1 Bft) W 270 11,3 C 14,1 C 3,6 km/h (1 Bft)
17.06.2019 03:55 19,5 C 14,1 C 13,4 C 69 % 83 % 1024,9 hPa 0,0 l/m 1,9 km/h (1 Bft) W 270 11,3 C 14,1 C 3,6 km/h (1 Bft)
17.06.2019 03:54 19,5 C 14,2 C 13,5 C 69 % 83 % 1025,1 hPa 0,0 l/m 2,1 km/h (1 Bft) W 270 11,4 C 14,2 C 0,0 km/h (0 Bft)
17.06.2019 03:53 19,5 C 14,2 C 13,5 C 69 % 83 % 1025,1 hPa 0,0 l/m 2,1 km/h (1 Bft) W 270 11,4 C 14,2 C 0,0 km/h (0 Bft)
17.06.2019 03:52 19,6 C 14,2 C 13,7 C 69 % 83 % 1025,1 hPa 0,0 l/m 2,6 km/h (1 Bft) NW 315 11,4 C 14,2 C 3,3 km/h (1 Bft)
17.06.2019 03:51 19,6 C 14,2 C 13,7 C 69 % 83 % 1025,1 hPa 0,0 l/m 2,6 km/h (1 Bft) NW 315 11,4 C 14,2 C 3,3 km/h (1 Bft)
17.06.2019 03:50 19,5 C 14,2 C 13,7 C 69 % 82 % 1025,1 hPa 0,0 l/m 2,6 km/h (1 Bft) W-NW 292 11,2 C 14,2 C 4,0 km/h (1 Bft)
17.06.2019 03:49 19,5 C 14,2 C 13,7 C 69 % 82 % 1025,1 hPa 0,0 l/m 2,6 km/h (1 Bft) W-NW 292 11,2 C 14,2 C 4,0 km/h (1 Bft)
17.06.2019 03:48 19,6 C 14,1 C 13,7 C 69 % 82 % 1025,1 hPa 0,0 l/m 2,4 km/h (1 Bft) NW 315 11,1 C 14,1 C 3,6 km/h (1 Bft)
17.06.2019 03:47 19,6 C 14,1 C 13,7 C 69 % 82 % 1025,1 hPa 0,0 l/m 2,4 km/h (1 Bft) NW 315 11,1 C 14,1 C 3,6 km/h (1 Bft)
17.06.2019 03:46 19,6 C 14,0 C 13,4 C 69 % 82 % 1025,1 hPa 0,0 l/m 2,1 km/h (1 Bft) NW 315 11,0 C 14,0 C 3,3 km/h (1 Bft)
17.06.2019 03:45 19,6 C 14,0 C 13,4 C 69 % 82 % 1025,1 hPa 0,0 l/m 2,1 km/h (1 Bft) NW 315 11,0 C 14,0 C 3,3 km/h (1 Bft)
17.06.2019 03:44 19,6 C 14,0 C 13,4 C 69 % 82 % 1025,1 hPa 0,0 l/m 2,1 km/h (1 Bft) W-NW 292 11,0 C 14,0 C 4,4 km/h (1 Bft)
17.06.2019 03:43 19,6 C 14,0 C 13,4 C 69 % 82 % 1025,1 hPa 0,0 l/m 2,1 km/h (1 Bft) W-NW 292 11,0 C 14,0 C 4,4 km/h (1 Bft)
17.06.2019 03:42 19,6 C 14,0 C 13,2 C 69 % 82 % 1025,1 hPa 0,0 l/m 1,9 km/h (1 Bft) W 270 11,0 C 14,0 C 5,9 km/h (2 Bft)
17.06.2019 03:41 19,6 C 14,0 C 13,2 C 69 % 82 % 1025,1 hPa 0,0 l/m 1,9 km/h (1 Bft) W 270 11,0 C 14,0 C 5,9 km/h (2 Bft)
17.06.2019 03:40 19,6 C 14,1 C 13,3 C 69 % 82 % 1025,1 hPa 0,0 l/m 2,1 km/h (1 Bft) W 270 11,1 C 14,1 C 3,6 km/h (1 Bft)
17.06.2019 03:39 19,6 C 14,1 C 13,3 C 69 % 82 % 1025,1 hPa 0,0 l/m 2,1 km/h (1 Bft) W 270 11,1 C 14,1 C 3,6 km/h (1 Bft)
17.06.2019 03:38 19,6 C 14,2 C 13,5 C 69 % 82 % 1025,1 hPa 0,0 l/m 2,3 km/h (1 Bft) W 270 11,2 C 14,2 C 2,9 km/h (1 Bft)
17.06.2019 03:37 19,6 C 14,2 C 13,5 C 69 % 82 % 1025,1 hPa 0,0 l/m 2,3 km/h (1 Bft) W 270 11,2 C 14,2 C 2,9 km/h (1 Bft)
17.06.2019 03:36 19,6 C 14,2 C 13,5 C 69 % 82 % 1025,1 hPa 0,0 l/m 2,6 km/h (1 Bft) W 270 11,2 C 14,2 C 2,7 km/h (1 Bft)
17.06.2019 03:35 19,6 C 14,2 C 13,5 C 69 % 82 % 1025,1 hPa 0,0 l/m 2,6 km/h (1 Bft) W 270 11,2 C 14,2 C 2,7 km/h (1 Bft)
17.06.2019 03:34 19,7 C 14,2 C 13,5 C 69 % 82 % 1025,4 hPa 0,0 l/m 2,7 km/h (1 Bft) NW 315 11,2 C 14,2 C 3,3 km/h (1 Bft)
17.06.2019 03:33 19,7 C 14,2 C 13,5 C 69 % 82 % 1025,4 hPa 0,0 l/m 2,7 km/h (1 Bft) NW 315 11,2 C 14,2 C 3,3 km/h (1 Bft)
17.06.2019 03:32 19,7 C 14,2 C 13,5 C 69 % 82 % 1025,4 hPa 0,0 l/m 2,9 km/h (1 Bft) W 270 11,2 C 14,2 C 4,4 km/h (1 Bft)
17.06.2019 03:31 19,7 C 14,2 C 13,5 C 69 % 82 % 1025,4 hPa 0,0 l/m 2,9 km/h (1 Bft) W 270 11,2 C 14,2 C 4,4 km/h (1 Bft)
17.06.2019 03:30 19,7 C 14,1 C 13,5 C 69 % 82 % 1025,4 hPa 0,0 l/m 2,7 km/h (1 Bft) W-NW 292 11,1 C 14,1 C 4,6 km/h (1 Bft)
17.06.2019 03:29 19,7 C 14,1 C 13,5 C 69 % 82 % 1025,4 hPa 0,0 l/m 2,7 km/h (1 Bft) W-NW 292 11,1 C 14,1 C 4,6 km/h (1 Bft)
17.06.2019 03:28 19,7 C 14,1 C 13,5 C 69 % 82 % 1025,4 hPa 0,0 l/m 2,3 km/h (1 Bft) W 270 11,1 C 14,1 C 3,1 km/h (1 Bft)
17.06.2019 03:27 19,7 C 14,1 C 13,5 C 69 % 82 % 1025,4 hPa 0,0 l/m 2,3 km/h (1 Bft) W 270 11,1 C 14,1 C 3,1 km/h (1 Bft)
17.06.2019 03:26 19,7 C 14,1 C 13,4 C 69 % 82 % 1025,4 hPa 0,0 l/m 2,1 km/h (1 Bft) W-NW 292 11,1 C 14,1 C 3,6 km/h (1 Bft)
17.06.2019 03:25 19,7 C 14,1 C 13,4 C 69 % 82 % 1025,4 hPa 0,0 l/m 2,1 km/h (1 Bft) W-NW 292 11,1 C 14,1 C 3,6 km/h (1 Bft)
17.06.2019 03:24 19,7 C 14,2 C 13,5 C 69 % 82 % 1025,4 hPa 0,0 l/m 1,9 km/h (1 Bft) W 270 11,2 C 14,2 C 3,6 km/h (1 Bft)
17.06.2019 03:23 19,7 C 14,2 C 13,5 C 69 % 82 % 1025,4 hPa 0,0 l/m 1,9 km/h (1 Bft) W 270 11,2 C 14,2 C 3,6 km/h (1 Bft)
17.06.2019 03:22 19,7 C 14,2 C 13,5 C 69 % 82 % 1025,4 hPa 0,0 l/m 1,6 km/h (1 Bft) NW 315 11,2 C 14,2 C 4,0 km/h (1 Bft)
17.06.2019 03:21 19,7 C 14,2 C 13,5 C 69 % 82 % 1025,4 hPa 0,0 l/m 1,6 km/h (1 Bft) NW 315 11,2 C 14,2 C 4,0 km/h (1 Bft)
17.06.2019 03:20 19,7 C 14,1 C 13,4 C 69 % 82 % 1025,4 hPa 0,0 l/m 1,3 km/h (1 Bft) W-NW 292 11,1 C 14,1 C 3,6 km/h (1 Bft)
17.06.2019 03:19 19,7 C 14,1 C 13,4 C 69 % 82 % 1025,4 hPa 0,0 l/m 1,3 km/h (1 Bft) W-NW 292 11,1 C 14,1 C 3,6 km/h (1 Bft)
17.06.2019 03:18 19,8 C 14,1 C 13,4 C 69 % 82 % 1025,4 hPa 0,0 l/m 1,4 km/h (1 Bft) W 270 11,1 C 14,1 C 2,5 km/h (1 Bft)
17.06.2019 03:17 19,8 C 14,1 C 13,4 C 69 % 82 % 1025,4 hPa 0,0 l/m 1,4 km/h (1 Bft) W 270 11,1 C 14,1 C 2,5 km/h (1 Bft)
17.06.2019 03:16 19,8 C 14,1 C 13,4 C 69 % 82 % 1025,4 hPa 0,0 l/m 1,3 km/h (1 Bft) W 270 11,1 C 14,1 C 0,0 km/h (0 Bft)
17.06.2019 03:15 19,8 C 14,1 C 13,4 C 69 % 82 % 1025,4 hPa 0,0 l/m 1,3 km/h (1 Bft) W 270 11,1 C 14,1 C 0,0 km/h (0 Bft)
17.06.2019 03:14 19,8 C 14,1 C 13,5 C 69 % 82 % 1025,4 hPa 0,0 l/m 1,0 km/h (0 Bft) W 270 11,1 C 14,1 C 3,1 km/h (1 Bft)
17.06.2019 03:13 19,8 C 14,1 C 13,5 C 69 % 82 % 1025,4 hPa 0,0 l/m 1,0 km/h (0 Bft) W 270 11,1 C 14,1 C 3,1 km/h (1 Bft)
17.06.2019 03:12 19,8 C 14,0 C 13,3 C 69 % 81 % 1025,4 hPa 0,0 l/m 0,6 km/h (0 Bft) W 270 10,8 C 14,0 C 0,0 km/h (0 Bft)
17.06.2019 03:11 19,8 C 14,0 C 13,3 C 69 % 81 % 1025,4 hPa 0,0 l/m 0,6 km/h (0 Bft) W 270 10,8 C 14,0 C 0,0 km/h (0 Bft)
17.06.2019 03:10 19,8 C 14,1 C 13,2 C 69 % 81 % 1025,4 hPa 0,0 l/m 0,8 km/h (0 Bft) W 270 10,9 C 14,1 C 2,5 km/h (1 Bft)
17.06.2019 03:09 19,8 C 14,1 C 13,2 C 69 % 81 % 1025,4 hPa 0,0 l/m 0,8 km/h (0 Bft) W 270 10,9 C 14,1 C 2,5 km/h (1 Bft)
17.06.2019 03:08 19,9 C 14,1 C 13,3 C 69 % 81 % 1025,4 hPa 0,0 l/m 1,0 km/h (0 Bft) W-SW 247 10,9 C 14,1 C 2,9 km/h (1 Bft)
17.06.2019 03:07 19,9 C 14,1 C 13,3 C 69 % 81 % 1025,4 hPa 0,0 l/m 1,0 km/h (0 Bft) W-SW 247 10,9 C 14,1 C 2,9 km/h (1 Bft)
17.06.2019 03:06 19,9 C 14,1 C 13,3 C 69 % 81 % 1025,4 hPa 0,0 l/m 1,0 km/h (0 Bft) W 270 10,9 C 14,1 C 0,0 km/h (0 Bft)
17.06.2019 03:05 19,9 C 14,1 C 13,3 C 69 % 81 % 1025,4 hPa 0,0 l/m 1,0 km/h (0 Bft) W 270 10,9 C 14,1 C 0,0 km/h (0 Bft)
17.06.2019 03:04 19,9 C 14,2 C 13,4 C 69 % 81 % 1025,4 hPa 0,0 l/m 1,4 km/h (1 Bft) NW 315 11,0 C 14,2 C 0,0 km/h (0 Bft)
17.06.2019 03:03 19,9 C 14,2 C 13,4 C 69 % 81 % 1025,4 hPa 0,0 l/m 1,4 km/h (1 Bft) NW 315 11,0 C 14,2 C 0,0 km/h (0 Bft)
17.06.2019 03:02 20,0 C 14,2 C 13,4 C 69 % 81 % 1025,4 hPa 0,0 l/m 1,8 km/h (1 Bft) W 270 11,0 C 14,2 C 0,0 km/h (0 Bft)
17.06.2019 03:01 20,0 C 14,2 C 13,4 C 69 % 81 % 1025,4 hPa 0,0 l/m 1,8 km/h (1 Bft) W 270 11,0 C 14,2 C 0,0 km/h (0 Bft)
17.06.2019 03:00 20,0 C 14,2 C 13,5 C 69 % 81 % 1025,4 hPa 0,0 l/m 2,3 km/h (1 Bft) W-SW 247 11,0 C 14,2 C 2,5 km/h (1 Bft)
17.06.2019 02:59 20,0 C 14,2 C 13,5 C 69 % 81 % 1025,4 hPa 0,0 l/m 2,3 km/h (1 Bft) W-SW 247 11,0 C 14,2 C 2,5 km/h (1 Bft)
17.06.2019 02:58 20,0 C 14,3 C 13,5 C 69 % 81 % 1025,4 hPa 0,0 l/m 2,4 km/h (1 Bft) W 270 11,1 C 14,3 C 3,1 km/h (1 Bft)
17.06.2019 02:57 20,0 C 14,3 C 13,5 C 69 % 81 % 1025,4 hPa 0,0 l/m 2,4 km/h (1 Bft) W 270 11,1 C 14,3 C 3,1 km/h (1 Bft)
17.06.2019 02:56 20,0 C 14,3 C 13,5 C 69 % 81 % 1025,4 hPa 0,0 l/m 2,6 km/h (1 Bft) W 270 11,1 C 14,3 C 2,7 km/h (1 Bft)
17.06.2019 02:55 20,0 C 14,3 C 13,5 C 69 % 81 % 1025,4 hPa 0,0 l/m 2,6 km/h (1 Bft) W 270 11,1 C 14,3 C 2,7 km/h (1 Bft)
17.06.2019 02:54 20,0 C 14,4 C 13,7 C 69 % 81 % 1025,9 hPa 0,0 l/m 2,7 km/h (1 Bft) N-NW 337 11,2 C 14,4 C 2,1 km/h (1 Bft)
17.06.2019 02:53 20,0 C 14,4 C 13,7 C 69 % 81 % 1025,9 hPa 0,0 l/m 2,7 km/h (1 Bft) N-NW 337 11,2 C 14,4 C 2,1 km/h (1 Bft)
17.06.2019 02:52 20,0 C 14,4 C 13,8 C 69 % 81 % 1025,9 hPa 0,0 l/m 2,4 km/h (1 Bft) W 270 11,2 C 14,4 C 4,6 km/h (1 Bft)
17.06.2019 02:51 20,0 C 14,4 C 13,8 C 69 % 81 % 1025,9 hPa 0,0 l/m 2,4 km/h (1 Bft) W 270 11,2 C 14,4 C 4,6 km/h (1 Bft)
17.06.2019 02:50 20,0 C 14,4 C 13,7 C 69 % 81 % 1025,9 hPa 0,0 l/m 2,1 km/h (1 Bft) W 270 11,2 C 14,4 C 5,9 km/h (2 Bft)
17.06.2019 02:49 20,0 C 14,4 C 13,7 C 69 % 81 % 1025,9 hPa 0,0 l/m 2,1 km/h (1 Bft) W 270 11,2 C 14,4 C 5,9 km/h (2 Bft)
17.06.2019 02:48 20,0 C 14,4 C 13,6 C 69 % 81 % 1025,9 hPa 0,0 l/m 1,6 km/h (1 Bft) W 270 11,2 C 14,4 C 4,2 km/h (1 Bft)
17.06.2019 02:47 20,0 C 14,4 C 13,6 C 69 % 81 % 1025,9 hPa 0,0 l/m 1,6 km/h (1 Bft) W 270 11,2 C 14,4 C 4,2 km/h (1 Bft)
17.06.2019 02:46 20,0 C 14,5 C 13,6 C 69 % 81 % 1025,9 hPa 0,0 l/m 1,1 km/h (1 Bft) W 270 11,3 C 14,5 C 2,7 km/h (1 Bft)
17.06.2019 02:45 20,0 C 14,5 C 13,6 C 69 % 81 % 1025,9 hPa 0,0 l/m 1,1 km/h (1 Bft) W 270 11,3 C 14,5 C 2,7 km/h (1 Bft)
17.06.2019 02:44 20,1 C 14,5 C 13,6 C 69 % 81 % 1025,9 hPa 0,0 l/m 0,8 km/h (0 Bft) W 270 11,3 C 14,5 C 2,5 km/h (1 Bft)
17.06.2019 02:43 20,1 C 14,5 C 13,6 C 69 % 81 % 1025,9 hPa 0,0 l/m 0,8 km/h (0 Bft) W 270 11,3 C 14,5 C 2,5 km/h (1 Bft)
17.06.2019 02:42 20,0 C 14,5 C 13,7 C 69 % 81 % 1025,9 hPa 0,0 l/m 0,5 km/h (0 Bft) W 270 11,3 C 14,5 C 2,1 km/h (1 Bft)
17.06.2019 02:41 20,0 C 14,5 C 13,7 C 69 % 81 % 1025,9 hPa 0,0 l/m 0,5 km/h (0 Bft) W 270 11,3 C 14,5 C 2,1 km/h (1 Bft)
17.06.2019 02:40 20,1 C 14,5 C 13,7 C 69 % 81 % 1025,9 hPa 0,0 l/m 0,3 km/h (0 Bft) W-NW 292 11,3 C 14,5 C 3,8 km/h (1 Bft)
17.06.2019 02:39 20,1 C 14,5 C 13,7 C 69 % 81 % 1025,9 hPa 0,0 l/m 0,3 km/h (0 Bft) W-NW 292 11,3 C 14,5 C 3,8 km/h (1 Bft)
17.06.2019 02:38 20,1 C 14,5 C 13,8 C 68 % 81 % 1025,9 hPa 0,0 l/m 0,0 km/h (0 Bft) NW 315 11,3 C 14,5 C 0,0 km/h (0 Bft)
17.06.2019 02:37 20,1 C 14,5 C 13,8 C 68 % 81 % 1025,9 hPa 0,0 l/m 0,0 km/h (0 Bft) NW 315 11,3 C 14,5 C 0,0 km/h (0 Bft)
17.06.2019 02:36 20,1 C 14,5 C 13,8 C 68 % 81 % 1025,9 hPa 0,0 l/m 0,0 km/h (0 Bft) W-NW 292 11,3 C 14,5 C 0,0 km/h (0 Bft)
17.06.2019 02:35 20,1 C 14,5 C 13,8 C 68 % 81 % 1025,9 hPa 0,0 l/m 0,0 km/h (0 Bft) W-NW 292 11,3 C 14,5 C 0,0 km/h (0 Bft)
17.06.2019 02:34 20,2 C 14,5 C 13,8 C 68 % 81 % 1025,6 hPa 0,0 l/m 0,0 km/h (0 Bft) W 270 11,3 C 14,5 C 0,0 km/h (0 Bft)
17.06.2019 02:33 20,2 C 14,5 C 13,8 C 68 % 81 % 1025,6 hPa 0,0 l/m 0,0 km/h (0 Bft) W 270 11,3 C 14,5 C 0,0 km/h (0 Bft)
17.06.2019 02:32 20,2 C 14,4 C 13,7 C 68 % 81 % 1025,6 hPa 0,0 l/m 0,0 km/h (0 Bft) W 270 11,2 C 14,4 C 0,0 km/h (0 Bft)
17.06.2019 02:31 20,2 C 14,4 C 13,7 C 68 % 81 % 1025,6 hPa 0,0 l/m 0,0 km/h (0 Bft) W 270 11,2 C 14,4 C 0,0 km/h (0 Bft)
17.06.2019 02:30 20,2 C 14,4 C 13,6 C 68 % 80 % 1025,6 hPa 0,0 l/m 0,0 km/h (0 Bft) W 270 11,0 C 14,4 C 0,0 km/h (0 Bft)
17.06.2019 02:29 20,2 C 14,4 C 13,6 C 68 % 80 % 1025,6 hPa 0,0 l/m 0,0 km/h (0 Bft) W 270 11,0 C 14,4 C 0,0 km/h (0 Bft)
17.06.2019 02:28 20,2 C 14,4 C 13,6 C 68 % 80 % 1025,6 hPa 0,0 l/m 0,0 km/h (0 Bft) W 270 11,0 C 14,4 C 0,0 km/h (0 Bft)
17.06.2019 02:27 20,2 C 14,4 C 13,6 C 68 % 80 % 1025,6 hPa 0,0 l/m 0,0 km/h (0 Bft) W 270 11,0 C 14,4 C 0,0 km/h (0 Bft)
17.06.2019 02:26 20,2 C 14,5 C 13,6 C 68 % 80 % 1025,6 hPa 0,0 l/m 0,0 km/h (0 Bft) O-SO 112 11,1 C 14,5 C 0,0 km/h (0 Bft)
17.06.2019 02:25 20,2 C 14,5 C 13,6 C 68 % 80 % 1025,6 hPa 0,0 l/m 0,0 km/h (0 Bft) O-SO 112 11,1 C 14,5 C 0,0 km/h (0 Bft)
17.06.2019 02:24 20,3 C 14,5 C 13,6 C 68 % 80 % 1025,6 hPa 0,0 l/m 0,0 km/h (0 Bft) O-SO 112 11,1 C 14,5 C 0,0 km/h (0 Bft)
17.06.2019 02:23 20,3 C 14,5 C 13,6 C 68 % 80 % 1025,6 hPa 0,0 l/m 0,0 km/h (0 Bft) O-SO 112 11,1 C 14,5 C 0,0 km/h (0 Bft)
17.06.2019 02:22 20,3 C 14,6 C 13,7 C 68 % 80 % 1025,6 hPa 0,0 l/m 0,0 km/h (0 Bft) O-SO 112 11,2 C 14,6 C 0,0 km/h (0 Bft)
17.06.2019 02:21 20,3 C 14,6 C 13,7 C 68 % 80 % 1025,6 hPa 0,0 l/m 0,0 km/h (0 Bft) O-SO 112 11,2 C 14,6 C 0,0 km/h (0 Bft)
17.06.2019 02:20 20,3 C 14,7 C 13,9 C 68 % 80 % 1025,6 hPa 0,0 l/m 0,0 km/h (0 Bft) O-SO 112 11,3 C 14,7 C 0,0 km/h (0 Bft)
17.06.2019 02:19 20,3 C 14,7 C 13,9 C 68 % 80 % 1025,6 hPa 0,0 l/m 0,0 km/h (0 Bft) O-SO 112 11,3 C 14,7 C 0,0 km/h (0 Bft)
17.06.2019 02:18 20,3 C 14,7 C 13,9 C 68 % 80 % 1025,6 hPa 0,0 l/m 0,0 km/h (0 Bft) O-NO 67 11,3 C 14,7 C 0,0 km/h (0 Bft)
17.06.2019 02:17 20,3 C 14,7 C 13,9 C 68 % 80 % 1025,6 hPa 0,0 l/m 0,0 km/h (0 Bft) O-NO 67 11,3 C 14,7 C 0,0 km/h (0 Bft)
17.06.2019 02:16 20,3 C 14,8 C 13,9 C 68 % 80 % 1025,6 hPa 0,0 l/m 0,0 km/h (0 Bft) SO 135 11,4 C 14,8 C 0,0 km/h (0 Bft)
17.06.2019 02:15 20,3 C 14,8 C 13,9 C 68 % 80 % 1025,6 hPa 0,0 l/m 0,0 km/h (0 Bft) SO 135 11,4 C 14,8 C 0,0 km/h (0 Bft)
17.06.2019 02:14 20,4 C 14,8 C 13,9 C 68 % 80 % 1025,8 hPa 0,0 l/m 0,0 km/h (0 Bft) NO 45 11,4 C 14,8 C 0,0 km/h (0 Bft)
17.06.2019 02:13 20,4 C 14,8 C 13,9 C 68 % 80 % 1025,8 hPa 0,0 l/m 0,0 km/h (0 Bft) NO 45 11,4 C 14,8 C 0,0 km/h (0 Bft)
17.06.2019 02:12 20,4 C 14,9 C 14,0 C 68 % 80 % 1025,8 hPa 0,0 l/m 0,0 km/h (0 Bft) O 90 11,5 C 14,9 C 0,0 km/h (0 Bft)
17.06.2019 02:11 20,4 C 14,9 C 14,0 C 68 % 80 % 1025,8 hPa 0,0 l/m 0,0 km/h (0 Bft) O 90 11,5 C 14,9 C 0,0 km/h (0 Bft)
17.06.2019 02:10 20,4 C 14,9 C 14,0 C 68 % 80 % 1025,8 hPa 0,0 l/m 0,0 km/h (0 Bft) O-SO 112 11,5 C 14,9 C 0,0 km/h (0 Bft)
17.06.2019 02:09 20,4 C 14,9 C 14,0 C 68 % 80 % 1025,8 hPa 0,0 l/m 0,0 km/h (0 Bft) O-SO 112 11,5 C 14,9 C 0,0 km/h (0 Bft)
17.06.2019 02:08 20,4 C 15,1 C 14,0 C 68 % 80 % 1025,8 hPa 0,0 l/m 0,3 km/h (0 Bft) O-SO 112 11,7 C 15,1 C 0,0 km/h (0 Bft)
17.06.2019 02:07 20,4 C 15,1 C 14,0 C 68 % 80 % 1025,8 hPa 0,0 l/m 0,3 km/h (0 Bft) O-SO 112 11,7 C 15,1 C 0,0 km/h (0 Bft)
17.06.2019 02:06 20,4 C 15,1 C 14,0 C 69 % 80 % 1025,8 hPa 0,0 l/m 0,6 km/h (0 Bft) S-SO 157 11,7 C 15,1 C 0,0 km/h (0 Bft)
17.06.2019 02:05 20,4 C 15,1 C 14,0 C 69 % 80 % 1025,8 hPa 0,0 l/m 0,6 km/h (0 Bft) S-SO 157 11,7 C 15,1 C 0,0 km/h (0 Bft)
17.06.2019 02:04 20,4 C 15,0 C 14,1 C 68 % 80 % 1025,8 hPa 0,0 l/m 1,0 km/h (0 Bft) W-NW 292 11,6 C 15,0 C 0,0 km/h (0 Bft)
17.06.2019 02:03 20,4 C 15,0 C 14,1 C 68 % 80 % 1025,8 hPa 0,0 l/m 1,0 km/h (0 Bft) W-NW 292 11,6 C 15,0 C 0,0 km/h (0 Bft)
17.06.2019 02:02 20,5 C 15,0 C 14,2 C 68 % 80 % 1025,8 hPa 0,0 l/m 1,4 km/h (1 Bft) NW 315 11,6 C 15,0 C 0,0 km/h (0 Bft)
17.06.2019 02:01 20,5 C 15,0 C 14,2 C 68 % 80 % 1025,8 hPa 0,0 l/m 1,4 km/h (1 Bft) NW 315 11,6 C 15,0 C 0,0 km/h (0 Bft)
17.06.2019 02:00 20,5 C 15,0 C 14,1 C 68 % 80 % 1025,8 hPa 0,0 l/m 1,4 km/h (1 Bft) W-NW 292 11,6 C 15,0 C 0,0 km/h (0 Bft)
17.06.2019 01:59 20,5 C 15,0 C 14,1 C 68 % 80 % 1025,8 hPa 0,0 l/m 1,4 km/h (1 Bft) W-NW 292 11,6 C 15,0 C 0,0 km/h (0 Bft)
17.06.2019 01:58 20,5 C 15,1 C 14,2 C 68 % 80 % 1025,8 hPa 0,0 l/m 1,3 km/h (1 Bft) W 270 11,7 C 15,1 C 2,7 km/h (1 Bft)
17.06.2019 01:57 20,5 C 15,1 C 14,2 C 68 % 80 % 1025,8 hPa 0,0 l/m 1,3 km/h (1 Bft) W 270 11,7 C 15,1 C 2,7 km/h (1 Bft)
17.06.2019 01:56 20,6 C 15,2 C 14,2 C 68 % 79 % 1025,8 hPa 0,0 l/m 1,0 km/h (0 Bft) W-SW 247 11,6 C 15,2 C 2,5 km/h (1 Bft)
17.06.2019 01:55 20,6 C 15,2 C 14,2 C 68 % 79 % 1025,8 hPa 0,0 l/m 1,0 km/h (0 Bft) W-SW 247 11,6 C 15,2 C 2,5 km/h (1 Bft)
17.06.2019 01:54 20,6 C 15,3 C 14,2 C 68 % 79 % 1025,9 hPa 0,0 l/m 0,6 km/h (0 Bft) W-NW 292 11,7 C 15,3 C 3,6 km/h (1 Bft)
17.06.2019 01:53 20,6 C 15,3 C 14,2 C 68 % 79 % 1025,9 hPa 0,0 l/m 0,6 km/h (0 Bft) W-NW 292 11,7 C 15,3 C 3,6 km/h (1 Bft)
17.06.2019 01:52 20,6 C 15,3 C 14,3 C 68 % 79 % 1025,9 hPa 0,0 l/m 0,2 km/h (0 Bft) W-SW 247 11,7 C 15,3 C 2,9 km/h (1 Bft)
17.06.2019 01:51 20,6 C 15,3 C 14,3 C 68 % 79 % 1025,9 hPa 0,0 l/m 0,2 km/h (0 Bft) W-SW 247 11,7 C 15,3 C 2,9 km/h (1 Bft)
17.06.2019 01:50 20,6 C 15,4 C 14,4 C 68 % 79 % 1025,9 hPa 0,0 l/m 0,0 km/h (0 Bft) W-SW 247 11,8 C 15,4 C 0,0 km/h (0 Bft)
17.06.2019 01:49 20,6 C 15,4 C 14,4 C 68 % 79 % 1025,9 hPa 0,0 l/m 0,0 km/h (0 Bft) W-SW 247 11,8 C 15,4 C 0,0 km/h (0 Bft)
17.06.2019 01:48 20,7 C 15,5 C 14,5 C 68 % 79 % 1025,9 hPa 0,0 l/m 0,0 km/h (0 Bft) W-SW 247 11,9 C 15,5 C 0,0 km/h (0 Bft)
17.06.2019 01:47 20,7 C 15,5 C 14,5 C 68 % 79 % 1025,9 hPa 0,0 l/m 0,0 km/h (0 Bft) W-SW 247 11,9 C 15,5 C 0,0 km/h (0 Bft)
17.06.2019 01:46 20,7 C 15,6 C 14,6 C 68 % 79 % 1025,9 hPa 0,0 l/m 0,5 km/h (0 Bft) W 270 12,0 C 15,6 C 0,0 km/h (0 Bft)
17.06.2019 01:45 20,7 C 15,6 C 14,6 C 68 % 79 % 1025,9 hPa 0,0 l/m 0,5 km/h (0 Bft) W 270 12,0 C 15,6 C 0,0 km/h (0 Bft)
17.06.2019 01:44 20,7 C 15,6 C 14,7 C 68 % 79 % 1025,9 hPa 0,0 l/m 1,0 km/h (0 Bft) NW 315 12,0 C 15,6 C 0,0 km/h (0 Bft)
17.06.2019 01:43 20,7 C 15,6 C 14,7 C 68 % 79 % 1025,9 hPa 0,0 l/m 1,0 km/h (0 Bft) NW 315 12,0 C 15,6 C 0,0 km/h (0 Bft)
17.06.2019 01:42 20,7 C 15,7 C 14,7 C 68 % 79 % 1025,9 hPa 0,0 l/m 1,1 km/h (1 Bft) W-NW 292 12,1 C 15,7 C 0,0 km/h (0 Bft)
17.06.2019 01:41 20,7 C 15,7 C 14,7 C 68 % 79 % 1025,9 hPa 0,0 l/m 1,1 km/h (1 Bft) W-NW 292 12,1 C 15,7 C 0,0 km/h (0 Bft)
17.06.2019 01:40 20,7 C 15,7 C 14,8 C 68 % 79 % 1025,9 hPa 0,0 l/m 1,1 km/h (1 Bft) NW 315 12,1 C 15,7 C 0,0 km/h (0 Bft)
17.06.2019 01:39 20,7 C 15,7 C 14,8 C 68 % 79 % 1025,9 hPa 0,0 l/m 1,1 km/h (1 Bft) NW 315 12,1 C 15,7 C 0,0 km/h (0 Bft)
17.06.2019 01:38 20,7 C 15,7 C 14,8 C 68 % 79 % 1025,9 hPa 0,0 l/m 1,1 km/h (1 Bft) W 270 12,1 C 15,7 C 2,1 km/h (1 Bft)
17.06.2019 01:37 20,7 C 15,7 C 14,8 C 68 % 79 % 1025,9 hPa 0,0 l/m 1,1 km/h (1 Bft) W 270 12,1 C 15,7 C 2,1 km/h (1 Bft)
17.06.2019 01:36 20,7 C 15,6 C 14,8 C 68 % 79 % 1025,9 hPa 0,0 l/m 0,8 km/h (0 Bft) W-NW 292 12,0 C 15,6 C 3,3 km/h (1 Bft)
17.06.2019 01:35 20,7 C 15,6 C 14,8 C 68 % 79 % 1025,9 hPa 0,0 l/m 0,8 km/h (0 Bft) W-NW 292 12,0 C 15,6 C 3,3 km/h (1 Bft)
17.06.2019 01:34 20,8 C 15,6 C 14,7 C 68 % 79 % 1026,1 hPa 0,0 l/m 0,5 km/h (0 Bft) W 270 12,0 C 15,6 C 2,5 km/h (1 Bft)
17.06.2019 01:33 20,8 C 15,6 C 14,7 C 68 % 79 % 1026,1 hPa 0,0 l/m 0,5 km/h (0 Bft) W 270 12,0 C 15,6 C 2,5 km/h (1 Bft)
17.06.2019 01:32 20,8 C 15,7 C 14,9 C 68 % 79 % 1026,1 hPa 0,0 l/m 0,2 km/h (0 Bft) W 270 12,1 C 15,7 C 2,7 km/h (1 Bft)
17.06.2019 01:31 20,8 C 15,7 C 14,9 C 68 % 79 % 1026,1 hPa 0,0 l/m 0,2 km/h (0 Bft) W 270 12,1 C 15,7 C 2,7 km/h (1 Bft)
17.06.2019 01:30 20,8 C 15,8 C 14,9 C 68 % 79 % 1026,1 hPa 0,0 l/m 0,0 km/h (0 Bft) W 270 12,2 C 15,8 C 0,0 km/h (0 Bft)
17.06.2019 01:29 20,8 C 15,8 C 14,9 C 68 % 79 % 1026,1 hPa 0,0 l/m 0,0 km/h (0 Bft) W 270 12,2 C 15,8 C 0,0 km/h (0 Bft)
17.06.2019 01:28 20,8 C 15,8 C 15,1 C 68 % 79 % 1026,1 hPa 0,0 l/m 0,0 km/h (0 Bft) W 270 12,2 C 15,8 C 0,0 km/h (0 Bft)
17.06.2019 01:27 20,8 C 15,8 C 15,1 C 68 % 79 % 1026,1 hPa 0,0 l/m 0,0 km/h (0 Bft) W 270 12,2 C 15,8 C 0,0 km/h (0 Bft)
17.06.2019 01:26 20,8 C 15,8 C 15,2 C 68 % 79 % 1026,1 hPa 0,0 l/m 0,0 km/h (0 Bft) W 270 12,2 C 15,8 C 0,0 km/h (0 Bft)
17.06.2019 01:25 20,8 C 15,8 C 15,2 C 68 % 79 % 1026,1 hPa 0,0 l/m 0,0 km/h (0 Bft) W 270 12,2 C 15,8 C 0,0 km/h (0 Bft)
17.06.2019 01:24 20,8 C 15,8 C 15,2 C 68 % 79 % 1026,1 hPa 0,0 l/m 0,2 km/h (0 Bft) W-NW 292 12,2 C 15,8 C 0,0 km/h (0 Bft)
17.06.2019 01:23 20,8 C 15,8 C 15,2 C 68 % 79 % 1026,1 hPa 0,0 l/m 0,2 km/h (0 Bft) W-NW 292 12,2 C 15,8 C 0,0 km/h (0 Bft)
17.06.2019 01:22 20,9 C 15,8 C 15,2 C 68 % 79 % 1026,1 hPa 0,0 l/m 0,6 km/h (0 Bft) NW 315 12,2 C 15,8 C 0,0 km/h (0 Bft)
17.06.2019 01:21 20,9 C 15,8 C 15,2 C 68 % 79 % 1026,1 hPa 0,0 l/m 0,6 km/h (0 Bft) NW 315 12,2 C 15,8 C 0,0 km/h (0 Bft)
17.06.2019 01:20 20,9 C 15,9 C 15,2 C 68 % 79 % 1026,1 hPa 0,0 l/m 0,8 km/h (0 Bft) W 270 12,3 C 15,9 C 0,0 km/h (0 Bft)
17.06.2019 01:19 20,9 C 15,9 C 15,2 C 68 % 79 % 1026,1 hPa 0,0 l/m 0,8 km/h (0 Bft) W 270 12,3 C 15,9 C 0,0 km/h (0 Bft)
17.06.2019 01:18 20,9 C 16,0 C 15,3 C 67 % 78 % 1026,1 hPa 0,0 l/m 1,4 km/h (1 Bft) W 270 12,2 C 16,0 C 0,0 km/h (0 Bft)
17.06.2019 01:17 20,9 C 16,0 C 15,3 C 67 % 78 % 1026,1 hPa 0,0 l/m 1,4 km/h (1 Bft) W 270 12,2 C 16,0 C 0,0 km/h (0 Bft)
17.06.2019 01:16 21,0 C 16,1 C 15,3 C 68 % 77 % 1026,1 hPa 0,0 l/m 1,6 km/h (1 Bft) W 270 12,1 C 16,1 C 0,0 km/h (0 Bft)
17.06.2019 01:15 21,0 C 16,1 C 15,3 C 68 % 77 % 1026,1 hPa 0,0 l/m 1,6 km/h (1 Bft) W 270 12,1 C 16,1 C 0,0 km/h (0 Bft)
17.06.2019 01:14 21,0 C 16,2 C 15,3 C 67 % 77 % 1026,2 hPa 0,0 l/m 1,9 km/h (1 Bft) W 270 12,2 C 16,2 C 2,1 km/h (1 Bft)
17.06.2019 01:13 21,0 C 16,2 C 15,3 C 67 % 77 % 1026,2 hPa 0,0 l/m 1,9 km/h (1 Bft) W 270 12,2 C 16,2 C 2,1 km/h (1 Bft)
17.06.2019 01:12 21,0 C 16,3 C 15,4 C 67 % 77 % 1026,2 hPa 0,0 l/m 1,6 km/h (1 Bft) W 270 12,3 C 16,3 C 3,3 km/h (1 Bft)
17.06.2019 01:11 21,0 C 16,3 C 15,4 C 67 % 77 % 1026,2 hPa 0,0 l/m 1,6 km/h (1 Bft) W 270 12,3 C 16,3 C 3,3 km/h (1 Bft)
17.06.2019 01:10 21,0 C 16,4 C 15,5 C 67 % 77 % 1026,2 hPa 0,0 l/m 1,3 km/h (1 Bft) W 270 12,4 C 16,4 C 3,1 km/h (1 Bft)
17.06.2019 01:09 21,0 C 16,4 C 15,5 C 67 % 77 % 1026,2 hPa 0,0 l/m 1,3 km/h (1 Bft) W 270 12,4 C 16,4 C 3,1 km/h (1 Bft)
17.06.2019 01:08 21,1 C 16,5 C 15,5 C 67 % 77 % 1026,2 hPa 0,0 l/m 0,8 km/h (0 Bft) W-SW 247 12,5 C 16,5 C 2,9 km/h (1 Bft)
17.06.2019 01:07 21,1 C 16,5 C 15,5 C 67 % 77 % 1026,2 hPa 0,0 l/m 0,8 km/h (0 Bft) W-SW 247 12,5 C 16,5 C 2,9 km/h (1 Bft)
17.06.2019 01:06 21,1 C 16,5 C 15,6 C 67 % 77 % 1026,2 hPa 0,0 l/m 0,5 km/h (0 Bft) W-SW 247 12,5 C 16,5 C 2,3 km/h (1 Bft)
17.06.2019 01:05 21,1 C 16,5 C 15,6 C 67 % 77 % 1026,2 hPa 0,0 l/m 0,5 km/h (0 Bft) W-SW 247 12,5 C 16,5 C 2,3 km/h (1 Bft)
17.06.2019 01:04 21,1 C 16,6 C 15,7 C 67 % 77 % 1026,2 hPa 0,0 l/m 0,5 km/h (0 Bft) N-NW 337 12,5 C 16,6 C 3,6 km/h (1 Bft)
17.06.2019 01:03 21,1 C 16,6 C 15,7 C 67 % 77 % 1026,2 hPa 0,0 l/m 0,5 km/h (0 Bft) N-NW 337 12,5 C 16,6 C 3,6 km/h (1 Bft)
17.06.2019 01:02 21,1 C 16,6 C 15,7 C 67 % 77 % 1026,2 hPa 0,0 l/m 0,6 km/h (0 Bft) W-NW 292 12,5 C 16,6 C 0,0 km/h (0 Bft)
17.06.2019 01:01 21,1 C 16,6 C 15,7 C 67 % 77 % 1026,2 hPa 0,0 l/m 0,6 km/h (0 Bft) W-NW 292 12,5 C 16,6 C 0,0 km/h (0 Bft)
17.06.2019 01:00 21,1 C 16,6 C 15,8 C 67 % 77 % 1026,2 hPa 0,0 l/m 1,4 km/h (1 Bft) NW 315 12,5 C 16,6 C 0,0 km/h (0 Bft)
17.06.2019 00:59 21,1 C 16,6 C 15,8 C 67 % 77 % 1026,2 hPa 0,0 l/m 1,4 km/h (1 Bft) NW 315 12,5 C 16,6 C 0,0 km/h (0 Bft)
17.06.2019 00:58 21,1 C 16,6 C 15,8 C 67 % 77 % 1026,2 hPa 0,0 l/m 2,1 km/h (1 Bft) N 360 12,5 C 16,6 C 0,0 km/h (0 Bft)
17.06.2019 00:57 21,1 C 16,6 C 15,8 C 67 % 77 % 1026,2 hPa 0,0 l/m 2,1 km/h (1 Bft) N 360 12,5 C 16,6 C 0,0 km/h (0 Bft)
17.06.2019 00:56 21,1 C 16,7 C 15,9 C 67 % 77 % 1026,2 hPa 0,0 l/m 2,7 km/h (1 Bft) N-NW 337 12,6 C 16,7 C 0,0 km/h (0 Bft)
17.06.2019 00:55 21,1 C 16,7 C 15,9 C 67 % 77 % 1026,2 hPa 0,0 l/m 2,7 km/h (1 Bft) N-NW 337 12,6 C 16,7 C 0,0 km/h (0 Bft)
17.06.2019 00:54 21,1 C 16,7 C 15,9 C 67 % 77 % 1026,7 hPa 0,0 l/m 3,2 km/h (1 Bft) W 270 12,6 C 16,7 C 2,5 km/h (1 Bft)
17.06.2019 00:53 21,1 C 16,7 C 15,9 C 67 % 77 % 1026,7 hPa 0,0 l/m 3,2 km/h (1 Bft) W 270 12,6 C 16,7 C 2,5 km/h (1 Bft)
17.06.2019 00:52 21,1 C 16,7 C 16,0 C 67 % 77 % 1026,7 hPa 0,0 l/m 3,2 km/h (1 Bft) W 270 12,6 C 16,7 C 6,9 km/h (2 Bft)
17.06.2019 00:51 21,1 C 16,7 C 16,0 C 67 % 77 % 1026,7 hPa 0,0 l/m 3,2 km/h (1 Bft) W 270 12,6 C 16,7 C 4,6 km/h (1 Bft)
17.06.2019 00:50 21,1 C 16,7 C 16,0 C 67 % 77 % 1026,7 hPa 0,0 l/m 2,9 km/h (1 Bft) NW 315 12,6 C 16,7 C 5,9 km/h (2 Bft)
17.06.2019 00:49 21,1 C 16,7 C 16,0 C 67 % 77 % 1026,7 hPa 0,0 l/m 2,9 km/h (1 Bft) NW 315 12,6 C 16,7 C 5,9 km/h (2 Bft)
17.06.2019 00:48 21,1 C 16,8 C 16,0 C 67 % 77 % 1026,7 hPa 0,0 l/m 2,7 km/h (1 Bft) W 270 12,7 C 16,8 C 6,5 km/h (2 Bft)
17.06.2019 00:47 21,1 C 16,8 C 16,0 C 67 % 77 % 1026,7 hPa 0,0 l/m 2,7 km/h (1 Bft) W 270 12,7 C 16,8 C 6,5 km/h (2 Bft)
17.06.2019 00:46 21,1 C 16,8 C 16,0 C 67 % 76 % 1026,7 hPa 0,0 l/m 2,4 km/h (1 Bft) W 270 12,5 C 16,8 C 3,3 km/h (1 Bft)
17.06.2019 00:45 21,1 C 16,8 C 16,0 C 67 % 76 % 1026,7 hPa 0,0 l/m 2,4 km/h (1 Bft) W 270 12,5 C 16,8 C 3,3 km/h (1 Bft)
17.06.2019 00:44 21,1 C 16,8 C 16,1 C 67 % 76 % 1026,7 hPa 0,0 l/m 2,3 km/h (1 Bft) W-NW 292 12,5 C 16,8 C 3,8 km/h (1 Bft)
17.06.2019 00:43 21,1 C 16,8 C 16,1 C 67 % 76 % 1026,7 hPa 0,0 l/m 2,3 km/h (1 Bft) W-NW 292 12,5 C 16,8 C 3,8 km/h (1 Bft)
17.06.2019 00:42 21,1 C 16,8 C 16,0 C 67 % 76 % 1026,7 hPa 0,0 l/m 1,9 km/h (1 Bft) NW 315 12,5 C 16,8 C 2,9 km/h (1 Bft)
17.06.2019 00:41 21,1 C 16,8 C 16,0 C 67 % 76 % 1026,7 hPa 0,0 l/m 1,9 km/h (1 Bft) NW 315 12,5 C 16,8 C 2,9 km/h (1 Bft)
17.06.2019 00:40 21,1 C 16,8 C 15,8 C 67 % 76 % 1026,7 hPa 0,0 l/m 1,4 km/h (1 Bft) W 270 12,5 C 16,8 C 2,7 km/h (1 Bft)
17.06.2019 00:39 21,1 C 16,8 C 15,8 C 67 % 76 % 1026,7 hPa 0,0 l/m 1,4 km/h (1 Bft) W 270 12,5 C 16,8 C 2,7 km/h (1 Bft)
17.06.2019 00:38 21,1 C 16,8 C 15,9 C 67 % 76 % 1026,7 hPa 0,0 l/m 1,1 km/h (1 Bft) W 270 12,5 C 16,8 C 4,8 km/h (1 Bft)
17.06.2019 00:37 21,1 C 16,8 C 15,9 C 67 % 76 % 1026,7 hPa 0,0 l/m 1,1 km/h (1 Bft) W 270 12,5 C 16,8 C 4,8 km/h (1 Bft)
17.06.2019 00:36 21,2 C 16,8 C 15,9 C 67 % 76 % 1026,7 hPa 0,0 l/m 0,6 km/h (0 Bft) W-SW 247 12,5 C 16,8 C 4,0 km/h (1 Bft)
17.06.2019 00:35 21,2 C 16,8 C 15,9 C 67 % 76 % 1026,7 hPa 0,0 l/m 0,6 km/h (0 Bft) W-SW 247 12,5 C 16,8 C 4,0 km/h (1 Bft)
17.06.2019 00:34 21,2 C 16,9 C 16,1 C 67 % 76 % 1026,9 hPa 0,0 l/m 0,2 km/h (0 Bft) W 270 12,6 C 16,9 C 2,9 km/h (1 Bft)
17.06.2019 00:33 21,2 C 16,9 C 16,1 C 67 % 76 % 1026,9 hPa 0,0 l/m 0,2 km/h (0 Bft) W 270 12,6 C 16,9 C 2,9 km/h (1 Bft)
17.06.2019 00:32 21,2 C 16,9 C 16,2 C 67 % 76 % 1026,9 hPa 0,0 l/m 0,0 km/h (0 Bft) W 270 12,6 C 16,9 C 0,0 km/h (0 Bft)
17.06.2019 00:31 21,2 C 16,9 C 16,2 C 67 % 76 % 1026,9 hPa 0,0 l/m 0,0 km/h (0 Bft) W 270 12,6 C 16,9 C 0,0 km/h (0 Bft)
17.06.2019 00:30 21,2 C 16,9 C 16,2 C 67 % 75 % 1026,9 hPa 0,0 l/m 0,0 km/h (0 Bft) N-NW 337 12,4 C 16,9 C 0,0 km/h (0 Bft)
17.06.2019 00:29 21,2 C 16,9 C 16,2 C 67 % 75 % 1026,9 hPa 0,0 l/m 0,0 km/h (0 Bft) N-NW 337 12,4 C 16,9 C 0,0 km/h (0 Bft)
17.06.2019 00:28 21,2 C 16,9 C 16,1 C 67 % 75 % 1026,9 hPa 0,0 l/m 0,0 km/h (0 Bft) SW 225 12,4 C 16,9 C 0,0 km/h (0 Bft)
17.06.2019 00:27 21,2 C 16,9 C 16,1 C 67 % 75 % 1026,9 hPa 0,0 l/m 0,0 km/h (0 Bft) SW 225 12,4 C 16,9 C 0,0 km/h (0 Bft)
17.06.2019 00:26 21,2 C 17,0 C 16,1 C 67 % 75 % 1026,9 hPa 0,0 l/m 0,0 km/h (0 Bft) SW 225 12,5 C 17,0 C 0,0 km/h (0 Bft)
17.06.2019 00:25 21,2 C 17,0 C 16,1 C 67 % 75 % 1026,9 hPa 0,0 l/m 0,0 km/h (0 Bft) SW 225 12,5 C 17,0 C 0,0 km/h (0 Bft)
17.06.2019 00:24 21,2 C 17,1 C 16,1 C 67 % 75 % 1026,9 hPa 0,0 l/m 0,0 km/h (0 Bft) SW 225 12,6 C 17,1 C 0,0 km/h (0 Bft)
17.06.2019 00:23 21,2 C 17,1 C 16,1 C 67 % 75 % 1026,9 hPa 0,0 l/m 0,0 km/h (0 Bft) SW 225 12,6 C 17,1 C 0,0 km/h (0 Bft)
17.06.2019 00:22 21,2 C 17,1 C 16,2 C 67 % 75 % 1026,9 hPa 0,0 l/m 0,0 km/h (0 Bft) S-SW 202 12,6 C 17,1 C 0,0 km/h (0 Bft)
17.06.2019 00:21 21,2 C 17,1 C 16,2 C 67 % 75 % 1026,9 hPa 0,0 l/m 0,0 km/h (0 Bft) S-SW 202 12,6 C 17,1 C 0,0 km/h (0 Bft)
17.06.2019 00:20 21,2 C 17,1 C 16,3 C 67 % 75 % 1026,9 hPa 0,0 l/m 0,0 km/h (0 Bft) S-SW 202 12,6 C 17,1 C 0,0 km/h (0 Bft)
17.06.2019 00:19 21,2 C 17,1 C 16,3 C 67 % 75 % 1026,9 hPa 0,0 l/m 0,0 km/h (0 Bft) S-SW 202 12,6 C 17,1 C 0,0 km/h (0 Bft)
17.06.2019 00:18 21,2 C 17,2 C 16,3 C 67 % 75 % 1026,9 hPa 0,0 l/m 0,0 km/h (0 Bft) S-SO 157 12,7 C 17,2 C 0,0 km/h (0 Bft)
17.06.2019 00:17 21,2 C 17,2 C 16,3 C 67 % 75 % 1026,9 hPa 0,0 l/m 0,0 km/h (0 Bft) S-SO 157 12,7 C 17,2 C 0,0 km/h (0 Bft)
17.06.2019 00:16 21,2 C 17,3 C 16,4 C 67 % 75 % 1026,9 hPa 0,0 l/m 0,0 km/h (0 Bft) S-SO 157 12,8 C 17,3 C 0,0 km/h (0 Bft)
17.06.2019 00:15 21,2 C 17,3 C 16,4 C 67 % 75 % 1026,9 hPa 0,0 l/m 0,0 km/h (0 Bft) S-SO 157 12,8 C 17,3 C 0,0 km/h (0 Bft)
17.06.2019 00:14 21,2 C 17,3 C 16,6 C 67 % 75 % 1026,9 hPa 0,0 l/m 0,0 km/h (0 Bft) S-SO 157 12,8 C 17,3 C 0,0 km/h (0 Bft)
17.06.2019 00:13 21,2 C 17,3 C 16,6 C 67 % 75 % 1026,9 hPa 0,0 l/m 0,0 km/h (0 Bft) S-SO 157 12,8 C 17,3 C 0,0 km/h (0 Bft)
17.06.2019 00:12 21,2 C 17,4 C 16,9 C 67 % 74 % 1026,9 hPa 0,0 l/m 0,2 km/h (0 Bft) S-SO 157 12,7 C 17,4 C 0,0 km/h (0 Bft)
17.06.2019 00:11 21,2 C 17,4 C 16,9 C 67 % 74 % 1026,9 hPa 0,0 l/m 0,2 km/h (0 Bft) S-SO 157 12,7 C 17,4 C 0,0 km/h (0 Bft)
17.06.2019 00:10 21,2 C 17,4 C 16,9 C 67 % 74 % 1026,9 hPa 0,0 l/m 0,2 km/h (0 Bft) S-SO 157 12,7 C 17,4 C 0,0 km/h (0 Bft)
17.06.2019 00:09 21,2 C 17,4 C 16,9 C 67 % 74 % 1026,9 hPa 0,0 l/m 0,2 km/h (0 Bft) S-SO 157 12,7 C 17,4 C 0,0 km/h (0 Bft)
17.06.2019 00:08 21,2 C 17,4 C 16,9 C 67 % 74 % 1026,9 hPa 0,0 l/m 0,2 km/h (0 Bft) S-SO 157 12,7 C 17,4 C 0,0 km/h (0 Bft)
17.06.2019 00:07 21,2 C 17,4 C 16,9 C 67 % 74 % 1026,9 hPa 0,0 l/m 0,2 km/h (0 Bft) S-SO 157 12,7 C 17,4 C 0,0 km/h (0 Bft)
17.06.2019 00:06 21,2 C 17,4 C 16,9 C 67 % 74 % 1026,9 hPa 0,0 l/m 0,2 km/h (0 Bft) S-SO 157 12,7 C 17,4 C 0,0 km/h (0 Bft)
17.06.2019 00:05 21,3 C 17,4 C 16,9 C 67 % 74 % 1026,9 hPa 0,0 l/m 0,2 km/h (0 Bft) S-SO 157 12,7 C 17,4 C 0,0 km/h (0 Bft)
17.06.2019 00:03 21,3 C 17,4 C 16,9 C 67 % 74 % 1026,9 hPa 0,0 l/m 0,2 km/h (0 Bft) S-SO 157 12,7 C 17,4 C 0,0 km/h (0 Bft)
17.06.2019 00:02 21,2 C 17,4 C 16,9 C 67 % 74 % 1026,9 hPa 0,0 l/m 0,2 km/h (0 Bft) S-SO 157 12,7 C 17,4 C 0,0 km/h (0 Bft)
17.06.2019 00:01 21,2 C 17,4 C 16,9 C 67 % 74 % 1026,9 hPa 0,0 l/m 0,2 km/h (0 Bft) S-SO 157 12,7 C 17,4 C 0,0 km/h (0 Bft)
17.06.2019 00:00 21,2 C 17,4 C 16,9 C 67 % 74 % 1026,9 hPa 0,0 l/m 0,2 km/h (0 Bft) S-SO 157 12,7 C 17,4 C 0,0 km/h (0 Bft)
_ Min-Zeit 05:21 04:35 05:03 12:25 14:05 17:35 - 00:13 - - 03:11 04:35 00:00
Minimum _ 18,8 C 13,7 C 12,9 C 61 % 45 % 1023,1 hPa - 0,0 km/h (0 Bft) - - 10,8 C 13,7 C 0,0 km/h (0 Bft)
_ Max-Zeit 19:09 14:03 14:13 06:45 04:59 00:00 00:00 14:33 - - 07:59 14:03 14:25
Maximum _ 22,5 C 26,5 C 34,2 C 73 % 84 % 1026,9 hPa 0,0 l/m 12,6 km/h
SO (3 Bft)
- - 15,8 C 26,5 C 33,9 km/h
SO (5 Bft)
Durchschnitt _ 20,7 C 20,5 C 21,7 C 67 % 65 % 1024,9 hPa #0,0 l/m 5,0 km/h (1 Bft) O-SO - 13,3 C 20,5 C 8,0 km/h (2 Bft)